GFSGL_sfc_wetblb_036.txt.gz
Wetbulb
42.24 40.59 40.24 40.22 41.07 40.82 40.20 39.73 39.83 39.30 39.22 39.13 39.91 39.93 39.58 38.56 38.71 37.91 37.38 37.03 35.69 33.41 31.23 30.85 31.08 32.33 30.59 30.35 30.78 30.84 30.14 30.91 28.92 29.56 32.61 34.22 32.63 31.36 33.50 35.36 38.95 39.83 40.05
40.00 40.21 39.77 39.60 40.49 39.94 39.81 39.73 39.46 38.55 39.18 39.03 39.22 38.88 38.32 37.80 37.31 35.19 33.15 32.29 30.95 29.63 29.52 29.97 30.22 31.13 28.25 28.56 28.48 27.88 28.80 29.69 28.04 25.67 27.14 28.35 28.50 29.73 30.24 30.50 34.15 36.43 36.95
39.90 39.20 38.87 38.31 39.01 38.81 38.96 39.24 38.99 38.78 38.54 38.02 38.41 37.28 36.00 34.92 32.58 31.83 30.84 29.94 28.91 28.82 28.74 28.93 28.41 28.07 26.69 27.12 27.24 27.77 28.58 30.61 27.88 26.04 24.88 26.85 27.53 28.61 28.62 30.36 30.97 31.44 34.86
39.38 38.52 37.67 37.45 38.11 37.35 38.09 38.37 38.14 38.76 37.85 36.86 35.98 35.28 33.91 31.76 31.22 30.17 29.64 27.66 27.16 27.82 28.12 27.63 27.09 26.94 26.42 26.81 28.19 27.64 28.41 26.43 25.98 24.80 24.50 25.17 26.04 27.19 26.83 26.15 25.94 28.10 28.57
38.42 37.64 37.31 37.52 37.73 38.45 37.45 37.04 39.24 38.27 37.38 36.39 33.75 32.93 31.99 30.89 30.65 28.25 28.02 26.97 26.37 26.25 26.82 26.72 27.18 28.38 30.02 29.80 28.94 28.23 27.75 26.20 25.98 25.66 24.90 24.06 23.53 23.01 23.00 24.29 24.34 25.10 26.03
38.37 38.23 38.82 38.24 38.50 37.06 37.90 37.12 37.80 36.96 36.86 33.55 32.02 31.69 30.52 31.29 32.24 31.54 29.71 26.35 26.59 26.01 24.50 25.26 25.96 27.54 26.67 28.95 29.43 30.19 30.02 27.14 25.88 25.12 25.28 24.42 24.06 23.44 24.21 23.88 23.21 21.88 20.37
38.19 38.95 38.27 38.14 37.56 36.83 36.69 36.87 37.45 35.91 33.42 31.62 31.20 30.32 28.40 28.34 32.35 32.80 32.80 28.61 26.02 24.81 24.29 24.60 25.54 27.26 26.96 26.27 27.73 28.61 28.75 29.61 28.67 28.06 26.76 25.59 24.69 24.85 24.90 23.50 23.02 22.87 22.91
37.01 37.05 37.60 36.90 36.24 36.38 36.44 35.62 34.02 33.28 31.60 30.61 29.10 28.62 27.46 29.03 31.93 32.30 32.37 27.55 25.67 25.65 25.69 25.39 24.63 24.02 24.94 25.91 25.76 26.58 26.30 26.76 27.57 28.14 27.51 27.21 27.36 27.72 27.28 27.62 27.04 24.82 27.26
35.57 36.61 37.04 37.21 36.70 36.40 36.53 35.55 35.34 33.90 29.81 29.10 29.32 27.62 26.73 27.12 31.18 31.35 27.64 24.04 24.73 24.09 25.78 25.44 24.62 23.76 26.18 27.85 26.73 25.24 25.10 25.46 28.51 29.32 29.79 30.42 31.31 32.16 31.23 29.67 28.01 27.08 25.46
35.25 35.75 36.80 37.25 36.64 35.64 34.48 33.96 33.32 29.57 29.89 28.92 28.68 27.92 29.46 25.83 29.02 29.63 27.67 22.27 16.02 22.78 23.38 23.72 25.05 24.39 26.09 26.94 25.40 24.51 23.23 24.24 24.28 24.41 24.71 26.38 27.98 27.56 29.15 27.63 26.33 23.41 23.57
35.35 35.59 36.97 36.80 35.55 37.08 34.53 31.10 28.80 28.87 27.91 26.84 24.36 25.90 26.31 25.70 24.46 27.60 26.80 20.20 20.81 22.32 21.55 21.20 22.71 25.21 27.35 27.79 27.40 25.91 25.98 27.14 26.99 26.60 26.55 26.02 26.09 26.71 27.61 29.19 29.39 28.37 26.53
34.86 34.97 34.49 34.24 34.69 34.50 29.94 28.84 29.10 27.43 25.55 17.70 13.46 17.84 21.78 23.25 26.45 25.58 25.54 24.88 24.58 19.66 20.40 21.77 23.44 26.97 25.88 25.84 26.16 27.37 27.74 26.65 26.51 26.29 25.35 25.33 25.81 27.09 28.77 29.99 31.39 31.87 32.04
34.08 33.45 33.04 33.31 32.51 31.73 29.04 26.87 26.44 25.15 21.00 19.04 18.63 16.42 16.06 22.95 20.66 24.93 24.76 24.79 24.39 21.22 22.20 24.48 25.34 24.52 24.37 24.07 25.26 25.60 25.07 24.61 24.15 22.95 23.99 25.44 27.16 28.85 29.46 29.57 31.19 31.06 31.03
32.79 31.47 31.21 32.61 30.23 29.50 28.90 28.23 24.84 20.49 19.25 23.45 19.34 15.32 11.45 19.46 19.06 20.29 21.39 18.32 22.25 23.08 22.27 22.38 22.63 22.83 22.03 22.66 22.68 23.47 23.79 23.46 23.52 22.92 23.43 25.04 26.87 26.81 25.81 27.25 25.70 24.13 25.14
33.21 30.82 29.83 31.29 30.50 28.67 27.81 25.05 25.45 24.50 22.29 18.41 18.51 16.56 8.07 7.61 16.90 23.33 24.81 22.18 20.60 23.10 16.62 15.95 18.94 18.52 18.69 19.71 19.84 20.91 22.24 22.42 21.77 22.44 22.44 23.34 23.96 24.87 25.58 24.57 21.85 21.74 21.83
31.07 29.49 29.48 27.83 26.12 25.85 25.15 25.96 28.76 28.40 28.40 30.50 30.18 20.71 16.22 22.10 25.74 26.18 25.90 24.47 23.08 22.47 15.14 11.37 14.57 15.73 16.20 17.45 17.14 18.02 19.12 19.93 20.25 20.88 20.58 20.65 21.03 22.39 23.59 22.26 20.94 17.90 17.08
30.56 30.44 28.77 27.93 26.92 27.11 26.75 26.65 18.57 23.82 29.09 28.84 30.02 29.81 29.36 26.14 25.84 25.91 24.88 22.74 21.80 19.28 10.08 10.65 12.06 14.23 15.53 16.26 16.09 16.61 16.52 17.85 18.86 18.17 18.22 18.41 19.15 20.15 21.88 19.78 20.51 21.03 18.23
30.07 29.93 28.77 27.50 26.07 24.91 25.00 25.85 25.28 18.64 15.10 16.95 25.00 26.63 27.27 25.68 25.21 24.62 23.64 20.32 12.40 12.70 11.00 8.26 12.37 14.81 15.39 15.53 15.40 15.06 15.31 14.87 14.00 14.56 15.17 15.78 16.53 18.56 19.18 20.36 20.13 18.35 17.41
29.53 27.97 27.11 24.96 25.45 25.07 25.55 25.26 19.66 23.50 23.06 21.85 17.22 18.36 17.67 25.68 23.55 23.60 22.11 8.50 7.14 7.74 9.55 9.80 8.62 14.61 14.03 14.57 13.35 12.91 10.90 10.50 10.19 9.66 11.86 12.89 13.86 16.68 17.13 18.63 17.70 17.63 15.22
28.49 25.08 26.15 25.94 25.11 24.75 25.19 18.45 22.75 23.42 24.31 22.54 13.88 13.50 14.77 14.26 4.95 2.08 0.22 -1.04 -0.68 4.74 3.91 7.79 8.73 10.75 10.58 11.74 12.37 10.70 10.79 9.07 8.82 8.87 8.59 9.00 10.53 14.16 15.30 16.55 17.17 14.05 15.72
27.43 27.19 25.46 25.67 24.16 24.23 24.29 16.77 19.12 20.29 20.58 16.47 15.21 13.84 12.37 10.59 6.42 3.16 5.23 3.31 3.04 2.66 0.68 4.56 3.01 3.05 7.87 9.05 12.30 10.24 9.42 5.82 8.09 7.75 8.22 8.94 8.66 10.71 13.38 13.33 13.31 12.67 13.88
20.50 20.06 21.35 21.73 24.99 24.20 23.23 23.97 23.39 14.71 16.82 17.87 17.72 13.03 10.93 4.27 7.46 7.71 5.82 7.32 3.74 3.66 4.34 2.78 4.04 5.48 7.59 10.39 10.19 3.73 6.25 3.66 4.03 6.57 6.99 8.20 9.16 11.66 11.58 10.79 10.40 6.12 8.92
16.70 15.39 19.29 23.40 23.76 20.67 22.83 23.06 18.57 20.48 17.60 19.95 18.52 17.07 10.48 11.57 12.72 12.60 9.96 7.20 2.76 1.31 0.70 1.20 -1.29 2.76 4.34 5.05 6.89 8.87 6.21 5.96 6.07 4.66 5.20 6.34 8.49 10.13 8.04 6.98 8.50 7.94 3.67
21.69 18.40 18.55 19.60 23.23 20.57 22.14 15.71 15.39 14.12 15.58 16.49 14.44 15.09 12.14 13.21 15.76 15.14 8.10 2.97 -1.04 -1.40 -3.76 -0.94 0.98 4.13 4.77 3.08 5.42 7.02 9.11 5.98 6.48 7.14 5.65 4.75 7.18 8.36 6.10 7.05 8.03 6.10 3.27
24.36 20.83 19.68 18.09 20.56 24.47 21.31 21.72 20.72 18.27 18.12 18.89 20.51 15.80 13.19 10.17 14.93 13.82 7.05 3.10 3.89 -1.76 0.02 -1.84 -1.49 2.49 1.62 3.04 6.45 7.54 6.47 8.41 6.10 6.72 7.02 7.29 4.52 4.77 5.80 5.92 4.15 6.55 2.66
27.12 22.16 21.12 18.25 16.77 19.57 24.26 20.86 16.75 11.89 12.16 15.24 17.89 16.07 13.54 13.40 13.48 8.75 6.35 5.08 6.65 3.47 -0.92 -2.38 -0.47 1.32 2.00 4.14 6.82 8.69 7.07 6.72 5.78 7.66 6.80 8.26 4.81 4.99 3.96 3.37 3.29 3.54 1.82

GFSGL_sfc_wetblb_039.txt.gz
Wetbulb
40.54 40.54 39.19 39.06 40.26 39.97 39.29 38.96 38.97 38.76 38.25 37.68 38.39 38.51 38.13 36.75 36.37 35.47 34.44 32.66 30.83 29.55 28.90 28.86 29.34 30.30 29.64 30.22 28.98 29.09 28.38 28.39 25.74 27.44 30.39 31.87 31.14 28.91 30.56 31.53 33.29 33.83 37.63
38.74 39.15 38.94 38.51 38.65 38.89 38.81 38.95 38.92 37.77 37.65 37.86 37.76 37.67 37.23 35.76 34.21 32.12 30.79 29.99 28.75 27.63 27.65 27.80 28.47 30.06 27.04 27.02 26.64 26.11 26.53 26.99 26.35 25.29 26.64 26.98 26.99 28.17 28.63 28.54 32.25 34.72 32.29
37.90 37.84 37.58 37.08 36.70 37.73 38.03 38.41 38.42 37.55 38.33 37.56 38.43 37.89 35.73 34.86 32.46 30.33 29.59 28.10 27.47 27.73 27.47 26.93 26.38 26.08 24.96 25.21 25.61 25.88 26.67 29.04 27.13 26.34 26.01 26.30 26.40 27.03 27.00 27.52 28.28 28.55 32.34
38.15 37.52 36.68 36.34 36.05 36.41 36.94 37.07 37.36 37.40 37.78 37.31 36.84 36.13 34.99 32.18 30.82 29.91 29.02 27.59 27.07 27.17 27.51 26.98 26.01 25.73 25.27 25.12 25.74 26.89 28.12 27.94 26.77 26.37 25.69 25.70 26.46 27.03 26.05 24.91 24.10 26.41 26.55
37.02 36.56 36.29 36.42 36.28 36.56 36.48 36.60 36.75 37.56 36.51 36.17 37.50 34.75 32.70 31.20 30.34 28.48 28.06 27.02 26.39 26.09 26.81 26.72 26.36 27.76 30.15 28.22 26.27 24.92 24.91 26.30 25.74 24.89 24.69 25.09 24.23 23.32 23.05 23.90 23.31 23.58 24.83
35.50 36.55 36.90 36.81 36.67 36.11 35.60 35.77 35.12 35.03 35.86 37.32 33.64 32.89 31.82 31.25 32.59 32.40 31.01 26.81 27.43 26.69 25.14 25.70 25.94 27.99 26.92 28.43 27.87 28.24 27.44 24.97 24.19 23.97 23.89 23.43 23.82 23.52 23.60 23.06 22.48 21.30 20.04
35.06 36.23 36.75 36.45 35.78 35.33 35.50 35.57 33.85 34.05 33.97 33.11 31.79 31.60 29.09 28.02 32.39 32.58 32.58 29.16 27.25 25.64 24.84 25.06 25.38 26.41 26.11 25.08 26.16 27.30 27.36 28.37 27.54 25.98 24.45 24.57 24.45 24.90 24.34 22.96 22.20 22.25 23.00
34.79 35.88 36.33 35.86 35.67 35.60 34.97 33.85 31.42 31.65 30.71 30.58 28.72 28.36 27.38 28.44 31.31 31.38 29.62 25.20 24.25 24.47 24.56 24.58 24.12 23.54 24.17 24.87 25.02 25.50 25.87 27.05 27.13 27.13 26.81 26.80 27.82 27.91 26.66 26.63 26.23 25.37 25.66
33.83 33.93 34.42 35.12 35.31 35.10 35.32 36.16 35.37 34.52 32.50 28.26 28.49 27.83 27.14 26.52 29.99 29.79 26.86 23.21 23.39 22.52 23.93 24.07 23.47 22.48 24.77 27.07 25.27 23.99 24.29 24.94 28.30 29.63 29.69 29.54 29.58 29.85 30.78 29.22 26.81 25.43 22.76
33.40 33.44 34.43 35.62 35.10 33.79 34.82 35.07 32.40 27.87 28.67 28.72 28.32 27.76 28.85 24.49 27.60 28.00 26.34 20.04 13.61 21.45 22.20 22.79 24.03 24.16 25.85 27.99 25.57 24.19 22.43 24.21 25.47 25.53 25.68 26.47 27.46 27.25 28.58 26.82 23.95 23.26 23.11
33.80 34.16 34.90 34.68 33.64 33.90 32.84 28.53 27.89 27.90 28.65 26.71 24.66 25.36 25.99 25.29 23.37 26.80 26.23 18.94 19.43 21.18 21.41 21.41 22.74 25.27 26.06 26.23 26.27 25.15 25.31 26.20 26.00 26.68 26.85 26.86 27.13 26.78 26.24 26.69 26.90 25.52 23.73
33.50 33.74 33.20 33.05 32.66 33.01 32.26 29.88 29.48 27.30 25.39 19.75 13.58 17.70 21.59 22.68 25.48 24.94 25.94 25.46 24.86 17.83 21.18 22.12 23.25 24.97 25.07 24.83 24.70 25.69 25.93 24.61 24.51 24.18 24.84 25.96 26.33 27.45 28.72 29.21 29.35 29.90 30.03
34.12 33.34 31.67 32.00 31.00 30.18 27.46 26.31 26.67 25.63 22.17 19.26 18.12 15.91 16.14 22.98 20.87 24.58 25.20 25.73 24.79 19.78 22.75 23.04 23.80 23.33 23.18 22.99 23.66 24.31 23.88 22.93 22.58 21.14 21.94 23.50 25.47 27.43 28.66 28.92 30.38 31.20 31.34
32.75 33.10 31.47 30.22 31.15 30.85 29.94 28.76 25.31 21.01 18.71 22.34 18.80 15.35 12.08 18.85 19.34 19.81 21.36 20.52 21.51 21.80 19.53 18.58 18.26 21.30 20.43 21.12 21.06 21.77 22.06 22.04 21.69 21.13 21.45 23.54 25.75 26.16 26.25 27.79 26.71 26.57 24.92
31.49 32.22 30.45 29.54 30.59 28.77 27.65 25.97 26.34 24.62 22.60 18.28 18.65 16.88 8.09 7.76 16.69 22.74 24.98 20.09 14.95 19.78 11.85 10.57 13.19 15.36 16.71 17.95 18.18 19.28 20.02 20.24 18.82 19.64 19.98 20.24 21.22 23.31 24.52 25.99 24.27 22.33 20.65
30.64 30.26 29.63 28.34 28.49 26.86 27.25 27.39 28.63 27.93 28.49 30.21 30.17 21.62 15.77 22.69 26.12 26.37 25.79 23.95 22.72 21.03 12.42 6.67 3.05 4.31 12.08 15.38 15.10 15.86 17.12 16.48 16.55 17.88 17.92 18.36 18.58 19.16 21.94 23.06 22.48 19.34 17.84
30.18 30.30 27.93 29.04 27.82 26.57 25.86 25.98 24.43 24.61 28.62 28.49 29.14 29.11 29.31 26.38 26.34 25.75 24.77 22.68 21.31 17.59 7.19 4.79 0.70 4.50 7.41 14.70 14.55 14.66 13.64 13.74 14.94 14.59 15.20 15.09 16.51 17.84 19.67 20.72 20.12 19.14 19.14
29.14 29.33 29.02 28.18 25.12 25.34 23.42 24.36 24.87 17.62 21.38 16.16 23.91 25.79 27.42 27.19 25.76 24.67 23.45 19.94 11.39 11.45 9.15 5.14 2.87 5.59 7.74 13.63 14.13 13.25 12.80 10.91 10.23 10.42 11.78 12.00 12.89 15.24 16.75 18.01 18.11 15.05 15.31
29.55 28.32 27.09 23.19 21.01 21.66 20.59 24.26 19.34 21.87 21.86 17.99 15.31 17.70 18.80 26.57 25.48 23.47 21.83 8.55 6.64 6.61 8.23 8.25 4.04 5.96 6.97 9.97 9.49 9.38 6.80 7.25 7.82 6.21 8.49 8.99 9.07 12.21 14.41 15.68 16.19 12.25 12.34
28.67 27.43 26.76 26.31 23.78 22.77 21.34 18.42 18.13 21.18 21.71 20.57 12.71 13.19 10.93 11.94 5.43 1.54 -0.95 -2.38 -2.20 4.14 3.30 6.81 7.31 6.38 2.45 3.71 3.05 3.73 7.56 5.33 6.62 7.06 6.55 6.66 7.34 9.51 12.34 12.85 14.05 13.22 13.12
23.92 24.08 25.66 24.47 21.98 22.46 22.19 19.84 17.36 14.23 20.58 15.44 14.58 10.66 11.01 18.36 12.32 6.99 8.44 7.33 6.98 4.89 2.00 4.63 1.84 -0.24 0.64 0.46 5.83 3.29 4.54 0.62 5.51 6.66 6.22 7.15 5.96 6.94 10.88 10.88 10.61 11.67 12.54
21.19 19.90 17.49 16.15 19.70 18.46 22.87 20.58 20.96 14.69 14.19 14.18 15.61 17.12 14.94 10.75 14.46 10.82 9.73 10.81 8.09 6.43 5.51 3.38 3.41 3.77 3.62 5.00 3.29 -1.52 2.70 -0.16 1.26 3.76 5.00 6.94 7.67 8.22 8.33 7.67 7.65 6.16 8.51
20.03 18.39 17.70 18.96 19.32 18.04 13.78 20.60 16.42 16.07 16.41 13.74 14.13 14.42 9.94 9.39 11.84 14.75 13.68 10.81 4.71 4.51 3.47 2.01 -3.12 0.57 0.06 -2.26 -1.86 2.35 1.86 4.45 5.72 3.66 3.18 4.20 6.98 7.97 5.86 4.51 6.27 5.70 4.75
27.04 22.63 19.90 19.20 18.11 20.41 19.27 20.03 16.25 13.73 15.51 14.32 14.30 17.02 13.81 12.02 10.79 11.96 13.87 7.66 -0.13 1.19 -5.47 0.25 2.12 3.83 2.30 -2.95 -3.85 -0.80 3.97 2.34 5.68 6.67 6.07 3.75 5.62 7.21 4.97 6.19 6.72 4.78 3.88
25.19 25.96 24.92 22.23 21.57 21.25 20.22 17.61 19.28 18.48 17.51 17.29 17.66 14.56 17.47 17.37 10.62 11.50 11.61 4.44 3.03 0.48 4.60 0.87 0.19 2.26 2.34 -0.07 0.38 2.09 -0.31 3.25 3.71 7.15 5.75 5.62 3.00 2.37 3.73 4.79 2.47 5.30 1.88
27.79 27.28 26.88 24.00 21.50 21.12 20.21 19.19 19.42 19.80 18.28 17.35 17.43 17.80 18.03 19.99 18.13 15.65 13.33 5.17 3.63 4.79 4.46 0.41 1.05 2.61 1.65 0.59 2.05 2.50 0.78 0.47 0.12 5.84 4.78 7.12 3.81 3.09 2.30 2.96 3.38 3.80 4.01

GFSGL_sfc_wetblb_042.txt.gz
Wetbulb
37.96 38.42 38.21 38.01 37.97 39.33 38.70 38.44 38.17 37.84 37.61 37.11 37.35 37.50 37.37 37.02 36.28 35.72 34.41 32.93 30.65 29.82 28.76 28.53 28.84 29.76 29.18 28.71 28.72 27.89 27.13 27.40 24.43 26.65 28.98 31.25 31.35 32.39 32.44 32.20 33.85 34.15 34.92
36.94 36.92 36.82 37.07 36.83 36.51 37.28 38.01 38.06 37.78 37.64 36.81 37.56 37.00 37.02 36.40 35.28 33.30 31.81 30.46 28.97 28.47 28.17 27.58 27.37 28.98 25.69 25.85 25.90 25.70 26.01 26.40 25.46 24.68 27.82 28.58 28.86 29.91 29.90 29.96 31.65 33.23 32.98
37.11 36.41 36.29 36.12 35.21 34.71 35.33 36.29 37.10 37.10 36.74 36.34 36.51 35.88 36.05 35.81 32.24 31.68 30.46 28.67 28.30 27.78 27.29 26.96 26.57 26.00 24.77 25.11 25.26 25.23 25.85 27.49 28.34 28.00 27.37 28.03 27.76 28.54 28.73 29.29 29.10 29.83 31.40
36.22 35.51 35.08 34.93 34.75 34.59 35.00 35.40 35.73 36.47 35.95 35.68 35.21 35.37 36.67 33.65 31.14 30.64 29.71 28.19 27.04 27.01 27.51 27.18 26.54 25.97 25.13 24.94 25.62 24.74 25.92 25.54 25.46 25.28 25.87 26.20 27.15 28.65 28.04 26.91 26.44 27.98 28.12
34.19 34.76 34.93 34.82 34.66 35.03 35.17 35.13 35.22 35.16 34.83 34.97 35.26 36.28 33.56 31.64 31.02 29.55 28.22 27.21 26.79 26.48 27.13 27.38 27.48 28.28 30.66 29.40 27.56 25.97 24.25 23.85 24.41 24.41 23.81 24.34 24.83 25.39 24.79 26.73 25.21 25.58 26.25
32.93 34.71 35.53 35.60 35.23 34.85 34.41 34.12 34.07 33.98 34.22 36.12 34.95 33.12 30.48 31.92 32.87 32.69 32.09 28.77 28.41 27.55 26.24 26.61 26.29 27.51 26.64 28.17 27.56 27.32 26.32 24.11 23.94 23.60 23.53 23.33 23.97 24.89 25.90 25.41 24.49 23.59 22.95
32.59 34.80 35.63 35.32 34.72 34.47 34.57 34.10 33.09 31.82 32.33 30.96 29.92 29.77 28.23 27.80 32.14 32.08 31.33 27.08 25.33 24.63 23.77 23.70 24.04 25.39 25.23 24.61 25.36 26.32 26.42 27.19 26.68 26.34 25.20 24.79 24.90 26.17 26.50 25.18 24.20 24.43 24.33
33.11 33.96 34.77 33.85 33.45 34.00 33.73 33.61 32.90 33.70 33.89 32.44 28.74 27.07 26.57 28.24 30.92 30.48 28.93 24.39 23.31 23.52 23.25 22.97 22.95 22.99 23.72 24.30 24.79 24.89 25.29 25.89 26.54 26.51 25.78 26.08 27.08 27.87 28.13 27.89 27.05 25.69 26.81
31.41 32.19 32.33 32.86 33.51 33.43 32.88 32.58 32.80 34.20 33.25 29.96 27.57 26.75 26.90 25.95 29.06 28.96 26.90 23.66 22.61 22.09 23.24 23.54 23.47 22.90 24.80 27.25 26.58 24.52 24.28 25.05 28.07 29.42 30.12 30.19 30.10 30.06 29.68 27.94 26.18 25.54 23.11
31.07 31.90 32.83 33.81 33.19 32.05 31.82 32.86 31.05 27.83 27.84 27.77 28.09 27.74 28.64 24.32 27.10 27.73 26.46 20.44 13.53 21.34 22.57 23.33 24.20 24.32 25.72 26.23 24.36 23.71 21.93 24.34 25.11 25.86 27.25 28.10 28.70 28.33 28.83 27.69 26.28 23.80 24.26
32.15 31.82 33.20 34.56 32.81 32.07 30.94 29.84 28.23 27.38 28.76 27.15 24.95 25.84 26.16 25.32 23.26 26.62 26.73 20.27 20.36 21.90 21.61 21.87 23.19 24.76 25.28 25.65 25.51 23.73 23.96 25.35 24.39 24.84 25.57 27.16 28.44 28.40 28.05 27.93 27.09 25.24 23.49
31.96 32.29 32.57 33.52 32.70 31.55 29.02 30.52 29.84 28.94 26.08 19.54 16.78 18.89 21.56 23.00 25.43 25.25 26.39 26.09 25.64 18.83 20.92 22.08 22.28 24.26 24.09 24.13 23.50 24.73 24.77 23.60 23.24 23.18 22.79 23.68 24.76 26.20 28.00 29.48 29.59 28.29 28.33
31.57 31.59 31.78 33.11 31.10 29.47 28.81 26.51 26.61 26.32 23.55 21.35 18.07 15.92 17.19 22.36 21.86 24.74 25.56 26.01 24.77 18.94 21.78 21.27 22.11 22.06 21.80 21.89 22.14 22.79 22.12 21.26 20.85 20.18 20.35 21.43 23.47 25.95 27.75 28.21 29.61 31.52 30.74
30.92 30.11 29.76 32.50 29.14 30.52 29.82 29.29 26.17 21.97 19.06 21.58 18.45 15.73 13.33 18.75 19.50 19.51 21.01 21.38 21.20 20.67 18.27 17.18 16.16 19.55 17.01 18.98 19.60 20.08 20.63 19.97 19.13 18.74 19.54 20.86 22.89 23.83 24.85 27.30 26.79 27.57 26.89
30.30 30.99 29.42 29.19 27.04 28.00 27.93 25.59 27.19 25.61 23.63 20.36 19.99 17.24 9.17 11.56 17.13 20.99 24.12 19.02 13.22 17.81 10.41 9.74 12.12 11.94 13.68 15.90 16.70 17.22 18.02 17.30 15.97 17.15 18.03 18.42 19.42 21.10 22.92 25.59 25.60 24.67 23.65
29.45 29.32 29.09 27.08 25.27 24.39 23.30 25.22 29.34 28.52 28.18 30.05 30.16 22.75 16.76 23.40 25.76 27.08 25.92 24.34 22.65 20.68 11.82 5.54 0.50 -0.22 5.90 12.69 14.12 14.36 15.10 13.39 13.88 14.83 16.03 16.15 16.40 17.74 20.06 22.69 23.01 22.06 21.95
29.72 29.28 27.73 27.58 24.85 22.72 21.77 22.98 20.94 25.77 28.45 29.30 29.18 29.39 29.12 26.99 27.31 26.54 25.15 23.52 21.22 17.14 7.54 5.02 -2.40 -2.58 2.31 11.11 13.56 13.54 12.63 12.08 12.82 12.16 12.88 13.20 14.05 16.05 18.20 19.49 19.67 19.98 20.16
30.09 27.73 26.33 26.07 24.97 23.17 18.68 19.71 21.51 19.51 16.28 21.15 24.15 25.55 27.66 28.58 27.58 25.98 24.82 20.69 11.97 11.46 9.62 6.09 2.44 2.49 6.46 10.84 12.29 11.88 11.63 10.05 9.32 9.64 10.07 9.64 10.39 13.23 15.40 16.50 16.93 15.14 16.67
29.48 28.18 25.03 22.28 18.59 20.82 19.26 20.79 19.16 18.75 19.53 21.37 16.02 17.63 17.47 25.74 27.39 25.49 22.86 10.65 8.52 8.01 8.86 9.45 5.69 6.52 7.56 8.05 2.47 2.67 3.11 7.39 7.21 6.12 7.12 7.95 7.13 10.14 12.82 14.26 15.05 13.45 12.53
29.29 27.85 26.98 23.56 21.28 19.54 22.48 17.68 18.61 19.01 20.38 21.96 15.42 14.53 11.57 14.90 10.61 3.59 0.28 -0.41 0.32 7.20 6.06 8.59 9.38 8.05 4.87 4.44 -0.77 -3.85 0.80 3.38 6.88 7.37 6.86 6.55 6.56 7.87 10.80 11.46 12.18 12.01 13.54
28.60 27.41 23.21 20.62 19.44 20.00 18.42 18.59 18.22 15.39 17.19 18.74 15.78 14.56 15.34 18.47 21.78 11.85 7.99 3.72 7.53 8.01 5.75 7.21 5.66 2.85 2.66 1.47 6.45 1.68 0.89 -3.14 3.94 6.30 6.70 7.92 6.37 6.91 9.83 10.33 11.18 12.26 12.56
26.50 24.58 21.56 19.53 18.70 15.57 17.83 18.62 15.91 15.56 15.41 14.76 16.05 13.96 15.35 11.40 11.96 12.87 10.89 10.78 9.80 9.28 8.91 6.54 6.99 6.94 6.47 7.46 5.56 -2.76 -1.56 -3.00 -1.59 3.44 4.99 6.58 7.89 9.15 8.56 8.53 8.72 8.83 9.72
22.67 22.00 22.36 23.81 22.56 20.32 18.15 17.70 16.41 14.92 14.42 14.80 15.34 15.47 13.06 15.81 14.19 14.78 13.51 11.99 10.06 7.06 5.73 5.02 2.13 3.52 3.00 0.53 0.19 4.19 2.67 3.08 2.92 1.14 3.59 5.53 7.24 8.45 7.47 7.95 8.61 8.67 6.94
27.53 25.76 24.91 24.28 22.83 20.72 21.56 21.36 20.21 19.89 18.07 14.73 14.91 15.20 15.94 16.66 14.79 15.26 13.66 11.83 11.04 4.43 -1.16 2.90 4.61 5.95 4.70 -1.02 -1.05 1.28 5.37 1.60 2.59 4.17 3.24 5.61 6.86 7.84 7.65 8.07 8.30 7.67 6.98
28.37 28.03 26.53 25.72 25.36 23.94 23.17 22.94 22.96 21.39 19.59 18.32 18.43 19.40 18.69 17.19 17.62 16.96 14.58 13.83 11.78 7.16 5.31 2.67 2.93 5.07 5.11 4.06 2.16 3.41 0.48 1.79 -0.51 0.19 3.37 6.03 7.29 5.38 6.08 7.23 6.04 7.83 5.73
29.20 28.48 27.58 27.28 26.54 25.22 24.33 23.97 23.20 22.79 22.12 21.38 19.85 20.05 19.47 18.69 18.72 18.94 18.62 15.78 13.39 11.20 9.70 6.89 5.18 4.36 4.31 3.73 3.64 3.02 -0.86 -0.84 -1.67 -1.11 1.28 6.37 6.59 6.64 6.21 5.91 5.47 6.21 5.77

GFSGL_sfc_wetblb_045.txt.gz
Wetbulb
43.86 43.86 44.18 44.22 44.16 44.41 44.03 44.28 44.40 44.36 44.78 44.45 44.45 43.62 42.92 43.02 43.42 42.02 40.70 39.81 37.27 36.72 36.70 35.38 35.13 35.60 34.66 34.38 33.97 33.22 31.98 31.58 28.16 30.81 33.52 34.97 34.85 35.12 36.13 37.70 38.65 38.87 39.18
43.36 43.60 43.37 43.25 43.28 42.86 42.64 43.02 43.61 43.39 44.31 44.20 43.80 42.24 42.14 41.92 41.50 39.16 38.08 37.00 35.49 34.17 34.42 34.37 33.86 33.52 33.02 32.88 32.21 31.25 30.84 31.25 29.06 27.04 30.68 31.79 32.98 34.36 34.88 35.29 36.09 37.46 37.77
42.07 41.95 42.41 42.31 42.02 41.72 41.69 42.14 42.32 41.97 42.06 42.34 41.65 41.27 40.69 39.74 37.48 36.44 35.77 34.42 34.08 33.58 33.53 32.85 32.59 32.35 31.54 31.82 31.33 30.61 30.71 30.57 30.10 27.62 28.00 30.75 30.92 31.63 31.70 33.57 34.82 35.95 36.50
41.03 40.73 41.29 41.29 41.04 41.10 41.25 41.22 41.02 41.22 40.92 40.82 40.38 40.05 39.68 37.27 35.33 34.30 34.47 33.94 33.18 32.98 33.16 32.85 32.46 31.79 31.24 30.80 29.92 29.31 29.15 27.79 27.61 26.79 27.23 27.86 28.89 30.83 30.29 29.11 29.42 32.93 33.78
39.42 39.32 40.69 41.22 41.09 40.72 40.64 40.61 40.62 40.30 40.13 39.93 39.11 37.33 35.78 35.46 35.04 34.83 33.80 33.43 33.18 32.72 32.65 31.89 31.63 30.96 29.85 29.30 28.77 28.37 28.20 26.40 25.66 25.14 24.93 25.87 26.07 26.82 26.36 28.70 27.68 29.17 31.85
38.36 38.98 40.57 40.81 40.11 39.92 39.94 39.76 39.67 39.16 38.48 37.82 36.73 35.73 35.71 35.57 32.87 32.98 33.09 33.22 31.90 30.16 28.72 28.95 28.99 27.90 28.01 27.17 26.65 26.86 26.95 24.89 24.34 24.65 24.93 24.64 25.68 26.46 27.45 27.04 26.93 26.41 25.74
37.67 38.62 38.94 39.52 38.58 38.66 38.90 38.87 38.63 38.45 37.76 36.80 35.99 35.50 34.37 33.98 32.11 32.09 29.87 31.22 29.37 28.49 27.55 27.05 26.89 27.24 26.88 26.96 26.46 26.62 27.26 27.68 27.31 27.79 26.16 26.45 25.72 27.52 27.87 27.73 27.45 27.10 26.77
36.50 36.50 37.28 37.65 37.07 38.04 38.02 37.90 38.10 38.37 38.11 36.90 36.62 33.98 32.94 32.38 30.52 30.18 28.32 29.77 28.73 27.72 27.26 26.98 26.39 26.32 26.65 25.57 26.78 27.95 26.98 27.79 28.13 28.02 28.93 29.28 29.59 29.89 29.46 29.04 28.86 28.92 29.39
34.45 34.99 35.62 36.64 37.00 36.95 36.33 36.45 37.03 36.01 35.36 34.72 33.87 32.37 31.59 31.20 28.68 28.68 28.28 28.97 27.50 26.78 26.91 27.09 26.46 25.80 25.61 26.78 26.35 25.23 25.14 25.94 28.27 28.51 28.68 29.23 30.18 30.53 31.35 30.52 28.63 26.68 25.82
34.42 35.18 36.16 37.12 36.88 35.75 35.86 35.37 35.89 34.59 33.12 33.38 31.54 31.69 30.07 30.17 27.26 27.80 28.27 28.60 26.62 26.47 26.92 26.62 25.24 25.05 25.10 25.71 25.53 25.04 22.86 24.44 25.28 26.01 27.31 28.53 29.62 31.19 29.98 30.53 29.61 26.25 25.84
35.04 35.60 36.33 36.87 36.24 36.37 35.33 34.99 34.54 33.01 32.75 32.25 31.15 30.75 30.35 29.52 28.82 26.93 27.15 28.37 26.94 25.72 25.19 24.90 25.50 24.06 24.80 24.63 24.66 24.64 24.29 24.82 24.57 25.15 25.79 27.02 28.14 29.32 30.58 31.78 31.60 29.83 26.69
34.98 34.32 33.74 33.53 32.81 34.18 34.14 33.17 32.43 32.56 31.76 29.18 28.97 29.82 30.63 29.85 27.24 27.25 26.80 26.73 26.88 26.01 24.25 24.79 24.46 23.41 23.10 22.90 23.21 23.31 23.44 23.50 23.94 23.64 23.69 24.41 25.20 26.40 28.39 29.63 30.95 32.57 31.77
33.70 32.26 33.20 33.28 33.77 33.96 32.37 32.51 32.03 31.52 30.69 30.34 29.13 28.66 29.08 29.70 29.61 26.50 26.52 26.04 26.31 25.12 25.37 23.42 21.92 21.55 21.33 22.15 21.37 21.45 21.89 22.34 21.39 21.40 21.51 22.90 24.40 26.32 27.93 29.51 31.45 33.08 33.08
30.96 32.22 33.37 32.69 32.43 32.58 32.37 31.97 31.14 30.65 29.47 28.43 28.09 28.16 28.68 28.50 28.88 29.36 27.79 28.26 25.71 24.27 23.22 22.80 20.27 20.15 19.44 20.19 21.47 21.72 21.80 20.22 19.16 20.03 20.98 22.73 24.66 25.65 26.54 28.80 28.93 30.05 30.09
30.33 29.77 30.34 31.26 31.64 31.51 31.52 31.20 30.30 31.03 30.49 29.02 28.96 29.23 28.41 27.98 28.75 27.90 27.13 27.50 26.69 24.16 21.25 21.48 20.43 19.56 19.21 19.69 20.52 19.84 19.83 18.25 17.81 19.51 20.37 21.09 22.06 23.22 24.96 27.10 27.23 28.10 27.90
29.58 29.75 30.37 30.28 31.40 30.94 30.36 29.98 30.33 30.31 29.16 29.83 30.02 30.27 30.79 28.37 27.08 27.33 27.60 26.31 24.00 21.58 21.46 19.78 18.21 17.63 17.51 17.61 18.20 18.10 18.46 16.06 16.73 18.17 18.93 19.79 20.01 21.40 22.62 25.00 25.73 25.81 25.63
30.13 30.55 30.61 29.01 30.76 30.17 29.99 28.35 27.55 29.36 29.25 29.41 29.58 30.12 29.72 29.68 28.48 28.43 27.63 25.97 23.33 20.59 21.08 20.36 18.89 17.67 17.38 17.53 17.59 17.74 16.55 16.37 15.31 16.92 17.55 17.52 18.68 20.49 21.69 22.41 23.42 23.95 24.17
31.27 30.28 30.37 31.02 30.97 30.33 29.17 29.25 28.40 27.23 26.49 27.39 29.34 28.05 28.67 28.56 29.21 28.69 27.25 25.24 23.56 21.75 21.31 20.50 19.63 19.18 17.94 17.70 17.26 16.88 16.31 16.13 15.12 14.83 16.10 16.76 16.74 18.50 19.80 20.25 21.11 20.78 21.85
31.30 31.01 31.05 30.85 30.86 29.03 29.79 29.07 28.19 27.59 26.76 27.07 28.15 27.20 26.34 25.32 27.63 28.67 27.36 26.16 24.68 23.69 22.70 21.24 21.06 19.84 19.09 18.32 17.79 16.73 15.83 15.54 13.81 13.64 15.19 15.23 15.80 16.59 17.96 19.07 19.84 18.15 18.45
30.92 30.62 30.53 29.83 29.49 29.21 28.99 28.16 27.48 27.22 27.04 26.91 26.92 27.53 28.15 24.05 27.02 27.28 26.57 25.45 24.37 24.06 24.02 22.37 21.68 20.80 19.99 18.79 18.11 17.00 16.96 16.49 14.96 14.67 14.40 15.20 15.53 16.04 16.58 16.96 18.25 18.49 18.88
31.00 31.11 30.14 29.57 29.08 28.57 28.41 27.54 27.54 27.58 26.93 26.65 27.23 28.71 24.90 25.73 27.27 27.90 27.34 25.82 24.35 25.10 24.69 23.80 22.88 21.40 20.53 19.29 17.88 17.74 16.49 16.49 14.54 13.69 14.69 14.86 14.42 14.59 15.95 16.90 17.06 17.16 17.45
31.57 30.81 30.68 29.69 29.76 28.82 28.26 27.61 27.59 27.44 26.93 26.12 27.08 28.16 21.52 24.71 26.54 26.45 26.75 26.68 26.46 25.66 25.86 24.89 23.45 22.39 21.37 20.10 19.22 18.10 16.24 15.50 15.13 14.29 14.50 13.78 14.15 14.96 14.75 15.18 15.89 16.04 16.39
30.31 28.96 27.98 27.88 28.54 28.42 28.39 27.98 27.91 27.40 27.27 26.91 26.77 26.60 27.34 26.83 26.96 27.00 26.81 27.49 26.87 25.18 24.56 23.35 22.96 21.71 21.13 18.97 19.10 18.44 16.69 16.93 15.68 13.97 13.26 14.34 14.86 14.45 14.98 14.87 14.80 14.63 14.06
29.78 29.01 29.23 29.59 29.16 28.89 28.70 28.59 29.04 27.41 27.50 28.15 27.83 27.38 26.65 26.78 27.16 27.10 26.34 27.12 26.33 25.89 24.36 20.99 20.86 20.74 20.82 19.29 18.90 18.06 17.47 16.63 15.70 14.23 11.62 13.56 14.50 14.27 14.71 13.98 14.44 13.57 13.33
30.74 30.36 30.13 30.41 30.33 29.78 29.21 28.55 28.37 28.64 28.75 28.64 27.83 27.54 27.13 27.31 27.46 27.96 28.18 27.24 25.22 24.89 23.01 19.27 19.51 19.63 18.39 16.80 17.44 16.39 15.28 12.33 11.03 9.34 13.72 13.51 13.61 12.30 13.40 14.01 12.75 14.02 12.24
29.95 30.05 30.06 30.60 30.41 30.66 30.13 29.50 29.10 28.88 28.42 28.53 28.27 27.98 28.28 27.68 27.40 28.07 27.77 26.70 25.29 23.87 23.34 21.80 19.37 17.94 18.27 18.23 16.79 14.74 10.61 9.60 10.17 7.28 12.36 14.48 14.54 14.69 14.74 13.35 10.73 12.85 11.24

GFSGL_sfc_wetblb_048.txt.gz
Wetbulb
45.56 46.33 49.00 48.64 47.19 47.08 46.53 45.89 45.63 45.70 45.17 44.64 44.71 45.22 45.42 45.37 45.49 44.93 44.33 43.09 41.09 41.29 40.84 39.54 38.55 39.08 38.17 38.02 37.86 37.09 35.58 35.12 31.60 33.91 35.95 37.20 36.87 37.09 37.59 38.12 38.95 39.16 39.71
47.11 47.46 46.34 45.99 45.69 45.13 44.65 44.89 45.20 44.25 44.60 44.04 44.39 44.35 44.29 44.39 44.40 42.63 41.42 40.67 39.02 38.74 38.78 38.22 37.49 37.37 37.04 37.13 36.54 35.52 35.06 35.22 32.95 30.50 33.85 34.23 34.30 35.95 36.09 35.58 35.83 37.30 37.99
45.94 45.20 44.93 44.66 44.24 43.99 44.08 44.29 44.14 43.86 43.71 43.77 43.88 43.22 43.07 42.81 41.96 40.99 39.42 38.37 37.81 38.13 37.98 37.23 36.87 36.35 35.49 35.85 35.49 34.33 34.17 33.77 33.05 30.41 30.48 32.45 32.86 34.03 33.60 34.18 34.02 35.29 36.80
44.48 43.79 43.23 43.70 43.92 43.89 43.67 43.55 43.40 43.53 43.05 43.07 43.11 42.03 40.23 39.32 38.57 37.34 37.94 37.90 37.90 37.48 37.57 37.17 36.25 35.29 34.69 34.12 32.90 32.73 32.69 31.94 30.98 28.91 28.97 28.50 30.68 31.72 31.79 30.92 31.34 33.95 34.02
42.74 42.30 42.50 43.75 43.93 43.48 43.04 42.99 43.11 43.07 42.61 42.33 40.99 40.15 39.95 39.22 38.69 37.96 38.06 37.60 37.31 36.80 36.64 35.35 34.86 32.89 29.94 29.65 29.74 30.49 30.26 28.95 27.70 26.76 26.28 27.07 28.08 29.24 29.02 31.37 30.47 31.61 33.16
41.75 41.34 42.05 42.35 42.61 42.80 42.28 42.11 42.33 42.21 42.04 41.52 40.56 39.89 39.13 38.78 32.55 32.85 33.03 36.93 36.19 34.85 33.40 33.62 33.53 31.62 31.05 28.37 28.29 27.56 27.87 26.77 25.63 25.25 25.96 25.63 28.23 28.63 29.59 29.54 30.14 29.08 27.77
40.44 39.98 40.11 40.63 40.92 41.55 41.40 41.58 41.26 41.11 40.51 39.38 38.84 39.02 38.01 38.37 32.51 32.08 30.12 34.91 34.36 33.57 32.71 32.15 31.33 31.44 30.69 30.91 28.84 27.65 28.37 28.91 28.26 29.52 27.20 27.39 28.11 29.82 29.97 29.23 28.91 28.66 28.92
38.98 38.88 39.38 39.66 39.62 40.57 40.94 40.73 40.51 39.51 38.91 36.99 36.82 37.80 38.05 36.51 31.29 30.56 29.19 34.13 33.73 33.02 32.36 31.56 31.01 30.49 30.30 27.63 26.60 27.62 28.02 28.92 28.79 28.67 29.31 29.42 29.77 30.36 30.43 30.23 30.80 30.74 31.63
37.72 38.35 38.68 39.24 39.32 40.11 39.69 39.94 39.89 37.25 37.93 37.34 36.20 36.92 36.20 35.54 29.81 29.73 29.17 33.22 32.31 31.34 31.70 31.69 30.22 29.29 27.23 26.02 26.13 25.73 26.44 27.49 29.18 28.84 28.66 28.85 29.14 29.58 30.69 32.06 29.15 28.10 27.87
37.58 37.84 38.74 39.28 39.42 38.86 39.13 39.11 38.72 37.53 36.48 37.43 36.56 36.70 33.21 34.78 29.17 28.60 29.23 32.33 29.96 30.06 31.01 30.91 28.91 26.82 24.68 25.00 25.20 25.16 23.76 25.65 26.06 26.30 27.42 28.86 29.75 31.25 30.37 32.55 31.36 28.33 27.78
38.29 38.39 38.57 38.70 37.81 37.17 35.81 37.40 37.65 36.65 34.73 34.58 33.97 34.74 34.71 34.13 33.21 28.10 28.08 30.54 29.47 28.41 28.79 29.24 29.52 25.54 24.17 24.21 24.09 24.70 24.46 25.08 24.72 25.79 26.23 26.96 28.51 30.10 30.85 31.58 32.13 31.45 29.65
38.19 37.79 37.52 37.82 37.24 36.90 35.83 37.33 36.63 35.62 33.07 32.87 33.09 33.06 33.93 33.84 30.92 29.86 28.30 27.84 28.07 28.40 27.91 29.02 28.25 24.22 23.33 23.08 23.80 22.56 22.64 23.77 26.22 24.62 24.65 24.80 26.47 27.11 28.24 30.04 31.24 32.49 33.36
36.87 36.32 36.86 37.48 36.99 36.95 35.46 34.93 32.63 33.17 32.32 32.73 32.10 31.31 31.49 32.39 32.88 29.54 28.29 27.57 26.90 28.31 28.77 26.56 23.99 22.90 22.80 23.81 23.21 22.10 22.83 25.00 23.44 23.06 22.90 23.82 25.43 27.40 29.10 30.90 32.46 33.89 34.47
35.73 34.50 32.57 32.34 35.13 35.66 35.10 33.82 32.43 31.72 31.10 29.88 29.62 29.48 30.19 30.11 31.38 31.38 30.48 30.28 28.04 27.54 28.24 27.71 25.19 22.42 23.20 23.61 25.17 25.23 25.15 23.73 21.84 22.46 22.36 24.55 26.68 27.31 28.10 29.90 29.32 30.51 31.23
35.10 34.01 32.58 32.12 31.96 32.62 33.31 33.54 33.13 33.89 32.65 31.15 30.02 30.30 29.67 29.15 29.97 29.86 29.35 29.98 29.74 27.92 25.07 26.95 26.42 25.38 24.02 24.65 24.77 24.54 24.49 23.33 22.02 22.58 22.56 23.04 23.89 24.81 26.15 28.56 28.51 28.89 29.50
34.09 33.61 32.30 31.79 31.58 31.43 31.10 31.46 31.88 30.82 30.39 30.54 30.33 30.34 32.44 31.31 30.11 28.57 28.23 28.25 27.27 24.97 25.23 25.92 25.72 25.21 23.36 23.09 22.98 23.40 23.80 21.82 20.99 20.83 22.01 22.28 22.00 22.81 23.60 26.35 27.31 27.10 27.20
33.57 33.16 32.59 31.59 31.13 30.28 30.37 30.11 29.51 32.05 30.52 30.15 30.31 30.35 30.27 30.67 30.21 29.73 29.31 28.58 27.03 24.30 24.78 25.84 26.18 25.34 24.49 23.44 23.16 22.67 22.07 22.24 20.40 20.51 20.73 21.57 21.81 21.87 23.24 23.93 24.60 24.71 25.15
34.01 31.54 32.50 32.45 32.17 31.53 30.96 30.34 29.87 28.83 28.31 30.17 30.69 30.10 30.08 29.85 29.45 29.45 29.38 28.24 26.28 24.99 25.28 25.48 25.44 25.71 24.75 23.56 23.27 22.45 22.11 22.00 21.63 20.34 20.26 20.40 20.85 21.35 21.99 22.03 22.94 22.34 22.78
33.85 34.13 33.35 33.26 33.36 32.22 31.78 30.67 30.17 29.25 28.76 29.29 30.22 29.85 30.50 28.81 28.88 28.71 29.23 28.78 26.53 26.48 26.85 26.34 26.61 26.17 25.37 24.63 23.97 22.79 21.81 21.81 19.87 19.77 20.53 19.56 20.09 20.25 20.92 21.84 22.34 21.65 21.87
34.02 32.07 31.67 32.56 32.83 31.83 31.66 30.52 29.77 29.99 29.50 29.16 28.65 29.15 30.38 28.62 29.12 29.40 30.01 29.13 28.37 27.70 27.77 27.00 26.96 26.97 26.43 25.23 24.26 23.37 22.41 22.47 21.56 20.86 20.35 20.78 20.50 20.05 19.79 20.27 21.15 21.08 21.83
34.78 33.79 32.09 33.21 32.78 32.43 31.80 30.80 30.48 30.33 29.58 29.58 29.85 32.14 29.51 29.28 28.75 29.14 29.70 30.93 28.99 28.32 28.83 28.02 27.76 26.99 26.87 25.96 24.12 23.32 22.04 22.06 21.24 20.09 20.18 20.57 19.72 19.19 19.57 20.27 20.56 20.67 21.07
32.33 32.24 32.33 32.04 32.01 31.92 31.80 32.04 31.62 30.59 30.12 29.81 30.83 31.31 29.31 30.03 29.51 29.80 30.44 31.46 31.58 31.16 30.39 29.65 28.40 27.80 27.08 26.29 24.88 23.93 21.99 21.02 21.21 20.76 20.08 19.03 19.75 20.40 20.18 19.81 19.49 19.68 20.06
31.30 30.65 29.93 29.92 30.08 29.71 30.45 30.72 31.00 31.99 31.86 31.90 31.60 31.11 31.63 31.47 31.11 30.68 31.40 32.19 31.89 31.31 30.78 29.63 28.67 27.99 27.81 26.69 25.72 24.34 22.33 21.78 22.15 20.51 18.35 19.18 19.60 20.19 19.94 19.81 18.92 18.13 17.70
31.79 32.58 30.75 31.07 31.83 31.49 32.25 31.64 31.90 31.00 31.95 31.82 31.46 31.64 31.76 31.96 31.28 31.25 31.67 32.00 32.19 31.46 31.03 29.97 28.70 28.02 27.45 26.48 25.81 24.61 23.02 22.37 21.88 19.89 16.71 18.13 18.88 19.27 19.12 19.14 18.89 17.28 17.40
32.69 32.16 31.87 31.88 31.62 31.63 31.46 31.78 31.82 31.64 31.46 31.28 31.28 31.46 32.25 31.82 32.00 31.46 31.46 31.82 31.41 31.16 29.83 29.68 28.42 27.89 26.12 24.91 24.65 23.63 22.34 18.17 18.25 15.20 18.47 17.87 17.63 16.52 17.26 18.39 17.29 18.11 16.00
29.82 29.04 29.15 29.95 31.14 31.05 31.01 30.92 31.28 31.45 31.24 31.43 31.64 31.64 31.64 31.46 31.69 31.46 31.64 31.42 31.16 30.30 29.92 29.62 28.00 26.90 25.84 24.73 23.55 21.92 18.94 15.75 15.18 11.56 16.97 18.74 18.36 18.79 18.82 17.64 13.39 17.50 15.31

GFSGL_sfc_wetblb_051.txt.gz
Wetbulb
48.49 48.56 48.67 49.82 48.93 48.48 47.71 47.12 46.31 46.32 45.72 44.98 44.72 44.67 44.76 44.66 44.97 44.57 44.39 43.52 42.14 42.12 42.36 41.05 40.14 40.34 38.47 38.47 38.42 38.34 36.88 36.56 32.55 34.85 37.29 38.66 38.16 38.17 38.30 39.17 39.45 39.18 39.40
47.89 48.47 47.86 47.62 47.60 46.85 45.88 45.77 46.12 45.23 45.44 44.76 44.46 44.25 44.04 43.78 43.94 42.85 42.09 42.36 40.70 39.00 39.49 39.52 38.17 38.14 37.83 37.74 37.81 36.25 36.30 36.37 34.22 31.66 34.61 35.33 34.60 36.63 36.54 36.25 36.26 36.58 37.30
48.43 46.55 46.69 46.18 45.59 45.31 45.21 45.40 45.26 44.91 44.62 44.37 44.20 43.59 43.39 43.33 42.67 41.94 41.09 40.46 39.73 39.19 38.61 37.96 37.28 37.01 35.82 36.04 35.90 35.35 35.18 34.48 34.52 33.06 32.31 33.75 33.67 34.86 33.66 34.64 34.64 35.34 36.07
45.88 45.35 44.59 44.61 45.02 45.14 44.99 44.57 44.58 44.58 43.90 43.66 43.66 43.19 41.36 40.28 40.95 40.21 39.09 38.14 37.99 38.06 38.33 38.12 37.26 36.05 34.78 33.59 32.20 31.86 31.95 31.34 31.64 31.24 30.77 30.07 30.71 32.06 32.81 31.23 31.06 33.69 33.47
44.68 43.81 43.69 44.59 44.69 44.42 44.24 44.31 44.24 44.02 43.60 43.61 42.98 41.73 40.64 39.83 39.29 38.81 38.95 38.40 37.59 37.37 37.55 36.81 36.38 34.01 31.77 31.01 30.01 30.11 29.74 28.62 27.96 27.19 26.57 27.29 27.74 28.57 28.79 30.97 29.41 30.71 32.70
43.18 42.48 42.95 42.78 42.47 42.75 43.24 43.44 43.42 43.11 43.08 42.95 41.33 40.18 39.66 39.16 33.21 33.68 33.24 36.80 36.64 35.98 34.84 35.08 35.20 34.47 33.45 31.44 30.99 30.23 28.56 26.91 25.81 26.63 26.39 25.91 27.25 28.63 30.65 30.02 29.92 28.45 27.19
41.90 41.63 41.32 41.25 40.98 41.47 42.06 42.32 42.25 42.25 42.34 41.06 39.71 39.35 38.85 39.82 33.88 33.13 31.20 34.71 35.25 35.36 34.62 33.88 33.29 33.54 32.52 31.93 30.36 29.55 29.22 29.76 28.93 29.15 27.30 27.08 27.23 29.61 28.94 28.18 28.22 28.42 28.29
40.71 40.22 40.45 40.79 40.46 41.21 41.43 41.61 41.93 42.04 40.95 39.46 38.92 39.29 37.26 38.03 33.17 31.89 30.54 33.71 35.13 34.93 34.37 33.70 32.90 32.35 30.97 28.00 27.64 26.95 27.33 27.91 29.33 29.57 29.06 28.83 28.96 29.43 29.12 28.83 29.57 30.04 31.12
39.43 39.45 39.97 40.43 40.02 40.62 40.59 41.03 41.17 40.64 39.79 38.02 38.18 38.29 37.81 36.75 31.64 31.06 30.23 33.52 33.57 32.75 32.90 33.40 32.58 31.02 27.98 26.63 25.41 24.90 25.42 26.86 29.54 29.51 29.09 28.93 29.16 29.54 30.03 30.31 28.51 28.44 28.18
39.16 39.36 40.19 40.41 40.18 39.99 39.92 38.96 39.62 39.94 38.96 37.65 36.59 37.12 33.60 36.09 31.20 30.63 30.21 32.74 33.03 30.00 31.93 32.10 29.42 27.67 25.22 24.96 24.44 24.40 23.23 24.90 25.09 25.50 26.85 28.41 29.55 30.27 30.61 30.86 30.78 28.38 28.22
39.56 39.91 40.10 40.41 40.04 39.89 39.21 38.62 38.07 38.47 37.35 35.95 35.06 35.44 35.88 35.75 34.64 30.66 29.50 30.48 30.44 29.81 29.51 30.07 31.09 26.61 25.53 24.40 24.30 24.57 24.65 24.04 24.14 25.46 26.63 27.26 28.61 29.45 30.27 31.43 31.73 30.88 28.58
39.48 39.26 39.12 39.69 39.43 39.10 38.76 38.38 38.14 36.81 34.77 34.94 33.79 33.22 34.78 35.24 33.05 31.59 30.14 29.04 29.49 29.13 28.29 29.79 30.48 26.60 25.17 24.00 24.35 24.97 23.93 23.94 26.34 25.24 25.21 25.18 25.88 27.03 28.48 30.35 31.39 32.57 33.41
38.55 38.42 38.31 37.97 37.55 38.09 38.17 37.24 35.84 33.41 32.92 32.90 33.44 33.12 33.24 34.23 34.68 31.58 30.57 29.53 28.55 28.19 29.78 29.13 26.79 26.38 25.75 25.45 25.88 24.48 24.06 26.16 24.40 22.95 23.40 23.79 25.67 27.65 29.15 30.73 32.34 32.93 33.51
37.70 37.88 37.82 36.23 35.01 35.13 36.44 35.99 34.54 33.56 32.86 32.12 32.03 32.06 32.31 32.04 32.57 33.61 32.24 31.18 29.01 28.69 29.29 30.12 28.17 26.51 26.05 25.36 26.17 27.58 27.21 26.52 23.84 23.11 23.25 24.70 26.41 26.79 26.84 28.73 28.79 29.71 30.12
37.52 37.37 36.74 36.35 33.83 32.83 32.84 33.81 34.21 35.53 34.06 32.83 32.47 32.07 32.41 30.96 31.93 31.22 30.25 30.51 31.42 29.98 27.11 28.15 27.97 28.17 26.73 26.84 26.93 26.52 26.86 26.19 24.26 23.55 23.04 23.38 23.61 24.29 24.98 27.68 27.60 28.18 27.61
36.23 36.15 36.46 35.11 33.53 32.20 31.79 32.26 33.46 32.34 31.87 30.96 30.33 30.72 32.44 31.50 31.26 30.86 29.80 29.17 28.68 28.34 26.76 26.14 26.94 28.09 26.44 25.72 25.51 25.28 25.83 24.92 24.36 22.69 22.68 22.72 22.45 22.51 23.09 25.43 26.38 25.85 25.51
35.89 35.33 35.31 33.40 32.90 32.30 31.84 31.44 30.43 33.39 32.23 31.40 30.83 30.80 30.99 30.99 30.86 30.92 30.83 30.00 29.30 28.10 24.74 26.04 27.13 27.29 27.20 25.93 25.93 25.40 24.35 24.75 23.44 23.81 22.50 22.44 21.85 21.89 23.37 23.63 24.53 24.64 23.89
36.80 32.91 34.62 34.58 33.52 33.35 32.79 32.63 32.38 31.04 30.08 31.32 32.26 31.29 31.04 30.81 30.60 30.32 30.19 29.70 27.72 27.91 26.89 26.63 26.75 27.26 27.23 26.20 26.29 25.44 24.78 24.76 24.05 22.97 22.54 22.57 21.57 20.96 21.46 22.33 22.83 22.68 22.85
36.58 36.53 36.25 35.25 34.43 33.95 33.73 32.94 31.91 31.36 30.91 31.01 31.34 31.65 31.71 30.64 30.33 30.17 29.90 28.96 28.07 28.02 28.11 28.51 29.34 28.35 27.63 27.40 27.16 25.91 24.85 23.72 23.34 22.46 22.65 22.24 22.22 21.02 20.44 21.54 21.82 22.01 22.27
36.99 33.41 33.08 34.99 34.58 34.24 33.66 33.23 32.48 32.16 31.76 31.34 31.72 31.21 32.06 31.01 30.54 30.35 31.00 30.69 30.20 29.51 29.88 28.97 29.27 29.22 28.57 28.15 27.35 26.19 24.81 24.11 24.02 23.47 22.81 22.77 22.84 21.57 20.68 19.93 20.96 20.57 21.38
36.88 36.42 32.58 33.45 34.51 33.66 33.49 33.13 33.06 33.05 32.11 32.24 32.72 33.35 31.34 30.65 30.73 31.40 31.31 31.98 31.54 30.86 30.92 30.69 30.93 30.43 29.44 28.32 27.00 25.79 24.41 24.33 23.90 22.91 22.31 22.56 21.62 20.48 21.78 21.65 20.75 21.04 21.25
35.91 33.97 32.55 31.55 31.41 31.41 31.92 32.42 32.33 32.01 32.04 32.42 32.90 33.31 31.21 31.89 31.37 30.93 30.94 31.21 31.95 32.41 32.64 31.96 31.11 30.71 30.09 28.45 27.46 26.60 24.78 23.96 23.60 23.18 22.65 20.90 21.18 22.17 21.68 21.76 21.22 20.11 20.20
35.48 33.59 31.86 31.18 31.89 31.42 32.30 32.08 32.36 32.42 32.53 32.54 32.85 32.52 32.86 32.34 32.31 32.01 31.74 32.08 32.55 32.33 33.16 32.53 32.20 30.96 31.35 30.34 29.05 27.19 25.46 24.51 24.46 23.92 21.20 20.48 20.94 21.81 20.87 21.34 20.42 19.70 18.46
33.41 33.33 31.61 32.01 32.71 32.17 32.45 32.34 32.41 31.59 32.23 32.61 31.97 32.15 32.15 32.34 32.15 32.34 32.15 32.34 32.52 32.14 32.82 32.25 31.47 30.52 30.26 30.13 28.46 27.23 26.21 25.63 25.00 22.77 19.46 19.53 20.03 20.80 20.27 20.28 20.50 19.22 18.68
33.79 32.15 31.78 31.59 31.67 31.58 31.60 31.81 31.73 31.79 31.97 32.15 31.97 32.32 32.64 32.52 32.80 32.32 32.52 32.70 32.52 31.97 31.97 31.84 31.68 30.91 29.96 29.14 27.79 26.63 26.23 24.00 22.82 21.86 20.80 19.35 19.21 18.48 18.09 18.82 18.87 19.02 18.29
32.17 31.16 29.78 28.29 27.70 28.15 26.92 26.98 27.42 28.67 29.02 30.32 30.74 31.40 31.90 32.00 32.33 32.52 32.68 32.61 32.32 32.15 31.96 31.76 31.47 30.49 29.81 29.08 28.41 26.91 25.05 20.99 18.85 17.30 19.09 20.15 19.69 19.87 20.18 19.33 17.98 17.94 17.64

GFSGL_sfc_wetblb_054.txt.gz
Wetbulb
48.81 48.60 48.44 48.84 48.63 47.31 46.12 45.33 44.34 44.18 43.61 43.13 42.98 42.46 42.23 41.88 41.79 40.95 40.91 40.18 39.35 38.89 37.59 37.49 37.23 37.50 35.95 34.85 34.41 33.53 32.53 32.35 28.45 30.61 32.52 33.11 31.75 31.75 32.71 33.32 34.75 33.65 34.11
48.66 48.52 48.52 48.68 46.72 45.64 44.85 44.36 44.32 43.21 43.65 42.93 42.88 42.55 42.30 41.93 41.52 40.29 39.07 38.77 37.95 36.41 36.85 36.94 36.11 37.78 34.84 33.94 32.85 31.81 30.49 30.36 28.44 26.08 29.11 30.05 29.85 30.62 30.21 30.25 33.05 34.53 33.40
47.14 46.91 46.82 45.42 44.55 43.76 43.73 43.98 43.79 42.96 42.58 42.32 42.32 41.67 41.47 40.09 38.96 38.66 37.87 37.87 36.59 37.35 37.24 36.12 35.48 33.93 32.43 31.52 29.40 28.39 28.34 30.29 28.48 26.71 26.04 28.79 28.64 28.54 28.22 29.21 30.23 30.48 33.94
46.93 45.39 44.25 43.33 43.44 43.59 43.53 43.12 43.00 42.95 42.00 41.74 41.96 41.79 40.67 38.58 39.04 38.50 38.37 37.24 35.70 35.64 36.27 35.75 35.41 33.75 29.14 27.86 28.00 25.70 27.44 25.61 25.83 24.98 24.80 25.38 25.97 27.43 27.69 26.76 27.06 28.79 29.01
44.99 43.97 43.03 43.44 43.47 43.12 42.56 43.07 43.07 42.65 42.11 42.08 41.37 40.13 39.72 39.18 39.36 36.49 36.85 34.67 35.52 35.10 35.81 35.31 33.49 32.62 33.98 29.23 27.34 25.07 25.14 24.09 23.92 23.04 22.84 23.81 24.18 25.01 25.12 27.00 26.41 27.63 28.29
44.00 42.09 42.39 42.18 41.75 41.48 41.93 41.97 41.91 41.59 41.43 41.21 39.94 38.91 38.11 39.14 35.20 34.54 33.28 32.70 33.76 33.16 31.65 31.38 31.47 33.50 31.45 31.33 31.58 30.51 28.20 23.21 22.80 22.73 23.19 23.61 24.39 24.46 26.49 27.81 26.26 24.20 22.34
42.01 41.45 41.54 41.07 40.75 40.85 40.98 40.74 40.55 40.20 40.37 39.80 38.00 37.62 37.09 37.47 34.97 33.75 31.92 31.41 31.10 30.95 30.26 29.66 30.46 32.70 30.18 27.58 28.68 28.74 27.26 28.74 27.73 25.79 23.92 24.83 26.15 26.08 26.08 23.92 23.19 22.91 22.85
40.78 40.33 40.37 40.37 39.72 40.06 40.19 40.19 40.00 39.93 38.55 37.84 35.72 36.59 36.52 36.61 34.77 33.21 31.76 29.92 30.06 30.77 30.08 29.57 28.67 28.12 25.21 25.62 24.68 23.50 23.74 25.02 25.94 27.07 25.85 26.08 25.62 25.88 25.79 25.84 25.13 25.28 26.40
39.47 39.43 39.66 39.79 39.11 39.14 38.84 39.11 38.60 37.53 37.50 36.66 36.06 35.20 34.88 33.74 33.47 32.66 30.53 28.91 29.31 29.01 29.67 29.37 29.57 27.17 26.55 27.02 23.85 22.01 22.46 23.66 28.16 28.64 27.53 27.92 28.76 29.52 29.37 27.41 24.83 24.50 22.71
39.40 39.29 39.30 39.38 39.26 38.68 38.63 37.67 37.29 36.06 36.51 36.00 34.81 34.33 34.38 33.71 32.98 31.90 30.39 27.95 26.47 28.14 28.19 28.81 27.69 25.49 25.95 25.73 20.30 18.78 19.24 22.15 22.11 22.17 23.29 25.75 27.65 27.48 29.72 29.13 28.57 25.62 25.15
40.03 39.55 39.28 39.37 38.70 38.72 38.11 37.42 36.48 35.65 35.13 32.55 31.95 32.20 32.25 32.71 33.14 32.13 31.58 27.80 27.09 27.75 27.80 26.64 26.69 26.71 26.39 26.13 24.91 21.33 21.14 23.35 22.83 22.33 23.78 23.72 25.65 26.15 26.98 26.50 26.47 24.04 23.96
39.17 38.65 38.42 38.70 38.07 37.75 36.21 36.64 36.89 34.59 31.81 30.72 30.39 31.50 30.83 31.62 33.60 32.92 32.28 30.54 29.91 25.39 26.96 26.99 27.72 28.12 27.72 26.60 24.64 25.01 25.83 23.96 21.53 20.16 20.79 21.77 22.53 24.05 25.37 26.85 28.63 29.42 30.52
38.03 37.66 37.89 38.34 37.54 36.22 34.36 33.61 33.20 32.15 29.56 29.38 31.29 29.78 30.32 31.74 30.48 33.91 32.41 31.45 30.26 26.34 27.28 28.25 28.84 28.11 28.25 26.45 27.29 27.23 23.67 20.96 21.18 15.55 18.55 20.14 21.95 24.80 26.00 26.30 27.66 28.09 28.65
36.95 36.98 36.90 35.79 35.45 34.74 33.92 32.99 31.67 31.68 29.87 30.15 29.77 29.50 29.30 28.95 28.58 29.72 28.87 30.18 30.12 28.53 27.27 27.73 26.58 25.20 23.18 23.68 22.57 24.69 23.11 22.41 19.32 17.41 16.98 20.06 22.38 22.54 23.03 24.74 24.05 25.95 25.62
36.62 36.46 35.53 35.01 34.25 32.15 33.03 32.24 31.69 32.14 31.66 29.92 29.80 28.61 25.54 24.89 27.98 29.17 29.50 28.77 28.68 29.44 24.62 23.74 22.59 23.91 24.16 23.11 23.18 22.78 22.50 22.24 19.58 18.18 16.74 18.41 20.51 21.44 21.78 23.37 24.15 24.64 23.58
35.77 34.80 33.63 32.91 32.57 31.90 31.54 31.33 33.01 32.64 32.50 32.75 32.03 29.50 28.18 30.58 31.45 31.46 31.40 30.74 29.90 28.94 23.17 21.18 20.07 21.11 24.85 21.48 19.77 20.54 20.82 19.85 20.22 18.96 17.27 17.95 18.06 19.50 20.16 21.78 24.24 23.49 22.22
34.12 33.44 33.24 31.75 31.81 30.70 31.24 30.51 29.87 32.11 33.15 32.78 32.57 32.09 31.43 30.46 31.04 31.63 31.52 30.99 30.50 29.23 24.62 20.96 20.50 23.94 22.64 25.08 21.28 20.73 18.87 19.25 19.78 19.27 17.28 15.94 17.18 18.90 19.20 20.32 21.79 22.23 20.49
34.98 33.04 33.36 33.48 32.57 32.71 31.77 31.62 31.28 30.39 29.34 29.96 31.91 31.46 31.59 31.62 31.52 31.29 31.03 30.11 27.25 27.79 25.66 23.83 23.27 24.66 25.70 23.44 22.39 21.78 20.02 17.67 17.37 18.61 13.83 15.98 13.47 14.19 17.23 18.88 19.41 19.00 18.83
35.33 34.95 33.88 34.07 33.14 32.10 31.72 31.23 30.69 30.07 29.45 29.22 29.43 29.16 29.50 31.66 31.63 31.17 30.99 26.41 24.46 24.70 26.12 26.24 25.68 25.92 26.80 23.73 21.97 21.36 17.87 15.03 14.41 11.48 13.25 15.26 16.81 14.90 12.70 18.06 18.17 17.76 17.98
36.31 33.78 32.21 32.93 32.10 31.66 31.71 31.08 30.71 30.80 31.31 30.64 29.58 29.26 30.53 30.25 29.06 28.03 27.98 27.47 26.81 26.13 26.09 25.96 26.65 27.13 26.23 25.70 24.31 23.27 19.88 16.78 16.40 17.21 13.80 11.34 17.80 11.97 12.41 12.57 15.46 16.83 18.34
36.21 35.72 33.58 31.65 31.07 30.74 30.73 30.85 30.44 30.09 30.20 30.06 30.86 31.48 31.42 30.92 29.79 30.06 29.99 29.52 28.38 27.55 27.57 27.62 27.81 27.64 26.91 26.18 23.12 20.66 22.56 16.85 16.53 15.37 13.83 13.62 11.24 9.88 13.94 12.82 14.00 16.34 18.53
34.74 34.50 34.21 32.33 31.58 30.28 29.61 29.24 28.92 28.24 28.18 28.16 29.15 29.88 31.87 31.51 30.40 29.60 29.62 29.85 30.10 30.32 30.09 30.00 28.87 28.30 27.46 27.08 25.21 23.30 23.16 16.66 16.91 15.05 14.02 12.75 11.70 12.33 14.07 11.51 13.00 10.52 14.26
31.95 32.23 32.45 31.54 31.33 30.93 30.62 30.07 29.65 29.77 29.77 29.76 30.03 30.49 30.29 31.17 31.47 30.61 30.38 30.78 30.91 30.80 30.87 30.50 30.24 29.09 28.02 27.49 27.51 24.94 23.45 19.72 18.39 16.41 13.06 10.64 11.34 11.59 10.08 10.41 11.56 9.61 9.00
30.08 30.31 31.32 31.07 30.87 30.72 30.10 29.65 29.90 30.12 29.99 29.88 30.84 30.49 30.04 30.28 30.39 30.82 31.77 31.92 31.83 31.95 31.96 31.54 30.73 29.79 29.08 28.36 27.87 26.13 22.75 20.39 19.32 16.04 12.09 10.61 10.25 11.88 10.40 10.32 10.71 8.38 7.64
29.87 29.87 30.50 30.77 29.48 28.52 28.24 26.73 25.59 25.32 25.09 25.07 25.36 27.19 28.22 28.49 28.32 29.70 30.58 31.64 31.51 31.74 31.90 31.75 31.57 30.42 29.60 28.82 27.84 25.37 23.24 22.43 17.88 16.24 14.48 10.94 9.70 7.75 8.13 9.12 7.47 9.82 7.80
29.12 29.52 28.61 27.49 26.56 25.07 23.74 22.98 22.72 22.63 21.99 21.98 22.38 22.51 23.05 24.00 24.19 22.84 22.63 28.22 29.55 28.61 30.61 31.93 31.26 30.46 29.75 29.29 28.60 26.18 24.43 21.43 19.16 15.89 13.46 14.36 12.24 10.54 9.67 9.40 8.80 8.19 9.95

GFSGL_sfc_wetblb_057.txt.gz
Wetbulb
44.51 44.94 46.03 46.57 47.71 46.52 44.74 42.18 40.49 40.25 40.16 40.06 40.15 39.72 39.65 39.10 39.24 38.05 37.50 37.31 36.51 35.38 35.18 35.25 35.05 34.75 34.10 33.56 34.36 33.70 30.52 27.79 24.05 25.69 27.56 28.94 27.98 28.71 30.66 30.68 32.24 31.05 31.25
45.98 46.76 47.30 48.02 46.72 44.10 42.41 40.58 40.09 39.40 40.14 39.93 40.31 39.80 39.94 39.27 37.99 36.88 36.26 36.02 35.17 33.89 34.32 34.43 35.79 36.41 33.09 32.55 29.31 26.60 25.49 25.41 24.02 22.89 24.35 25.75 25.66 27.17 27.40 27.10 30.80 32.72 31.07
48.26 46.64 46.53 46.15 42.46 40.91 39.46 39.99 39.85 39.57 39.48 39.71 40.39 39.85 39.60 37.89 36.71 36.73 36.66 36.16 34.86 34.31 34.41 33.21 33.12 32.39 29.05 26.48 26.12 24.75 24.53 27.31 24.08 22.84 23.09 24.31 25.15 25.50 25.69 26.48 27.03 27.95 31.81
46.02 45.35 43.26 41.21 41.27 40.31 40.42 40.48 39.92 40.33 40.09 39.75 39.87 40.08 38.96 36.69 37.17 37.18 36.43 34.49 34.01 34.51 34.17 33.97 33.66 30.59 27.36 25.94 25.85 23.77 25.02 23.12 23.13 22.25 22.76 22.60 23.46 25.00 24.90 24.37 24.83 26.09 27.36
43.96 41.69 40.50 39.76 39.04 38.98 38.90 39.32 40.45 40.47 40.15 39.81 39.55 38.49 37.85 37.56 37.94 35.37 35.57 34.81 32.63 32.27 32.16 33.02 31.79 31.69 34.31 28.52 26.11 23.62 23.67 22.38 21.72 21.56 21.42 22.02 22.53 23.06 23.37 24.25 25.86 25.48 25.29
39.94 39.46 40.20 39.76 38.31 38.53 38.62 39.08 39.47 39.42 39.30 38.94 37.61 37.18 36.31 37.73 35.76 34.81 32.81 31.42 33.33 31.79 29.39 29.66 29.13 31.92 31.16 31.48 30.51 29.66 26.99 22.18 20.70 20.40 21.28 21.54 21.76 23.29 27.19 24.29 22.53 20.90 19.12
39.78 39.52 38.62 39.15 38.25 38.58 39.45 39.15 38.87 38.08 37.69 36.69 36.07 35.85 35.17 35.49 35.14 34.39 33.10 30.12 30.66 30.53 28.57 27.34 28.57 30.48 28.45 26.17 26.91 26.80 25.70 26.68 25.53 23.17 21.72 22.58 23.82 24.29 23.65 22.09 21.90 21.66 21.95
38.71 38.66 39.17 39.21 38.68 38.73 38.56 38.28 37.70 36.79 35.59 34.72 34.53 34.28 33.89 35.41 35.31 34.42 32.84 30.06 28.06 28.37 27.69 26.96 26.30 25.41 25.49 25.18 23.99 22.68 22.85 23.02 23.96 24.80 24.07 23.14 23.25 24.05 24.06 25.08 24.62 24.34 25.30
37.44 36.92 38.42 38.72 38.08 38.07 36.84 36.17 35.58 34.62 34.39 33.64 33.82 32.62 32.58 32.49 34.59 33.75 32.08 26.52 27.38 27.60 28.05 27.43 27.85 24.67 27.05 26.98 23.54 21.13 21.65 22.09 25.94 27.58 27.05 27.26 28.16 28.70 28.82 26.69 24.54 24.41 22.58
37.72 38.11 38.48 38.28 37.91 37.15 36.08 35.53 35.55 34.53 34.44 34.11 33.14 32.35 33.26 31.07 34.23 33.87 31.64 25.85 24.09 26.85 26.97 27.39 28.02 25.06 26.16 26.02 20.10 16.99 16.65 20.25 22.12 22.15 22.53 23.94 25.78 25.65 28.35 27.41 25.89 22.70 22.39
38.77 38.34 38.26 38.12 37.06 36.41 34.28 34.11 33.94 33.20 31.95 30.07 30.05 29.54 30.09 30.49 30.36 34.02 32.85 27.62 25.94 26.27 26.89 25.94 25.18 27.16 26.79 27.36 26.67 20.87 18.64 22.13 23.05 21.81 21.87 22.01 22.36 23.34 23.42 24.56 25.55 26.01 24.77
37.99 37.62 37.28 37.19 36.87 35.87 33.52 32.92 32.53 30.42 28.66 28.85 29.52 29.57 28.06 29.63 31.89 33.59 33.93 32.35 29.35 24.65 25.91 26.06 26.23 28.76 28.82 28.59 26.62 26.27 26.43 24.56 17.02 18.13 19.03 19.34 19.85 20.90 22.67 24.01 25.29 26.46 26.85
36.57 36.04 36.24 36.71 35.70 34.43 31.92 29.72 27.72 27.55 25.92 26.82 26.00 25.13 26.23 28.58 28.54 33.08 33.65 33.09 31.52 27.03 26.66 26.71 28.78 29.50 29.06 27.73 28.48 28.55 25.36 20.61 17.88 14.08 16.87 17.44 18.68 21.26 23.48 23.93 25.10 25.52 26.27
34.61 34.48 34.42 33.01 32.82 32.05 31.00 30.05 27.38 24.19 24.87 28.35 29.17 29.15 28.17 29.01 27.46 26.60 27.45 28.89 31.60 29.23 27.32 26.45 24.51 25.49 23.17 23.54 23.35 24.78 22.18 19.42 18.08 18.77 15.09 16.60 19.12 20.25 20.25 21.98 21.50 22.53 23.58
34.06 33.56 32.21 31.71 30.63 29.69 29.82 28.54 28.33 28.64 29.68 29.34 27.35 27.81 27.13 26.23 28.26 28.86 26.75 29.32 30.20 28.47 26.70 24.03 22.65 21.29 21.69 23.73 23.13 22.81 21.88 20.79 17.94 15.36 14.55 15.46 17.99 19.11 19.20 21.04 21.15 22.76 21.81
32.88 31.79 29.84 29.12 28.75 28.33 27.57 28.64 31.77 31.78 30.71 32.27 32.53 31.64 29.48 29.79 30.82 32.07 31.91 31.64 31.31 30.42 24.91 15.99 13.90 11.92 15.75 20.86 22.90 20.90 20.14 18.67 17.93 17.13 13.34 15.88 15.46 15.53 17.27 19.70 21.14 20.69 19.12
30.46 30.25 29.76 29.89 29.36 29.24 27.88 28.13 28.02 30.24 32.77 32.78 32.83 32.84 32.97 32.40 31.09 31.86 31.83 31.54 31.09 30.57 24.79 19.53 14.36 15.50 18.16 21.10 24.68 20.84 19.02 18.65 18.66 16.79 14.25 12.29 13.57 16.05 14.12 16.89 19.33 19.20 18.51
31.13 30.84 30.20 29.89 29.96 30.06 29.23 29.18 28.48 27.80 27.01 27.41 29.96 31.83 32.27 32.53 32.49 32.16 31.80 31.29 27.48 27.34 26.54 24.46 20.53 20.25 20.59 22.87 24.30 20.98 19.17 16.59 14.57 14.65 10.21 7.40 6.25 11.46 10.52 14.16 16.93 16.18 17.41
31.95 31.99 31.75 32.12 32.33 32.30 31.76 29.61 28.31 28.87 26.84 27.60 28.28 27.06 27.51 31.58 32.02 31.97 31.90 29.32 26.13 24.63 24.80 24.47 24.05 22.93 22.72 23.31 23.13 20.92 15.19 11.15 8.32 5.90 6.93 7.82 6.82 9.84 8.98 12.02 13.18 14.93 15.38
32.09 31.24 32.30 33.25 32.71 32.29 31.31 29.90 29.12 29.42 29.70 29.80 28.81 29.51 28.36 26.47 27.81 26.94 28.60 28.78 27.42 26.23 25.66 24.70 24.22 24.60 24.55 25.53 24.95 21.30 16.76 12.09 10.18 8.31 9.13 8.90 2.87 6.02 6.12 6.73 8.13 10.97 16.90
29.36 29.82 30.10 30.11 29.47 30.99 29.83 27.77 29.35 27.42 22.79 23.05 24.58 22.86 25.42 28.67 29.82 29.43 27.74 27.35 27.11 26.81 26.81 26.61 26.32 26.37 25.41 24.93 24.36 22.57 20.89 17.11 15.93 12.86 9.96 7.27 1.52 5.90 6.99 9.08 7.65 14.46 14.20
26.43 28.56 27.56 26.67 28.53 29.91 29.88 29.64 27.95 24.18 21.87 22.19 25.65 25.31 24.66 27.99 29.94 29.38 29.18 29.83 30.43 29.83 29.23 28.49 27.59 27.61 27.75 26.51 26.17 22.69 20.47 17.26 14.04 13.02 9.69 6.74 7.69 7.07 6.05 7.07 7.60 5.25 8.74
22.11 23.41 25.34 26.59 26.89 28.93 29.91 28.34 25.63 22.62 26.13 26.66 27.00 25.87 27.76 28.34 28.23 28.70 30.07 30.70 30.52 30.82 30.82 30.47 30.22 29.36 29.08 28.78 27.90 26.38 23.42 20.63 20.23 17.66 12.55 8.13 7.00 6.29 3.19 5.24 5.80 5.01 4.75
24.18 24.83 25.68 26.82 26.45 27.36 26.60 25.13 24.21 23.77 23.40 22.26 21.59 21.77 22.82 23.65 25.13 22.86 22.60 24.49 30.49 31.65 31.87 31.30 30.68 30.06 29.88 29.43 28.49 26.99 25.88 22.81 21.30 19.29 14.30 11.38 8.93 7.52 3.69 5.54 5.40 2.92 2.01
20.83 19.43 19.55 21.06 21.64 21.68 22.05 21.43 20.58 20.32 19.38 19.24 18.75 18.70 20.12 19.78 18.53 18.33 18.29 18.16 19.37 19.10 28.49 30.24 31.66 30.96 30.27 29.53 28.60 26.51 25.39 24.40 20.10 16.51 13.78 11.02 8.78 4.56 3.81 4.92 2.01 5.40 2.59
16.90 14.50 14.44 15.54 15.83 17.16 17.16 17.07 17.50 16.57 15.71 15.66 15.61 15.99 16.22 15.63 15.44 14.87 14.04 14.58 14.94 17.34 18.27 24.28 29.01 30.57 29.33 29.53 28.61 26.12 24.32 24.32 20.35 17.31 17.21 15.25 12.29 7.21 6.35 6.32 4.17 4.17 5.75

GFSGL_sfc_wetblb_063.txt.gz
Wetbulb
45.47 45.66 46.25 46.31 46.28 46.47 45.28 45.19 43.81 42.13 40.78 39.87 38.95 37.34 37.38 37.74 38.05 36.59 35.42 35.39 34.28 33.65 33.24 32.56 33.06 34.04 32.79 33.26 34.29 33.71 32.88 29.37 25.78 24.20 25.22 25.16 23.85 24.15 25.31 25.06 27.14 26.73 27.43
45.43 44.50 45.18 45.55 44.46 45.08 45.47 43.88 41.50 38.59 39.99 38.66 38.07 37.99 38.04 37.81 37.24 35.87 34.42 35.02 33.82 32.83 32.97 32.41 33.12 35.18 31.94 30.17 28.19 26.47 25.27 24.23 23.39 21.36 22.22 22.74 22.94 23.47 23.27 23.34 26.60 28.84 27.08
46.31 46.74 46.02 46.84 44.88 43.15 41.42 40.74 38.48 38.55 38.22 37.28 37.52 37.39 37.44 37.34 37.08 35.76 34.84 34.58 34.54 33.84 33.12 31.94 32.29 31.73 29.90 27.85 25.97 24.94 23.94 26.14 23.42 22.04 21.55 22.41 22.28 22.40 22.78 24.12 24.70 25.52 27.94
46.49 47.25 46.07 43.78 43.04 40.02 38.47 38.69 38.64 38.12 37.37 38.04 37.63 37.79 37.66 37.43 36.96 35.99 35.94 35.00 33.38 33.04 32.79 32.42 31.82 31.03 29.89 29.48 26.68 25.00 24.48 23.16 22.48 21.40 20.97 21.03 20.89 22.72 22.61 21.91 22.71 24.43 24.24
46.84 44.27 42.37 41.42 39.50 37.73 38.20 36.24 36.49 38.99 37.39 37.48 37.22 37.00 37.20 36.90 36.24 35.40 34.93 34.01 32.67 31.19 30.49 31.80 31.83 32.91 33.93 30.55 27.03 24.78 22.97 21.86 21.26 20.49 19.94 19.19 19.55 19.96 20.18 23.07 21.75 21.59 22.45
41.66 38.95 38.51 37.33 37.62 37.43 37.51 36.45 37.58 36.64 36.93 36.09 35.44 35.49 35.14 36.23 36.46 36.72 34.78 31.45 31.00 30.45 29.80 30.84 32.56 32.07 31.50 34.03 32.08 29.26 25.54 21.93 20.37 18.94 18.59 17.70 18.55 20.19 19.77 20.51 20.02 19.45 18.79
37.89 37.01 37.67 38.35 37.84 37.40 38.05 37.53 35.71 34.77 35.26 34.38 33.59 33.38 33.20 33.52 35.68 36.85 35.44 30.75 29.96 29.64 28.94 28.54 28.28 28.97 29.39 28.22 30.69 30.07 28.70 27.63 25.41 20.86 17.70 18.78 17.23 20.33 20.68 20.43 20.83 21.49 21.80
35.68 36.21 36.90 36.58 37.49 37.43 36.84 35.43 34.50 34.78 34.07 33.04 32.21 32.22 31.79 32.81 35.34 35.97 35.15 30.56 28.76 28.65 30.67 28.29 26.74 26.13 26.80 26.57 24.62 23.61 23.41 23.90 24.14 23.06 21.05 21.42 21.81 22.24 22.34 23.34 23.70 23.71 23.68
36.23 36.12 37.06 37.80 36.77 36.20 34.80 34.30 33.72 33.09 32.20 31.41 31.75 31.37 30.60 30.48 33.91 34.77 33.76 29.44 28.23 28.41 28.73 28.30 27.85 26.20 28.54 30.34 25.02 23.27 23.33 23.60 25.81 26.44 27.11 27.38 27.39 27.72 26.05 19.55 18.64 19.39 17.78
36.98 38.75 38.00 37.29 35.63 34.86 34.49 33.13 32.12 30.96 31.30 30.19 29.54 30.08 31.49 29.92 32.34 34.04 33.84 29.29 29.03 27.74 26.72 28.19 30.52 28.74 28.58 29.14 23.00 20.11 19.13 21.59 21.48 21.57 22.42 23.76 24.55 24.02 25.57 22.69 19.27 18.51 19.06
37.71 37.52 36.80 36.41 35.18 34.38 33.16 32.37 31.24 30.01 28.59 27.76 28.05 28.29 28.55 29.32 29.26 32.88 33.45 32.55 29.59 27.57 27.37 27.54 27.55 29.54 29.72 29.25 28.70 22.13 20.66 23.25 22.33 21.94 22.42 21.75 21.65 21.64 21.09 21.44 21.83 19.48 18.80
36.21 35.85 35.14 34.63 34.11 33.95 31.95 31.21 30.18 28.69 27.01 25.22 21.56 24.98 26.69 27.92 30.39 31.31 32.63 33.21 32.28 28.12 27.52 27.95 27.79 29.81 30.29 29.79 28.40 27.95 28.56 25.46 22.36 21.05 19.31 19.43 19.08 19.60 20.23 20.49 22.22 22.39 22.68
34.25 33.73 33.47 33.77 32.91 32.09 30.44 29.65 28.24 27.56 25.90 26.30 25.80 25.73 26.07 26.99 27.40 31.05 32.30 32.45 32.45 31.68 29.83 29.36 30.05 30.06 30.86 29.19 29.84 29.27 26.73 22.50 20.59 14.68 17.26 18.41 18.02 19.83 21.28 22.15 22.49 22.52 23.00
32.69 32.47 31.93 30.25 30.40 30.05 29.67 29.70 27.81 27.00 26.75 27.64 27.45 26.68 26.82 26.50 25.90 27.16 27.96 28.15 31.53 30.81 30.47 31.09 29.52 28.40 27.97 27.68 24.77 26.43 24.64 20.29 19.85 18.98 17.06 16.17 17.45 18.52 17.78 20.04 18.35 19.28 18.83
30.10 29.84 29.35 29.42 28.88 29.06 29.68 29.08 29.75 30.53 30.28 30.23 29.25 28.49 27.74 25.75 26.99 28.37 27.82 26.15 25.67 27.43 26.57 27.48 26.92 26.35 25.57 24.80 24.36 23.83 23.12 20.70 18.93 16.27 14.84 15.01 15.64 17.41 16.36 17.06 17.52 17.77 15.88
28.83 28.75 28.80 28.87 28.70 28.67 28.28 29.39 32.21 32.22 31.99 32.25 32.22 31.72 32.08 31.06 32.00 32.06 32.16 32.12 32.14 31.54 27.03 26.23 25.28 24.55 23.10 23.32 22.93 22.34 21.30 19.51 20.64 18.65 14.29 15.06 15.26 14.91 13.66 15.48 16.89 13.99 14.15
25.70 26.71 27.02 27.67 27.78 27.52 27.64 27.65 26.82 30.05 32.40 32.69 33.06 33.17 33.21 32.53 33.12 32.43 32.87 32.69 32.39 31.72 28.33 25.25 23.97 24.10 22.89 23.14 22.40 21.75 20.48 20.09 20.89 18.49 17.03 14.97 15.76 14.45 10.92 12.83 13.35 13.72 13.14
25.49 25.75 24.40 24.11 23.97 24.32 25.58 26.74 27.71 24.88 23.55 25.39 29.84 31.80 32.58 32.66 32.96 32.61 32.58 32.27 30.03 30.25 28.89 26.28 24.48 22.36 23.63 23.35 22.13 21.48 21.44 21.12 17.68 17.02 16.15 15.70 12.48 10.35 8.93 11.41 11.73 5.36 9.80
21.87 21.55 21.64 21.03 21.70 22.37 23.84 23.36 23.51 24.29 23.80 24.72 27.49 29.56 29.11 31.00 31.69 31.63 31.25 26.91 27.77 27.75 27.09 27.34 27.31 26.71 24.51 24.13 23.42 22.15 20.90 19.81 15.94 11.84 16.21 15.27 8.98 9.15 7.34 9.24 7.97 7.51 7.13
21.57 20.88 20.42 22.12 22.38 23.22 24.00 23.66 23.33 24.46 25.16 25.71 26.98 27.03 25.55 21.91 17.83 20.17 18.99 23.72 25.29 27.80 28.51 27.17 26.84 27.03 26.78 25.31 24.21 22.97 20.63 18.60 16.09 15.39 14.24 14.02 10.82 6.42 6.95 4.78 0.85 4.10 10.47
20.46 20.54 18.02 19.80 20.10 20.61 20.25 20.44 20.98 20.52 20.64 20.67 21.39 21.72 21.95 22.77 20.90 20.88 20.74 20.16 20.82 22.52 25.85 28.37 28.16 27.00 26.70 26.47 25.31 23.89 22.74 21.10 19.66 18.39 17.98 16.26 9.93 3.84 7.20 4.52 2.62 7.19 10.15
17.90 15.67 15.77 17.11 16.86 16.63 17.91 17.64 17.13 17.14 17.01 16.64 16.96 18.97 18.46 16.75 15.72 16.08 15.14 15.20 16.38 17.26 18.30 18.69 20.06 26.93 27.61 26.25 26.01 25.35 24.55 23.42 21.66 20.34 18.93 17.66 13.72 10.27 6.64 2.76 1.20 1.87 5.40
12.83 9.32 10.68 12.90 12.45 12.63 11.55 13.44 11.75 12.11 12.56 11.99 13.19 13.82 14.35 13.14 12.29 12.00 10.82 10.61 12.63 13.16 13.88 15.93 16.63 17.23 17.95 25.14 28.16 27.32 26.05 25.05 24.96 22.58 19.73 17.13 14.44 12.56 5.37 4.17 2.35 0.82 1.66
8.94 5.86 8.41 8.12 7.45 8.51 5.72 7.64 8.13 6.34 8.14 7.25 7.52 9.59 9.24 9.90 10.56 10.01 9.27 8.94 9.48 10.00 11.12 12.37 14.13 15.09 15.65 14.99 16.61 28.47 28.48 28.08 27.01 22.88 21.05 18.61 15.66 12.12 8.70 6.03 3.78 -0.44 -0.82
2.53 -1.10 -2.52 1.08 1.99 3.83 1.36 5.29 2.88 -0.20 1.31 3.16 4.34 6.25 7.83 8.13 8.68 9.09 8.21 7.52 7.12 7.22 8.76 10.14 11.90 12.68 13.20 13.35 14.27 16.37 26.99 28.52 26.27 23.64 21.37 19.47 16.73 13.01 10.70 8.17 4.13 3.25 -1.49
3.51 -0.21 -2.14 -4.13 -3.40 -2.16 -1.32 1.46 -1.87 0.28 0.90 1.69 1.85 3.40 4.80 5.75 6.77 6.90 6.34 5.37 4.83 5.29 5.61 6.98 8.66 10.00 10.87 12.54 14.17 13.70 15.94 27.75 25.16 22.92 20.94 19.28 16.57 13.68 10.72 9.55 6.64 5.35 5.18

GFSGL_sfc_wetblb_066.txt.gz
Wetbulb
46.25 46.00 46.12 45.58 45.50 46.42 46.20 45.92 45.59 45.15 44.65 41.50 40.24 39.31 38.91 36.58 37.93 37.25 36.16 36.14 35.08 34.14 34.10 33.34 33.32 33.53 33.43 32.59 32.78 32.64 31.66 32.90 29.12 28.15 27.25 27.14 26.57 26.56 27.23 27.08 27.86 27.57 28.23
43.84 44.79 44.09 44.38 44.55 45.31 44.61 45.21 44.75 42.93 41.40 38.52 38.71 39.15 38.29 37.51 37.29 36.88 35.76 35.76 34.34 33.45 33.64 32.67 32.41 34.48 32.26 31.72 30.58 30.00 29.56 28.94 25.73 22.91 24.18 24.75 24.75 25.69 25.27 24.63 26.50 28.28 28.21
45.28 45.23 45.15 45.29 45.36 44.06 45.04 44.18 42.42 37.79 37.82 38.63 38.81 38.76 37.43 37.58 36.93 36.28 35.50 34.58 34.04 33.89 33.69 32.59 31.71 31.28 30.33 29.80 28.75 27.18 26.47 26.95 25.29 23.69 23.08 24.21 24.21 24.38 23.77 25.05 25.46 26.42 28.01
46.56 47.07 45.62 46.18 44.88 42.50 40.56 38.91 37.66 38.69 38.54 38.55 38.23 37.76 37.48 36.88 36.53 36.65 35.42 34.14 33.75 33.28 32.69 31.95 31.59 31.17 30.38 29.93 29.67 28.08 26.67 24.68 24.11 23.04 22.50 22.37 22.60 23.51 23.77 22.61 22.69 25.35 24.46
46.47 46.73 44.98 42.18 40.31 39.44 38.65 38.33 38.14 38.88 38.25 37.93 36.80 36.23 35.96 36.43 36.40 34.94 34.40 33.80 32.40 31.84 31.54 31.16 31.04 31.62 33.41 31.11 28.60 27.04 25.47 23.07 22.75 21.95 21.17 20.99 20.85 20.13 20.31 22.90 21.90 22.41 23.30
45.48 42.49 40.50 40.09 38.27 37.87 37.05 37.67 37.98 37.62 37.25 35.97 34.91 34.64 34.62 35.48 36.32 36.73 35.47 32.36 31.80 31.15 30.09 30.34 30.65 33.62 32.55 33.85 34.04 32.01 26.64 23.73 22.08 20.50 20.62 19.82 19.93 20.20 21.75 21.40 20.77 20.20 18.73
39.84 39.10 38.21 38.03 37.62 36.25 38.07 37.51 36.61 35.68 36.27 34.79 34.09 33.14 32.41 32.59 35.12 36.48 36.08 32.42 30.81 29.99 29.34 29.74 30.35 30.39 30.31 28.18 30.15 31.31 29.79 28.98 25.56 23.40 20.93 20.84 18.95 21.53 22.15 21.02 21.27 21.30 21.31
37.93 37.07 37.59 37.76 37.49 37.38 36.81 36.15 35.31 34.92 34.26 33.38 32.21 31.71 30.97 31.77 34.58 35.27 35.34 32.08 30.15 30.07 29.45 29.05 28.67 28.06 27.69 27.61 27.08 26.16 25.39 25.33 25.78 25.26 23.54 22.27 22.17 23.84 23.18 23.63 23.00 22.88 23.32
36.38 36.93 37.45 37.80 36.64 36.39 34.85 34.40 33.96 32.76 32.12 31.22 31.02 29.81 29.27 29.81 33.15 33.86 33.47 30.29 29.75 29.26 29.97 29.19 28.26 27.48 28.91 31.03 27.24 24.30 24.24 24.25 27.20 28.77 28.19 27.02 27.62 27.91 27.11 23.04 20.02 19.09 17.70
37.29 37.84 37.87 36.97 36.53 35.19 34.38 33.86 32.13 30.47 30.10 29.86 29.23 29.23 30.84 29.86 31.98 33.42 33.11 28.20 30.62 30.43 30.43 28.72 30.38 29.03 29.64 30.49 27.19 23.70 20.65 22.89 23.74 23.03 22.58 24.36 26.24 25.20 26.13 24.45 21.41 18.03 18.17
37.74 37.48 36.78 36.39 34.91 34.65 32.59 31.06 30.29 29.53 29.06 28.10 27.98 28.34 28.44 29.15 29.11 32.50 33.55 30.53 30.67 29.82 29.20 28.19 28.17 30.08 31.18 31.54 30.33 24.63 23.16 24.64 23.53 22.58 22.42 22.98 23.43 23.27 23.31 23.36 22.85 20.82 18.78
35.74 35.02 35.22 34.57 33.56 32.58 30.56 30.23 30.02 28.83 27.59 26.39 24.60 26.71 27.53 28.59 30.50 31.13 32.59 33.03 31.45 30.41 29.60 29.28 29.27 30.64 31.05 31.45 30.50 29.41 28.18 25.64 23.86 22.17 21.53 21.32 21.23 21.62 22.49 22.71 23.06 23.24 23.24
33.91 32.63 31.61 31.35 30.52 29.64 29.03 28.71 28.03 27.53 26.69 27.19 27.17 27.28 28.60 29.70 27.29 30.76 32.04 32.36 32.17 29.71 31.59 31.32 30.97 30.95 31.86 30.88 31.19 30.30 28.23 27.19 25.35 23.25 22.44 21.61 21.85 22.45 22.78 22.34 23.69 23.61 23.15
30.05 29.36 29.10 28.42 28.88 28.47 28.82 29.06 26.91 25.35 26.33 28.13 28.10 28.10 28.94 29.33 29.19 27.43 27.43 29.29 30.58 30.93 30.09 30.46 30.57 29.84 27.88 28.50 28.74 29.73 29.36 27.34 25.82 23.53 21.61 21.13 20.52 19.69 19.77 21.31 19.99 20.17 19.12
28.06 27.62 27.16 27.47 27.03 27.08 27.87 27.49 28.17 28.25 28.05 28.14 28.40 29.01 29.02 28.91 29.96 31.84 29.98 29.74 29.07 27.92 24.76 24.06 28.05 27.02 25.53 25.38 25.60 26.08 26.28 25.52 23.30 21.96 19.61 19.22 18.58 18.28 18.46 19.50 18.91 18.96 17.20
25.24 25.23 25.15 25.20 24.77 24.71 24.25 24.72 28.78 29.34 30.16 30.73 30.46 29.01 28.28 30.25 31.54 32.67 33.38 33.56 33.02 30.91 26.67 25.22 26.13 26.50 25.83 24.87 24.29 24.26 24.43 24.31 23.61 22.03 20.03 20.02 19.13 17.77 17.41 17.83 18.43 17.26 15.60
23.41 23.69 22.84 22.85 22.66 22.18 22.29 22.79 21.64 24.53 27.39 27.78 28.61 29.28 29.67 30.29 31.55 32.79 33.27 33.14 32.50 31.66 29.13 27.77 26.01 26.64 26.52 25.16 24.50 23.91 23.29 23.66 23.73 21.77 21.40 19.81 18.51 17.82 16.02 16.39 16.54 16.28 15.54
21.85 21.26 20.24 20.42 19.90 21.27 21.76 22.51 22.85 22.31 21.69 22.86 26.73 26.53 25.59 27.21 29.13 31.37 31.81 31.98 28.62 28.90 28.95 28.63 27.84 25.65 24.18 24.97 24.52 24.46 24.13 23.71 21.39 20.86 19.23 19.21 17.74 17.02 15.71 15.06 16.09 12.67 13.55
21.67 20.54 20.06 19.41 21.93 22.56 22.62 20.86 19.84 19.64 18.96 19.37 20.47 20.48 20.18 24.84 24.43 24.74 25.34 24.11 24.71 25.56 26.06 27.00 28.02 27.89 25.70 24.90 25.51 25.38 24.38 22.87 21.26 17.42 18.92 17.87 16.18 16.43 14.74 14.22 14.40 9.97 9.75
20.46 19.44 17.43 18.77 18.93 18.64 18.78 17.63 18.00 16.74 17.17 16.62 16.37 17.18 17.03 16.92 15.57 16.68 16.85 16.26 15.69 16.12 17.05 18.01 20.31 25.85 27.30 27.83 25.66 25.11 24.04 22.77 21.11 18.21 17.50 18.15 16.54 15.52 15.74 13.16 10.65 11.97 14.33
17.31 15.85 14.61 17.08 15.19 15.17 14.64 13.98 13.91 12.80 13.63 12.21 12.55 14.69 14.50 13.89 13.21 13.40 12.84 12.08 12.27 13.12 13.06 14.37 16.48 17.48 18.89 24.79 26.98 25.54 24.30 23.11 22.48 20.25 19.52 17.55 15.54 14.99 14.92 14.01 12.22 12.05 13.10
13.30 11.91 12.46 12.44 12.21 10.90 9.93 11.85 9.31 8.26 9.25 8.18 8.02 10.94 9.00 10.22 10.85 10.80 10.20 9.52 9.80 11.33 12.21 12.80 12.71 14.79 16.86 16.31 15.69 22.34 25.11 24.01 23.45 21.77 19.75 18.62 17.13 16.60 15.14 12.15 10.69 10.81 11.83
9.30 4.54 6.41 9.39 6.69 5.82 4.61 5.52 4.46 1.47 4.90 3.82 4.56 6.34 7.35 5.89 6.19 9.01 7.94 8.07 8.50 8.36 9.53 10.43 10.58 11.66 13.88 14.10 15.07 15.88 16.85 25.08 25.71 24.69 22.32 20.12 18.24 17.14 13.32 12.28 11.06 8.76 9.49
5.53 0.21 4.92 2.30 -0.75 1.32 -5.08 -3.45 -0.59 0.28 2.35 1.68 -1.57 1.66 3.59 4.09 3.39 5.46 5.40 5.65 5.79 6.16 7.22 7.61 8.81 9.74 10.09 10.83 12.16 15.23 15.51 14.43 15.43 26.56 24.49 21.20 19.08 16.43 14.61 12.54 11.49 9.03 8.15
-2.57 -5.63 -6.90 -6.53 -6.90 -9.43 -10.52 -5.81 -6.53 -7.83 -6.21 -5.45 -4.56 -1.20 1.38 2.04 2.41 3.92 3.07 3.75 4.82 3.76 4.93 6.23 6.98 6.86 7.76 7.48 9.28 11.88 11.95 13.38 13.11 20.74 24.34 22.13 19.47 17.12 15.67 14.62 12.04 10.45 7.16
0.74 -3.50 -6.72 -10.16 -11.43 -12.88 -14.51 -14.33 -10.89 -12.34 -8.81 -5.03 -4.84 -4.77 -1.66 -2.02 -0.54 1.46 0.70 1.17 1.47 1.82 3.20 4.41 5.10 4.99 4.59 6.02 8.97 10.29 10.38 12.22 12.34 19.17 23.79 21.85 18.78 17.15 15.22 14.30 12.06 12.02 8.86

GFSGL_sfc_wetblb_069.txt.gz
Wetbulb
58.25 58.04 56.97 55.54 54.48 52.42 51.27 49.55 49.44 49.06 46.45 46.03 45.27 44.61 44.54 44.27 43.98 43.74 43.77 43.32 42.30 42.56 41.98 41.20 40.94 41.15 39.97 40.10 40.24 39.69 38.60 38.07 33.65 36.19 37.49 37.53 35.62 35.09 35.17 35.40 34.17 33.36 33.83
54.82 53.80 52.42 50.53 50.49 50.66 49.47 49.23 49.30 46.39 47.78 44.99 44.54 44.63 43.83 43.28 43.72 43.09 42.77 42.26 41.86 41.26 41.05 40.64 39.72 39.48 39.42 39.99 39.36 38.58 38.15 38.20 35.73 33.52 36.30 34.23 33.42 34.74 33.92 32.81 31.97 32.21 32.96
50.70 49.49 49.25 49.43 48.38 48.14 47.61 47.45 46.45 45.61 46.19 44.92 44.10 42.97 43.21 43.27 42.92 42.90 42.58 42.07 41.67 41.26 40.94 40.50 39.96 39.62 38.74 38.99 38.58 37.70 37.69 36.29 35.33 33.31 32.54 33.64 33.06 33.26 32.39 32.39 31.24 31.54 31.94
48.38 48.02 48.11 47.94 47.52 46.23 46.06 44.98 42.56 41.38 42.83 42.26 42.77 43.15 43.03 42.44 42.14 42.18 42.04 41.77 41.13 40.58 40.78 40.35 39.86 39.01 38.39 38.21 37.82 37.42 35.09 33.24 34.60 32.34 31.51 31.60 31.80 32.48 31.01 28.87 28.36 30.64 30.05
48.87 48.14 46.65 45.28 42.69 41.59 40.98 41.32 40.92 42.23 42.83 42.52 42.18 42.18 42.18 41.46 40.81 41.47 41.19 41.06 40.53 40.28 40.50 39.67 39.52 38.91 37.10 36.43 35.54 35.81 35.10 33.95 33.04 31.23 30.38 30.46 30.23 29.95 28.52 28.93 27.21 28.47 29.40
47.01 44.75 42.85 41.01 39.98 40.12 39.90 38.89 41.04 41.79 41.32 41.29 41.24 40.86 40.25 39.29 36.57 36.56 37.47 40.19 39.96 39.46 38.82 39.47 39.03 36.30 36.52 35.48 35.34 35.00 34.97 34.17 32.20 31.06 30.28 29.13 29.56 29.68 29.09 27.21 26.61 25.50 23.92
45.12 41.45 39.92 38.98 39.60 39.39 39.04 40.89 40.24 39.82 41.32 40.51 40.25 39.88 39.63 39.81 35.49 35.84 35.81 38.70 38.93 38.88 38.77 38.19 37.10 36.27 35.43 35.97 33.92 31.78 32.52 31.05 29.55 32.05 29.87 30.04 29.13 29.48 27.88 26.49 26.51 26.10 25.50
38.89 38.23 38.47 38.91 38.40 38.29 40.81 40.02 40.40 40.52 39.92 39.99 39.93 39.28 38.76 38.18 34.57 34.77 34.69 37.85 38.32 38.47 38.04 37.67 36.89 36.33 36.08 34.72 33.47 32.57 32.80 33.21 32.55 30.97 31.48 31.41 31.23 30.13 28.58 28.17 27.54 27.19 27.79
37.22 37.91 39.10 39.21 38.78 40.81 40.26 39.88 39.83 39.46 39.48 38.92 38.33 38.21 37.66 37.73 34.39 33.78 34.28 37.02 36.40 36.53 36.96 36.97 36.47 35.99 34.40 32.85 31.71 30.60 31.43 31.82 31.31 30.25 29.89 29.60 28.75 27.18 28.66 28.71 25.82 25.28 23.93
38.88 39.17 39.49 39.14 40.68 39.19 38.93 38.92 39.47 38.58 37.79 37.97 37.22 37.77 36.24 36.51 35.16 34.03 34.44 36.54 35.38 34.87 35.46 35.00 33.05 32.94 32.79 31.13 31.99 31.55 29.66 30.52 30.98 29.90 29.97 29.62 28.97 29.56 28.16 28.85 28.05 24.64 24.09
39.42 39.91 39.94 39.38 38.65 38.67 37.89 37.68 37.34 37.36 36.61 36.15 34.72 35.98 36.23 35.67 35.97 34.37 33.98 35.13 35.18 34.23 33.53 33.05 32.95 32.02 31.46 32.04 31.74 32.26 31.70 32.12 30.35 29.52 29.21 29.29 28.92 28.93 29.59 30.07 29.61 27.70 24.71
38.87 37.69 36.87 36.77 36.02 35.80 36.24 36.38 36.11 35.70 34.68 34.40 33.06 33.42 34.82 35.16 33.66 33.45 33.64 33.07 33.47 33.26 32.95 34.47 34.19 32.07 31.89 31.57 32.13 32.01 31.11 29.77 30.67 29.50 28.20 27.72 27.75 28.48 29.72 30.38 29.73 28.99 28.81
35.84 34.55 34.04 33.72 33.05 33.14 32.89 32.51 31.90 31.81 30.81 30.55 30.85 31.24 32.03 32.97 33.77 33.22 32.27 31.87 31.71 32.81 33.66 33.97 32.82 31.94 31.62 31.06 31.65 31.69 31.02 31.75 29.91 28.19 27.34 27.55 28.74 29.76 29.74 28.97 28.56 27.98 27.63
31.90 31.24 31.34 30.84 30.41 30.57 30.81 30.33 29.80 29.68 29.41 28.98 28.93 29.19 30.26 29.90 30.75 31.80 32.72 32.51 31.83 32.47 32.27 33.20 32.37 31.49 31.45 31.63 31.13 31.30 32.75 32.73 30.82 29.16 28.78 29.24 29.44 27.90 26.87 28.28 26.08 26.40 25.21
29.13 28.48 28.34 28.55 28.20 27.96 28.25 28.36 28.41 29.47 28.66 27.59 27.84 28.05 28.47 28.36 29.50 30.29 31.13 31.50 32.45 31.97 32.47 32.64 31.86 30.62 28.98 29.62 29.53 30.02 31.01 30.49 29.88 29.90 29.23 28.22 26.99 26.74 26.41 27.81 25.75 25.30 23.43
26.93 26.93 26.17 26.63 26.67 26.60 26.30 26.53 26.94 26.84 27.20 27.87 28.11 27.81 27.05 27.26 27.48 28.43 28.79 30.29 32.00 32.05 31.18 30.29 30.03 30.39 29.27 29.13 28.68 28.02 29.46 29.12 29.55 28.81 28.26 27.39 26.67 26.18 26.01 26.35 25.60 24.52 23.24
25.24 24.93 25.27 24.74 24.89 24.24 24.67 24.70 23.89 26.23 25.73 25.81 25.43 24.86 23.66 24.44 25.32 25.78 25.37 26.22 29.50 31.00 30.54 30.93 30.14 30.29 30.29 30.37 29.75 28.33 28.39 29.85 30.06 28.69 27.86 27.57 26.80 26.06 25.44 25.58 25.04 24.21 22.96
24.22 22.44 23.81 24.25 24.25 24.39 24.23 23.91 23.56 22.19 21.31 22.41 23.23 22.54 21.17 21.80 22.34 22.21 21.95 23.42 22.46 22.67 21.46 22.79 26.04 29.62 30.77 29.99 30.00 29.41 29.41 29.50 28.70 28.11 27.71 27.79 27.24 26.32 25.59 24.53 24.65 23.38 22.86
23.66 22.21 22.33 23.11 23.08 22.26 22.75 21.67 21.75 20.31 20.13 19.57 20.26 19.93 18.82 18.85 19.84 19.47 19.19 17.80 17.07 17.74 18.42 18.90 20.44 21.75 22.32 25.18 30.51 30.40 30.37 29.66 28.93 28.30 27.53 27.14 27.25 26.17 25.70 25.47 24.78 20.88 20.09
21.51 19.20 19.60 21.05 20.26 19.87 19.43 18.57 18.20 17.40 17.72 16.89 16.48 15.42 16.60 16.20 16.19 16.33 16.69 15.69 15.07 15.25 15.08 14.95 16.88 18.23 19.23 20.92 22.36 23.86 30.08 29.28 28.31 27.49 27.32 27.73 27.60 26.40 25.66 24.87 24.18 23.08 21.75
19.03 18.45 15.82 18.17 17.32 17.17 16.45 16.06 15.41 14.42 14.13 13.87 13.83 13.78 10.66 12.46 13.06 13.52 14.13 13.83 13.15 13.27 13.43 13.82 14.52 15.80 17.03 18.36 18.43 19.09 19.09 25.45 28.45 27.43 27.15 26.86 26.94 25.09 25.95 25.78 25.03 22.28 21.64
15.27 14.91 15.54 15.10 14.99 14.13 12.72 13.68 13.51 11.53 11.39 11.13 11.32 11.83 9.24 12.62 11.96 11.42 12.44 12.64 12.11 12.56 12.97 12.54 12.58 13.78 14.39 15.35 15.24 15.77 17.23 19.26 21.10 27.08 27.11 26.48 26.08 25.16 25.04 24.38 23.32 22.48 20.91
12.80 11.57 12.51 12.54 11.58 9.82 10.16 9.85 10.47 9.77 9.21 9.41 8.92 8.53 9.11 9.41 9.64 9.60 9.64 11.09 10.54 10.61 11.20 10.54 10.95 11.01 12.42 12.47 13.99 14.19 14.67 16.33 17.11 17.25 17.75 26.99 25.41 25.64 24.42 23.48 22.23 20.80 20.18
10.90 9.87 9.21 9.03 8.25 7.63 7.22 6.82 7.21 5.27 5.23 6.13 6.62 6.76 6.64 6.86 7.69 7.35 7.72 9.47 8.28 8.98 8.98 8.48 9.06 9.39 10.14 9.90 11.37 12.42 14.28 14.83 14.46 15.36 16.37 19.09 26.29 25.26 24.14 23.20 22.10 20.57 19.97
10.10 8.81 7.55 7.10 6.22 5.52 4.96 4.88 4.74 4.10 3.93 3.98 4.42 4.74 4.92 5.11 5.76 6.09 5.97 6.76 6.03 6.12 5.82 6.38 7.81 8.17 8.02 7.63 8.25 9.17 10.86 10.59 11.20 12.69 15.37 16.50 26.11 25.11 23.35 22.76 22.01 20.19 18.87
10.03 8.14 7.16 6.72 6.29 5.36 4.50 3.14 2.88 2.61 1.33 1.55 2.30 2.53 2.52 3.09 3.78 4.13 3.85 4.33 4.63 3.66 3.81 5.86 6.05 5.85 5.91 7.66 8.86 8.76 6.85 7.07 10.20 11.29 13.59 14.70 24.92 24.24 23.18 22.67 20.59 19.80 18.31

GFSGL_sfc_wetblb_072.txt.gz
Wetbulb
62.62 60.84 59.96 60.61 59.62 59.08 58.30 57.31 56.02 54.00 51.79 49.89 47.79 47.88 51.08 48.64 48.75 48.35 47.93 47.39 46.31 46.30 46.54 45.68 45.03 45.60 44.69 44.31 43.85 42.98 41.44 40.80 37.21 39.43 41.34 42.07 40.68 39.75 39.60 40.38 39.93 38.76 38.06
62.43 60.51 59.74 57.68 55.42 52.58 52.65 52.21 52.08 49.90 49.35 49.03 49.22 49.46 48.09 48.15 48.28 47.41 46.65 46.27 45.71 45.14 45.29 45.18 44.39 43.98 44.03 43.88 42.88 41.75 41.28 41.33 38.80 35.86 39.30 39.45 39.31 39.38 37.82 38.19 37.58 37.32 36.80
59.76 57.15 52.81 51.84 51.68 51.18 49.71 49.88 48.71 48.75 49.37 47.13 47.64 47.53 47.41 47.14 46.88 47.05 46.36 45.80 45.46 45.12 44.99 44.54 44.12 44.03 42.90 42.76 42.25 41.23 41.06 40.24 39.89 36.84 36.30 38.74 37.36 37.76 36.16 37.52 36.92 36.81 36.18
55.72 53.70 52.06 50.82 49.79 48.32 47.42 46.31 45.34 44.68 44.01 43.77 45.65 46.22 45.96 46.64 46.21 45.82 45.24 44.74 44.76 44.38 44.46 44.31 43.97 43.49 42.56 42.08 41.11 40.61 40.01 39.15 37.93 35.50 34.45 34.51 35.55 37.24 36.58 34.58 33.84 35.52 34.50
52.26 50.25 49.33 48.86 46.95 44.52 43.90 43.24 44.92 44.48 43.46 43.82 46.01 45.72 46.33 45.93 44.70 44.54 43.79 43.50 43.20 42.94 43.46 43.46 43.71 42.68 40.45 39.44 39.64 39.46 39.20 36.56 34.56 33.35 33.09 33.35 33.80 34.19 33.10 35.10 33.05 33.19 34.02
51.79 49.99 49.19 45.73 43.14 42.23 41.28 42.89 42.22 42.00 43.40 45.72 45.90 46.61 45.43 43.58 38.23 37.10 37.69 41.88 41.81 41.48 41.44 42.24 42.66 40.67 39.05 35.75 35.56 35.08 35.92 35.56 34.25 35.10 33.57 32.04 33.55 33.94 34.36 33.36 32.40 30.03 28.26
48.72 46.76 45.10 42.11 41.01 41.98 41.97 41.68 41.57 43.65 46.27 46.68 45.67 44.16 43.40 43.77 37.52 36.57 35.99 40.13 40.34 40.69 40.83 40.80 40.60 40.68 38.87 39.85 37.12 34.63 34.19 34.03 32.82 35.74 33.95 33.27 32.39 34.07 33.45 32.24 31.32 30.61 30.12
47.28 44.65 42.89 41.27 40.14 41.20 43.86 42.77 44.23 46.62 44.92 44.18 43.70 43.66 42.86 42.41 36.74 35.86 35.08 39.58 40.13 40.51 40.76 40.80 40.41 40.40 40.38 39.37 39.03 37.39 36.53 36.20 35.35 34.49 34.98 35.12 34.49 34.54 33.67 32.85 31.52 31.05 31.16
43.03 40.53 40.26 40.69 41.57 44.13 42.91 44.78 44.80 44.03 43.38 42.68 42.47 42.11 41.67 41.86 36.54 35.11 35.22 39.56 39.23 39.63 40.23 40.53 40.28 39.81 37.43 36.79 36.84 35.10 34.67 34.57 35.07 33.73 33.06 32.57 30.92 29.92 30.06 31.59 28.48 27.42 26.67
40.72 41.42 43.83 44.56 40.63 43.39 44.10 42.88 43.60 42.79 41.23 41.61 40.85 41.45 39.30 40.49 37.45 35.74 35.95 38.19 37.20 37.96 38.86 39.01 36.12 36.45 34.39 33.38 35.45 35.41 33.52 33.25 34.02 34.24 33.51 31.97 31.19 32.21 29.74 30.50 29.86 26.67 26.63
43.46 41.31 41.37 43.04 43.21 42.35 41.63 42.42 42.19 41.57 40.94 40.32 38.20 38.99 38.72 38.34 37.85 34.99 34.52 35.12 34.72 34.93 34.05 34.75 36.10 34.29 33.06 33.21 32.77 34.19 34.12 35.15 33.21 34.12 33.04 32.83 32.54 32.92 32.62 31.79 31.54 30.13 27.73
42.64 42.20 41.43 41.02 39.35 40.19 40.48 41.45 40.65 39.49 37.15 35.23 35.27 35.15 36.77 36.77 33.94 33.73 33.17 32.87 32.71 33.32 32.70 34.24 35.58 33.77 34.18 33.12 32.97 32.44 32.31 32.26 34.96 34.09 32.54 31.29 31.02 31.41 31.59 32.60 32.57 32.39 31.90
40.48 39.17 38.24 37.67 37.38 37.54 38.36 36.90 36.31 35.83 34.55 33.45 32.98 32.96 33.40 34.12 34.84 32.45 31.83 31.57 31.25 33.19 34.64 34.20 32.08 32.21 32.45 32.54 31.82 31.54 31.18 32.94 32.86 32.50 31.59 31.38 31.91 32.94 32.84 32.44 32.18 31.50 31.00
37.37 36.39 36.17 34.10 34.73 34.94 35.45 34.92 34.75 34.01 32.52 31.13 30.87 30.77 31.21 31.70 32.41 30.50 29.76 31.69 31.67 32.83 33.09 34.60 33.89 31.98 31.93 32.51 33.61 32.91 33.71 33.90 33.17 32.81 32.23 32.74 32.70 32.86 31.12 30.98 29.23 29.22 28.30
34.17 33.26 33.16 33.33 33.00 32.87 32.63 32.52 32.33 31.83 29.50 29.58 29.95 29.84 28.29 27.69 26.66 26.93 26.60 27.06 28.98 30.52 31.37 34.18 34.05 33.97 32.78 32.83 33.16 32.97 33.45 32.02 31.03 32.72 32.10 31.25 31.54 31.37 30.21 31.09 29.68 28.06 26.07
31.81 31.79 31.05 31.99 31.68 31.48 32.06 31.38 27.05 26.84 26.76 26.50 25.83 25.94 26.59 24.89 24.18 24.94 24.48 24.72 26.27 26.42 30.96 31.27 32.41 33.28 32.34 32.00 32.30 32.14 32.44 31.38 31.08 31.50 31.41 30.16 30.03 30.15 29.27 29.89 29.30 26.78 25.67
30.66 29.55 29.31 29.27 30.18 30.08 30.66 30.28 29.08 28.54 25.98 24.93 23.93 23.41 22.27 21.54 22.49 22.88 22.76 23.38 25.65 26.07 26.62 25.85 26.53 27.57 28.86 28.95 32.36 32.42 32.20 32.29 32.95 32.20 31.52 30.15 29.70 29.32 29.82 28.42 28.23 27.06 25.84
27.32 24.75 29.36 29.62 30.02 30.06 29.54 28.38 27.99 26.38 25.03 26.26 25.07 22.31 21.67 20.70 21.18 21.57 21.49 23.23 23.89 24.50 23.84 23.01 23.14 23.98 24.40 25.06 26.61 26.97 31.28 32.38 32.42 31.71 31.65 31.50 30.82 29.76 28.94 27.05 27.05 26.80 26.09
27.45 26.93 27.57 28.19 27.38 25.97 27.31 26.43 26.30 24.51 24.02 24.00 24.26 23.63 22.42 19.42 20.59 21.29 21.24 21.96 20.31 20.60 20.91 21.22 21.46 21.15 21.78 22.68 24.31 24.52 26.08 28.66 31.40 31.49 31.44 30.52 30.94 30.02 28.51 28.03 27.57 26.44 25.65
25.07 21.45 22.95 26.24 25.82 25.21 24.88 23.61 23.68 22.33 21.83 22.09 21.58 21.02 20.21 18.14 20.58 20.80 21.16 20.71 19.30 18.81 18.77 18.59 19.20 19.32 19.83 20.80 21.95 22.12 22.55 24.30 25.59 30.34 30.87 30.55 30.94 30.41 28.77 28.09 27.78 27.07 25.30
25.74 23.83 18.91 23.89 23.03 22.03 21.69 21.48 21.66 20.47 19.73 19.44 19.83 19.59 12.34 13.98 18.46 18.66 18.50 18.28 17.97 17.20 16.94 17.02 17.05 17.75 18.21 18.72 18.67 19.20 19.88 21.12 22.30 24.00 25.35 30.29 30.51 29.77 29.32 29.06 28.49 27.31 26.02
21.47 21.32 21.38 20.69 20.30 20.49 18.76 19.34 19.34 18.23 17.64 17.19 17.62 17.78 13.87 16.70 17.34 17.12 17.03 16.81 16.99 17.18 17.10 17.07 16.14 16.05 16.57 16.63 16.70 16.27 16.52 17.77 19.93 20.48 20.77 21.82 26.22 30.06 29.60 28.60 27.85 26.91 25.52
19.52 18.56 18.93 18.91 17.84 15.35 17.21 16.50 16.46 16.28 15.22 15.28 15.54 15.39 15.33 15.38 14.55 15.28 14.90 15.05 15.52 15.43 15.49 15.16 14.65 14.34 15.79 15.92 16.35 15.94 14.95 15.32 17.62 18.37 17.21 17.83 20.34 24.79 29.18 28.35 27.60 26.35 25.15
17.39 17.34 16.10 16.16 16.10 14.27 14.96 14.12 14.37 12.48 12.26 13.22 13.73 13.99 13.63 13.16 13.07 13.24 13.28 13.98 13.37 13.61 13.61 13.11 12.61 12.20 13.39 13.38 15.04 15.32 15.16 15.68 15.33 14.94 15.50 16.01 16.50 19.69 26.88 28.18 27.76 26.77 25.65
17.55 16.47 15.47 14.48 14.07 13.43 12.61 13.10 12.74 12.48 12.14 11.82 11.72 11.81 12.04 11.80 11.60 12.33 12.40 11.98 10.74 11.23 11.56 11.00 11.57 12.23 11.90 11.37 11.15 11.75 13.13 12.52 11.79 10.82 12.65 16.14 16.39 18.27 19.83 27.74 27.74 26.36 25.20
15.82 14.73 14.15 13.53 13.25 12.79 12.17 11.24 10.89 10.46 9.59 9.76 9.36 9.54 9.67 9.76 10.14 10.58 10.12 9.53 9.65 8.86 8.47 10.98 11.60 11.15 10.93 11.44 12.29 12.68 11.04 9.79 9.69 9.63 12.08 13.62 15.02 17.88 21.37 26.95 26.97 26.15 24.23

GFSGL_sfc_wetblb_075.txt.gz
Wetbulb
64.54 64.31 62.14 61.25 62.00 60.81 60.16 58.03 57.59 56.75 55.78 54.12 50.14 47.91 47.65 48.33 49.12 48.04 49.07 49.09 48.34 47.94 47.75 47.04 46.63 46.78 45.38 45.30 45.14 44.48 42.82 42.70 39.22 41.52 43.02 44.27 43.53 43.31 43.10 43.22 42.56 41.03 41.37
64.33 63.69 61.08 60.64 57.36 55.48 53.42 53.51 53.42 51.55 51.12 48.99 48.39 49.61 50.83 49.84 48.64 48.29 48.04 48.04 47.16 46.26 46.83 46.72 45.79 45.36 45.27 45.20 44.89 43.96 43.48 43.37 41.09 39.02 41.64 41.79 42.13 42.61 41.82 41.06 39.63 39.73 40.04
63.66 60.70 57.02 53.43 52.62 51.67 51.41 50.81 50.18 48.96 48.95 49.91 49.04 47.18 46.77 47.31 48.23 48.38 47.86 47.64 47.09 46.86 46.47 45.30 44.83 44.68 44.41 44.96 44.66 43.63 43.50 42.15 42.25 40.42 39.53 41.81 41.07 41.06 40.14 39.82 39.02 39.54 38.89
58.58 57.12 54.04 53.09 51.68 50.20 49.81 50.10 49.33 47.79 46.43 45.70 46.33 46.56 46.59 47.45 47.26 47.45 47.60 46.76 45.94 45.26 45.14 44.76 44.28 43.84 43.33 43.96 43.50 43.59 42.65 41.74 41.03 39.50 38.78 37.80 37.76 38.87 38.72 36.70 35.85 37.64 36.53
57.03 54.60 51.82 50.58 49.78 50.77 49.06 47.91 46.79 45.43 45.01 46.34 45.22 45.18 46.93 46.96 47.07 47.41 46.21 44.67 43.49 43.18 43.63 43.65 44.17 43.24 41.45 41.22 41.79 42.02 41.29 39.64 38.90 37.82 36.44 35.48 35.88 35.68 34.86 36.31 34.75 35.56 36.18
52.45 50.07 50.08 50.01 48.88 46.10 44.61 44.85 44.87 44.50 44.16 44.38 45.44 46.78 47.02 47.28 38.06 38.55 37.76 41.50 41.52 41.21 40.98 41.78 42.54 41.21 40.78 37.59 37.50 36.56 37.62 37.95 36.86 35.71 35.11 34.14 34.86 35.96 36.38 34.77 33.74 32.33 30.12
50.99 49.66 48.34 47.22 45.29 44.10 42.95 42.85 43.00 44.23 44.56 46.14 46.84 47.35 46.31 45.54 38.96 37.78 36.54 40.34 39.97 40.14 40.39 40.85 40.46 41.06 40.18 42.04 38.84 35.37 35.14 34.58 33.00 36.75 34.45 34.47 34.73 36.03 35.35 33.44 32.58 32.13 31.12
47.72 46.86 46.41 45.55 44.61 44.47 44.73 45.03 45.33 46.08 46.81 47.47 46.10 45.09 44.47 43.77 38.78 37.27 36.01 39.87 40.01 40.44 40.86 41.00 41.58 41.79 42.06 40.47 40.41 39.85 39.83 39.32 37.73 36.58 35.95 36.00 36.72 36.97 35.76 34.56 33.39 32.30 32.41
47.21 47.64 47.02 46.12 44.27 42.59 43.58 45.37 46.68 46.90 45.26 44.81 44.22 42.99 42.30 42.39 36.66 35.83 35.73 40.09 39.64 39.47 40.15 40.02 39.93 39.92 38.08 36.65 37.46 37.54 37.28 37.57 38.00 35.69 35.68 35.61 33.75 31.83 30.81 32.76 30.92 29.52 28.56
47.07 45.62 44.78 43.92 45.28 45.87 45.45 46.03 45.38 44.78 43.18 42.62 41.78 41.99 39.02 40.95 35.99 35.41 35.60 36.78 35.52 35.78 36.38 36.58 34.43 34.75 32.89 33.74 35.63 35.40 34.10 34.17 34.55 35.84 36.30 34.65 33.44 33.68 31.17 31.65 31.51 28.58 27.80
45.78 45.68 46.25 45.78 44.76 44.67 44.56 43.91 42.78 42.09 41.53 41.36 39.52 39.55 38.53 37.80 37.49 34.31 33.80 33.60 33.18 33.20 32.78 33.68 35.45 32.98 32.79 33.59 33.86 34.39 33.50 34.87 33.80 34.66 35.08 35.18 35.45 34.48 34.42 33.70 32.83 31.24 28.52
45.66 44.37 44.54 43.84 42.77 43.28 42.66 42.10 41.37 40.91 39.43 37.30 35.91 35.81 37.87 37.40 34.15 33.42 31.74 31.09 30.86 31.40 31.55 34.15 35.01 33.76 33.27 32.58 32.49 32.59 32.62 32.13 33.67 32.42 33.08 33.31 33.39 33.66 34.34 34.47 33.68 33.36 33.29
43.92 42.68 42.72 41.88 40.90 40.82 40.32 39.23 38.11 37.39 35.91 35.28 34.10 33.95 34.43 34.79 35.56 31.48 30.30 29.46 29.53 30.03 31.83 32.38 31.93 32.75 32.91 32.98 32.37 31.85 31.55 32.79 32.19 31.41 32.10 33.10 33.67 34.82 34.70 33.94 34.01 33.88 33.46
42.24 41.00 40.17 38.92 37.79 37.43 36.97 36.50 36.34 35.70 34.45 32.74 32.56 32.24 32.51 32.14 32.41 30.65 28.92 29.59 28.83 29.45 30.09 31.35 30.45 30.52 31.70 32.27 32.56 34.51 33.41 32.99 32.72 32.23 32.56 33.75 34.75 34.07 33.18 33.67 31.90 31.59 29.94
38.80 37.53 36.92 35.80 35.78 35.06 35.07 34.02 33.83 31.24 29.90 30.84 31.18 30.28 29.15 27.85 27.76 25.10 25.57 25.69 26.33 26.72 27.81 30.24 31.69 31.60 31.67 32.47 33.04 33.74 34.01 34.00 33.09 33.19 33.05 32.78 32.66 32.47 32.38 33.21 32.02 30.10 28.49
35.43 35.08 34.39 34.24 33.81 34.00 33.79 32.12 27.87 28.16 27.25 26.34 25.32 25.46 26.88 24.42 23.26 23.66 24.03 23.99 24.18 25.95 26.02 28.46 27.05 27.56 26.63 27.41 29.82 29.41 32.84 32.90 33.57 33.28 33.03 31.77 31.41 31.34 31.02 31.64 31.06 29.63 28.01
33.34 30.87 30.13 31.49 31.85 31.80 31.82 31.39 31.08 27.52 27.03 26.38 24.93 23.44 22.67 22.06 22.16 22.57 23.07 23.08 24.37 25.23 25.58 25.51 24.41 23.82 24.30 25.14 26.00 26.81 27.25 28.85 31.01 32.93 32.30 32.35 32.02 30.98 30.64 30.24 30.12 29.03 27.89
27.76 27.65 30.95 31.02 31.04 30.67 31.05 29.77 29.58 28.19 27.00 28.03 25.55 24.28 23.47 22.25 21.56 21.95 22.58 23.08 24.41 24.57 24.02 23.09 22.71 22.40 22.16 21.92 22.85 23.42 24.70 25.83 28.00 27.42 32.49 32.52 32.26 31.67 30.53 29.64 29.19 28.35 27.70
28.33 27.64 28.75 28.95 28.08 26.79 27.83 27.63 27.11 26.29 25.59 25.52 26.61 26.25 26.13 22.12 20.84 22.87 23.03 23.02 21.63 21.45 21.76 21.23 21.40 21.07 20.67 20.54 21.85 22.31 23.32 23.64 24.40 25.56 27.03 30.28 31.90 30.75 30.24 29.83 29.42 27.96 27.81
24.53 23.23 23.93 26.62 26.32 25.77 25.75 25.00 24.98 24.58 23.90 24.00 23.82 23.97 23.93 20.29 18.55 21.67 22.67 22.01 20.60 20.15 19.84 19.02 19.45 19.26 19.16 19.16 19.99 20.65 20.79 21.11 21.99 23.18 23.94 25.70 28.69 30.54 30.06 30.11 29.37 28.34 26.81
26.21 24.28 20.52 24.09 23.93 23.72 23.53 23.38 23.23 23.30 22.29 22.05 22.04 22.67 14.78 16.43 16.76 19.82 20.11 19.78 19.40 18.47 18.23 17.93 17.97 18.36 18.57 18.60 18.15 18.25 17.93 18.38 19.20 20.62 21.33 21.00 21.85 23.53 29.47 30.57 29.82 28.69 27.69
22.45 22.22 22.26 22.02 21.93 22.54 21.76 20.79 21.40 20.83 20.71 20.09 20.32 20.55 18.33 17.93 18.69 18.22 18.34 18.55 18.32 17.82 18.63 17.57 16.64 17.11 16.85 16.48 16.60 16.52 15.67 16.16 17.36 17.40 18.28 18.07 19.08 20.45 23.18 28.62 29.12 29.19 27.49
20.98 20.34 20.72 20.85 20.32 18.91 19.79 20.09 19.41 19.44 18.73 18.11 18.03 17.62 17.70 17.32 16.91 16.58 16.45 16.99 16.77 16.60 16.34 16.11 15.36 14.79 15.62 16.09 16.41 15.72 14.89 15.21 15.91 16.93 14.93 14.81 15.70 18.23 19.22 20.98 26.88 28.41 27.53
20.11 19.83 18.93 18.74 19.32 16.50 18.25 17.85 17.48 16.57 16.65 16.38 16.17 16.01 15.71 15.57 15.35 15.10 15.29 15.87 15.20 14.84 14.75 14.64 14.41 13.53 13.96 14.62 15.03 15.36 15.09 15.67 15.85 15.38 14.42 12.35 12.65 15.26 18.43 19.62 20.84 28.67 27.85
19.96 18.96 18.40 18.00 17.64 17.15 16.84 16.57 16.37 15.91 15.31 14.69 14.21 13.95 13.63 13.74 13.62 13.95 14.01 13.85 13.18 12.76 12.90 12.86 12.81 13.29 13.75 13.07 13.16 13.28 14.08 14.16 14.18 12.31 12.18 12.33 12.06 13.36 15.13 17.58 19.53 23.99 27.79
18.37 18.06 17.02 16.83 16.26 16.03 15.24 14.48 14.12 13.75 12.97 12.82 12.23 12.11 12.05 11.82 11.77 11.60 11.71 11.35 11.21 11.01 10.12 11.52 12.44 11.69 12.03 12.67 13.53 13.90 12.51 11.48 10.74 9.97 10.86 11.63 11.94 12.82 15.47 17.54 20.15 22.10 27.17

GFSGL_sfc_wetblb_078.txt.gz
Wetbulb
63.14 63.30 62.92 62.98 62.09 61.07 60.15 58.74 57.75 55.37 53.16 49.91 49.69 48.57 47.81 47.50 47.70 46.55 46.79 46.87 46.90 46.41 45.79 45.04 44.02 45.32 42.40 41.61 41.14 40.29 39.02 37.76 34.66 36.43 37.20 37.81 37.06 37.14 38.70 38.47 40.39 37.58 38.61
63.21 63.20 62.02 60.99 60.33 59.20 56.77 54.59 52.68 50.71 50.15 49.15 48.96 48.52 48.54 49.64 50.01 47.64 46.22 46.46 45.79 45.44 44.98 44.59 44.47 45.20 41.55 41.43 40.48 39.09 38.54 38.09 36.45 34.83 36.15 35.65 35.71 36.48 36.77 36.29 38.79 40.07 36.97
62.19 61.35 60.01 57.98 56.96 55.31 54.02 52.70 51.53 50.11 49.54 49.14 48.94 48.84 48.34 47.73 47.09 46.60 46.28 46.18 45.45 45.27 43.98 42.86 42.14 41.57 40.01 39.75 39.63 38.66 38.26 40.49 36.65 33.74 34.94 34.86 34.45 34.97 33.16 33.53 34.99 35.16 38.13
60.90 58.80 56.11 54.90 53.53 51.89 50.65 49.99 49.48 49.45 49.14 48.46 48.19 47.45 47.09 46.93 46.76 46.96 46.64 45.15 43.68 42.78 42.75 41.65 41.14 40.91 39.58 38.82 39.21 37.61 38.34 35.41 34.21 32.84 32.62 32.26 31.59 32.44 31.71 30.29 31.33 32.90 33.44
56.51 54.52 51.52 50.51 50.45 49.98 49.37 48.99 48.70 48.07 47.11 46.61 46.63 46.77 46.76 46.37 46.68 45.02 44.53 41.45 39.11 38.97 39.93 41.19 40.54 40.99 40.81 38.85 38.09 35.93 35.59 35.56 34.83 33.38 32.58 31.87 30.56 30.17 29.38 30.50 32.21 30.65 31.57
51.78 49.82 50.14 49.95 49.19 48.85 47.79 47.22 45.47 45.06 45.28 45.44 45.42 45.43 44.47 45.51 37.29 38.23 39.32 37.98 38.50 38.19 37.32 38.01 38.62 39.23 38.63 37.67 36.74 36.50 36.04 34.39 33.76 33.52 33.62 32.14 30.55 29.26 29.94 29.96 32.69 30.41 25.77
49.33 49.36 49.37 47.49 46.23 44.98 45.25 45.20 44.28 43.61 43.47 43.35 43.79 43.87 44.56 44.02 38.47 38.20 36.46 37.83 37.02 36.62 36.08 36.29 37.48 39.72 37.94 38.34 37.11 36.03 34.69 35.02 33.19 34.70 33.11 32.11 31.79 30.79 29.86 28.94 29.43 27.63 25.95
48.42 47.46 46.64 46.08 44.86 43.72 43.56 43.21 42.32 43.32 42.80 43.32 44.78 44.50 42.33 41.84 38.76 37.36 35.86 36.59 35.90 36.55 37.06 37.07 36.42 35.80 35.95 34.83 32.98 31.78 33.20 34.84 35.58 34.94 33.56 33.31 34.31 33.43 30.57 30.24 29.19 28.19 27.34
46.66 46.06 45.38 44.38 43.37 43.17 43.06 43.81 43.93 44.54 45.23 43.53 43.02 41.86 39.96 37.36 36.04 34.73 35.91 36.01 36.00 34.32 35.55 34.84 34.52 32.19 33.99 34.58 30.29 29.50 30.16 31.67 35.67 36.67 36.66 36.11 36.10 35.67 31.87 28.34 24.71 24.11 22.60
46.28 46.27 46.56 45.69 44.22 43.38 43.73 44.69 45.81 45.24 44.10 42.64 40.28 40.06 37.74 34.96 34.62 33.91 33.55 31.59 29.92 29.66 31.16 32.33 32.82 32.03 32.51 32.70 29.91 29.33 28.46 29.50 30.55 32.85 32.61 34.16 35.33 33.89 32.43 29.29 27.74 25.10 25.09
47.63 46.17 44.36 43.72 43.83 45.35 45.12 43.85 42.53 40.87 40.14 36.06 34.63 34.23 35.04 34.78 32.90 33.37 32.43 29.38 28.37 27.83 27.84 28.33 29.23 32.33 32.88 33.06 32.61 30.34 29.95 31.02 30.38 29.92 30.56 31.70 32.95 34.18 29.91 29.45 29.65 28.32 25.58
44.81 44.58 45.26 45.00 44.39 43.73 41.95 40.35 40.09 38.96 35.97 33.55 31.69 32.23 33.17 32.84 31.15 31.08 30.30 29.08 28.55 26.56 26.64 27.39 28.52 31.15 31.20 31.31 31.56 32.13 32.31 31.13 31.03 29.92 29.80 29.69 30.05 31.79 33.64 33.04 31.25 29.96 29.20
44.58 43.80 42.36 42.06 41.91 41.66 40.39 38.24 35.18 35.15 32.83 32.22 31.22 30.87 31.29 30.94 29.05 30.05 29.11 28.80 28.81 25.74 26.40 27.88 29.51 29.58 29.90 29.49 31.44 32.22 31.46 29.96 30.72 29.37 29.23 28.98 29.32 32.27 32.86 32.56 33.21 32.56 30.37
42.05 40.97 40.21 38.53 37.62 36.69 35.91 35.27 33.27 32.53 31.67 30.54 30.21 29.11 28.95 28.72 26.38 25.18 24.92 24.39 26.06 25.19 24.86 24.62 25.01 26.56 27.94 29.37 28.53 29.91 29.16 31.69 31.31 30.00 29.64 29.44 30.00 30.73 32.44 32.41 29.99 30.08 28.81
39.83 38.11 35.86 35.19 34.40 32.74 29.99 29.69 29.29 27.96 29.06 29.39 28.43 28.31 26.24 24.76 23.34 23.53 23.34 22.94 21.95 23.44 21.65 23.35 23.90 24.61 24.43 24.43 25.01 26.29 26.90 27.96 27.34 30.09 29.73 28.87 29.04 28.52 28.90 28.78 27.98 29.70 28.38
35.74 33.88 32.90 32.35 31.52 31.53 29.33 27.73 29.85 27.95 27.66 26.90 25.93 26.02 26.19 24.22 23.05 23.21 23.75 24.13 24.26 24.45 21.77 20.68 20.50 17.14 18.18 21.16 21.95 22.66 23.34 23.65 24.32 25.18 26.70 30.56 28.79 27.14 26.56 27.62 27.45 28.75 26.08
29.90 29.59 29.97 30.70 29.98 29.60 30.19 30.34 26.99 26.63 27.31 26.57 25.75 24.98 23.80 22.74 22.52 22.80 22.96 23.59 23.77 24.06 19.78 19.18 15.40 15.60 16.43 19.92 20.79 20.40 20.62 21.96 23.34 23.42 23.27 25.29 28.45 28.08 26.33 27.48 28.03 28.67 27.06
28.69 29.70 29.36 29.19 28.81 28.87 28.12 27.98 28.27 27.69 25.70 26.04 26.02 24.98 24.83 22.71 22.00 22.68 22.95 23.02 20.79 21.75 20.34 18.65 15.19 16.64 17.81 18.35 18.46 18.29 18.87 19.46 20.20 20.43 20.62 22.29 23.97 25.20 28.61 28.53 28.02 26.47 27.03
26.86 27.09 27.90 27.65 25.55 25.64 27.28 26.73 26.57 26.18 25.44 24.90 25.18 24.83 22.37 21.85 21.42 21.86 23.46 20.98 16.90 17.58 18.93 18.14 16.30 16.78 16.74 17.36 17.40 17.57 16.90 17.52 16.76 17.52 18.68 20.52 20.72 21.26 22.08 27.88 28.17 27.91 26.15
23.49 24.03 24.89 25.66 25.61 25.15 25.24 24.62 24.12 24.12 23.75 23.28 22.83 22.38 21.21 18.45 15.82 13.51 16.62 16.03 14.68 16.16 15.43 16.06 16.29 16.44 16.00 16.61 16.11 15.71 15.46 15.35 14.98 15.71 15.78 18.04 18.40 18.06 17.88 20.58 24.49 27.67 25.95
24.33 22.22 21.90 23.82 23.63 23.09 22.71 22.36 22.10 21.80 21.35 21.06 20.55 18.40 14.02 14.84 13.15 14.09 18.03 14.99 16.83 16.42 11.22 14.99 16.56 12.97 14.09 14.00 14.35 13.68 13.79 13.27 13.42 14.23 14.79 14.28 14.79 14.43 16.16 17.92 19.69 27.07 26.46
22.39 22.13 21.97 21.61 21.21 21.56 19.24 19.17 19.79 19.55 19.25 18.87 18.42 18.45 15.49 14.57 17.08 16.43 15.28 13.10 15.50 12.96 14.02 14.20 13.49 13.54 13.15 13.16 11.86 11.47 11.51 10.71 12.37 13.44 12.27 12.26 12.46 12.65 13.99 15.45 16.70 18.50 26.73
20.80 20.38 20.46 20.31 20.05 18.88 18.51 19.39 18.67 17.85 17.39 15.86 15.67 15.74 15.48 14.93 14.81 14.88 14.49 13.34 13.72 14.84 11.38 9.82 10.28 12.21 12.76 10.85 12.60 12.68 11.53 11.27 11.56 11.10 10.01 9.83 10.65 10.43 10.38 11.54 15.63 16.51 18.05
20.27 19.93 18.77 18.77 18.99 17.29 16.93 17.31 15.96 15.39 15.93 15.14 14.32 13.96 13.21 13.09 13.03 12.62 12.33 13.51 11.21 9.03 9.99 7.90 11.61 9.06 9.48 10.74 12.58 12.54 12.31 11.96 12.31 12.18 11.31 8.49 6.94 8.56 10.30 10.74 12.14 14.41 16.64
20.00 18.79 18.21 17.26 16.70 16.28 15.79 15.72 15.14 14.60 13.94 12.72 12.05 11.89 11.28 11.20 11.45 11.06 10.23 9.66 10.54 6.89 9.65 8.24 6.95 8.51 10.52 9.01 8.77 9.41 11.13 13.08 9.15 6.93 7.78 7.57 6.58 6.53 8.36 10.42 11.71 14.14 16.55
17.97 17.21 16.15 15.93 15.38 14.86 13.85 13.03 12.15 12.09 11.69 10.98 10.78 8.93 9.93 9.94 9.15 7.87 8.51 6.73 7.47 7.63 4.74 6.74 7.19 5.92 6.25 7.31 9.68 12.27 9.91 9.15 9.07 9.54 8.44 7.92 7.19 8.11 9.19 9.99 11.16 12.40 13.27

GFSGL_sfc_wetblb_081.txt.gz
Wetbulb
59.90 61.46 61.50 61.05 60.00 59.33 58.67 57.50 57.37 56.62 54.91 52.95 49.44 47.95 48.08 49.01 48.29 47.03 46.73 46.89 46.41 46.19 46.46 45.22 43.95 43.30 42.49 41.20 39.97 39.24 38.02 36.70 34.00 35.02 35.13 36.04 34.63 35.29 37.20 36.93 37.53 37.70 38.28
60.67 60.49 61.16 60.81 59.75 59.23 58.96 57.99 55.53 52.43 50.56 49.64 49.20 49.67 49.25 48.14 48.02 47.55 47.03 47.64 46.29 45.06 44.84 44.39 42.90 43.75 40.96 40.35 39.17 38.13 37.11 37.02 35.66 35.20 34.96 33.63 34.63 36.79 36.58 34.60 38.06 39.66 36.99
59.37 59.80 59.25 59.44 58.56 57.05 55.34 54.48 53.19 51.02 49.95 50.06 49.64 48.67 48.44 49.06 48.99 48.04 46.98 46.78 45.55 45.23 43.87 41.71 41.55 40.23 37.86 37.51 37.43 36.82 36.78 38.61 35.26 32.53 31.96 32.42 32.30 32.69 31.85 32.44 33.04 33.65 37.16
60.32 58.05 56.75 55.92 55.58 54.44 52.19 51.74 51.61 50.45 49.35 49.29 49.16 49.03 48.74 48.71 47.87 47.46 46.66 45.26 44.20 42.76 41.84 40.18 39.48 38.48 37.40 36.53 36.50 35.42 36.22 34.12 33.18 31.16 30.34 29.96 30.03 30.87 30.09 29.05 28.74 29.81 30.75
55.97 55.46 53.41 52.49 52.63 51.17 50.89 50.27 49.79 50.28 49.13 48.62 47.87 47.62 47.69 47.26 46.99 45.92 45.90 41.80 37.46 36.70 37.14 37.99 37.69 38.32 39.70 37.57 35.90 33.18 32.28 30.75 30.10 29.85 31.36 28.25 27.79 27.53 27.73 28.41 28.76 28.92 29.35
51.76 50.19 50.23 50.05 50.03 49.38 49.14 48.62 47.84 46.96 46.93 47.09 47.14 47.10 45.86 46.54 42.00 39.94 38.31 36.13 36.71 35.80 34.53 34.84 35.17 37.25 36.63 36.58 36.16 35.38 33.58 30.31 28.91 27.89 30.12 29.89 30.59 28.86 29.47 29.05 27.56 28.55 24.92
49.70 49.79 49.67 48.82 47.39 46.64 46.57 45.96 45.53 45.53 45.84 45.66 45.53 45.23 44.38 43.61 37.49 37.71 36.62 35.65 34.65 33.76 32.98 33.06 34.65 37.76 35.67 34.30 33.40 33.04 32.05 33.90 31.56 30.07 29.95 30.62 30.85 30.00 30.46 31.74 29.19 28.62 27.27
48.47 48.04 47.18 46.24 45.49 45.62 45.68 45.18 44.36 44.23 43.84 43.70 43.28 43.57 42.30 38.80 37.01 36.36 35.56 34.14 33.51 34.30 34.19 33.44 32.12 31.48 31.70 32.30 30.31 28.01 28.13 29.30 30.98 31.95 30.43 31.46 32.18 33.80 33.74 33.06 32.18 28.54 26.96
47.03 46.41 46.04 45.09 44.05 44.40 43.64 43.16 42.94 42.54 42.09 42.44 43.14 41.09 36.90 35.58 34.82 34.90 34.75 32.93 32.14 31.10 32.94 32.19 31.69 29.56 32.03 33.94 29.72 27.96 28.49 28.94 33.26 34.38 34.60 34.84 35.68 35.67 35.72 33.86 29.71 27.71 20.57
46.15 45.45 45.08 44.84 44.41 43.49 43.17 42.96 43.36 43.80 43.32 40.26 38.17 36.49 34.31 31.95 33.67 33.96 32.26 29.52 28.58 28.12 28.82 29.84 30.71 30.60 31.75 32.15 29.11 27.61 26.16 27.19 28.10 28.90 29.98 30.65 31.93 31.94 33.71 33.66 32.07 27.75 24.73
46.65 46.04 45.06 44.74 43.72 43.55 43.76 44.31 42.75 39.19 36.69 32.66 32.20 32.41 31.77 31.18 31.80 32.97 31.34 27.86 26.96 26.94 26.99 27.07 27.28 29.66 30.85 30.72 30.78 27.81 27.79 29.70 30.37 30.96 31.38 30.74 30.79 30.68 31.10 32.63 31.58 29.58 27.90
45.70 43.70 42.73 42.51 43.65 43.93 41.29 39.88 39.09 36.70 33.30 31.66 31.46 30.57 30.11 28.89 30.90 30.45 29.73 28.98 28.51 26.62 25.62 26.18 26.55 28.05 28.50 29.09 29.39 30.63 31.58 29.98 30.61 30.03 29.68 29.24 28.75 29.55 30.29 32.16 31.56 30.09 30.77
42.83 42.66 42.39 41.59 41.24 40.36 38.56 36.39 34.77 34.40 32.55 31.54 30.98 30.34 29.04 28.47 27.44 27.91 27.38 26.78 26.43 25.15 25.31 25.33 25.70 26.61 27.27 27.10 29.04 28.69 27.19 26.13 26.32 26.01 28.36 29.68 29.98 30.04 29.26 30.54 33.09 32.21 30.61
40.14 39.11 38.23 36.08 34.51 34.23 34.59 33.97 31.70 30.95 30.40 29.59 29.51 29.49 28.81 26.44 24.82 23.94 24.28 24.15 24.24 23.86 23.81 23.27 23.42 24.64 25.59 24.78 24.30 24.85 24.90 24.05 23.81 24.07 23.02 25.51 29.09 30.22 29.06 31.70 31.05 31.68 30.20
35.75 34.59 33.68 32.22 30.50 28.77 29.71 29.64 27.78 28.02 29.03 27.32 26.60 27.51 25.70 23.81 23.26 23.98 23.75 23.39 22.19 23.89 21.49 21.47 22.06 22.73 22.81 22.25 21.83 22.20 22.22 22.18 20.92 21.03 22.30 22.20 24.08 26.40 28.85 29.83 30.70 29.52 28.61
32.29 31.60 30.32 29.85 30.17 28.26 26.73 26.71 28.63 28.11 28.11 27.83 27.64 26.73 25.95 25.14 23.66 23.49 24.12 24.28 24.31 24.41 21.01 18.69 15.57 12.95 15.05 18.84 18.06 18.09 18.71 18.50 19.23 19.93 19.69 20.47 20.94 23.09 23.17 29.44 29.68 27.79 27.94
29.17 29.23 28.77 28.84 28.91 28.88 29.21 27.59 24.75 26.58 27.54 26.70 26.31 25.91 25.78 24.76 23.13 23.22 23.88 23.86 24.02 24.23 18.16 17.61 11.67 10.08 10.84 17.06 17.12 16.60 15.27 16.82 18.45 18.22 16.73 17.24 19.24 20.30 21.10 20.92 27.80 27.95 27.37
28.78 28.63 27.85 27.47 27.36 26.88 26.75 26.73 26.73 26.65 23.97 24.73 26.69 25.87 25.62 23.66 22.24 22.82 22.94 23.63 20.13 21.06 19.80 16.75 13.09 13.08 14.09 16.35 15.80 15.08 15.10 14.30 14.89 14.66 14.11 14.91 15.70 17.15 16.79 18.27 18.74 26.60 27.59
27.43 27.41 27.14 25.46 25.04 25.49 25.94 25.59 25.37 25.18 24.58 24.24 24.91 24.78 23.28 22.25 21.31 20.60 20.56 17.04 18.11 17.78 17.72 16.40 12.58 11.68 11.56 13.16 6.89 7.52 4.86 5.89 8.17 4.87 11.05 13.48 13.36 13.90 13.96 15.07 16.26 18.28 20.88
24.09 24.64 24.47 24.76 24.98 24.14 23.92 23.40 23.58 23.01 22.67 22.17 21.52 21.07 19.76 17.95 12.90 9.57 10.63 10.88 12.36 15.47 14.12 13.28 13.21 11.85 10.98 8.41 3.05 3.45 7.60 3.86 9.66 7.98 9.46 11.98 11.12 11.29 11.80 12.45 13.96 14.73 16.99
23.13 22.72 23.02 23.59 22.18 22.78 21.87 20.36 20.02 20.10 19.29 19.27 17.83 15.31 15.03 14.08 12.18 10.59 14.12 10.32 10.27 10.24 8.39 8.25 7.24 5.69 6.53 3.70 7.14 0.91 2.20 -0.01 4.48 8.12 11.09 9.09 9.15 8.00 10.60 11.84 11.81 13.03 16.90
21.49 21.43 21.64 21.14 20.86 18.20 18.33 18.48 17.69 17.44 17.01 15.93 14.46 16.34 13.74 9.89 8.98 11.09 11.04 6.83 1.42 4.06 7.73 9.30 5.87 6.20 5.51 9.88 9.36 -2.15 0.86 1.79 2.12 8.62 6.72 6.37 6.71 7.86 8.78 8.54 9.16 10.96 13.51
19.34 17.81 18.01 18.55 17.83 15.92 14.38 15.47 12.60 10.71 10.40 9.00 10.27 10.60 8.35 3.99 3.42 8.19 5.01 -0.89 5.93 8.00 7.47 3.68 -2.16 2.69 5.08 1.34 1.42 7.61 9.75 8.42 7.75 7.02 7.36 6.37 6.54 5.29 4.56 5.96 8.65 9.49 10.60
17.76 15.44 16.51 14.66 11.75 10.75 8.18 6.52 7.79 11.66 12.00 9.10 3.02 0.74 1.41 -0.60 -3.60 -3.25 1.09 0.65 0.79 0.14 -3.47 -1.61 2.16 4.46 4.18 3.58 8.07 7.49 8.24 7.45 9.91 10.11 3.59 5.08 3.67 4.31 4.67 4.96 6.43 8.85 10.31
12.94 10.79 7.99 5.42 3.71 1.79 2.35 5.79 1.20 -0.39 1.04 0.20 -1.61 -0.71 0.95 -3.26 1.36 -1.65 -4.87 -4.51 -2.22 -6.86 0.22 -1.72 -2.60 0.86 2.56 0.41 1.58 3.29 6.18 10.11 7.80 7.68 8.64 7.71 5.70 2.12 2.26 3.96 6.63 9.23 10.14
11.45 8.71 7.15 8.32 7.41 3.89 5.65 1.09 -0.52 -3.62 -3.42 1.05 -2.70 -6.32 -3.43 -0.57 -2.17 -7.05 -4.40 -3.28 0.98 -2.44 -4.43 -2.34 -1.61 -1.38 -0.47 2.71 4.71 8.14 6.39 6.97 7.95 8.66 9.58 8.85 6.90 5.61 4.95 5.69 7.42 7.85 8.28

GFSGL_sfc_wetblb_084.txt.gz
Wetbulb
56.91 58.64 59.45 59.93 59.97 59.27 58.44 58.17 57.94 56.68 55.84 55.24 53.72 51.01 49.39 49.10 49.31 49.21 48.33 47.30 46.58 45.89 46.90 46.63 46.21 45.56 44.59 41.98 40.35 38.74 37.35 36.02 33.31 35.12 35.15 35.72 34.11 34.68 36.35 37.00 37.01 36.01 36.83
58.08 58.44 58.92 59.57 59.71 58.94 58.34 57.52 56.68 55.60 55.16 52.90 51.77 50.35 49.54 49.55 49.25 48.27 47.06 46.83 46.00 46.19 46.28 45.76 45.30 45.46 42.46 40.78 38.69 37.55 36.54 36.05 33.79 32.98 33.74 33.25 33.30 34.43 34.22 34.14 37.12 38.32 36.49
58.98 58.52 58.59 59.02 58.44 57.94 58.13 57.08 56.60 54.29 52.48 51.88 50.91 50.28 49.09 48.68 48.72 48.04 47.89 47.52 46.83 46.21 45.46 44.73 43.72 42.26 38.85 36.73 36.42 35.85 35.36 37.26 34.69 31.82 31.77 31.88 31.96 31.66 31.60 31.91 31.90 32.13 34.75
58.48 58.37 57.96 58.47 58.68 58.35 56.66 56.86 55.66 53.41 51.36 50.94 51.30 50.19 49.29 49.33 49.05 48.57 47.77 46.90 46.28 45.51 44.35 42.62 40.88 38.24 36.17 34.83 34.58 33.54 34.06 32.02 31.51 29.78 28.65 29.16 29.24 30.31 29.18 28.79 28.86 29.01 29.84
58.03 56.45 56.14 55.32 56.46 55.62 54.57 54.07 52.07 51.47 51.24 50.60 49.71 49.30 49.47 49.16 48.75 47.86 47.13 45.39 43.62 40.53 38.71 37.03 36.33 37.43 38.63 36.01 34.00 30.91 29.86 28.32 27.82 27.02 27.34 26.93 26.83 26.84 26.91 28.71 28.12 28.34 28.32
55.62 53.28 51.62 51.04 51.40 51.76 50.90 50.12 49.92 49.74 49.44 49.04 48.41 47.83 47.28 47.85 41.79 42.91 42.83 41.49 39.38 36.63 34.15 33.71 35.61 35.99 36.06 35.42 34.71 34.44 31.83 27.97 26.58 25.72 26.27 26.64 27.55 27.64 27.79 28.42 31.31 29.95 29.73
50.98 50.30 50.12 49.54 48.49 47.80 48.47 47.87 47.22 47.21 47.57 47.06 47.13 46.99 45.99 44.65 40.53 39.54 36.96 36.36 35.14 33.33 32.02 33.24 34.70 34.60 32.93 31.26 31.72 31.92 31.08 32.49 30.30 28.31 26.39 26.52 27.41 27.66 27.96 29.32 30.66 30.55 30.21
49.66 48.90 48.60 47.89 46.61 46.70 46.67 46.34 45.89 46.25 46.06 45.70 45.32 45.04 44.47 40.88 36.88 36.60 35.09 32.97 33.60 34.28 33.39 31.69 30.47 28.97 29.87 31.11 29.69 28.43 29.14 29.40 30.33 30.44 29.58 29.29 29.20 29.43 29.02 30.90 31.14 31.99 32.58
48.43 47.98 47.73 47.08 46.22 45.95 45.32 44.62 45.13 45.31 44.73 44.01 43.83 41.80 37.97 36.22 35.45 35.23 34.71 33.32 31.59 30.32 30.97 30.91 29.92 28.52 31.41 32.44 29.05 27.85 27.19 27.77 31.37 33.37 33.81 33.88 34.04 33.86 33.91 31.90 29.48 27.61 26.67
47.51 46.35 45.98 45.80 45.43 44.63 44.19 43.97 44.13 43.45 41.62 39.66 37.59 36.66 34.60 33.98 34.31 33.77 32.28 29.75 28.08 27.39 28.38 29.13 29.93 29.04 30.19 30.82 27.55 26.47 25.65 26.83 27.41 28.45 30.05 30.57 32.46 31.91 31.88 30.99 30.71 26.83 26.40
46.23 45.70 45.42 45.51 45.13 44.67 44.15 43.57 42.50 38.72 35.72 34.28 32.82 32.85 32.33 32.45 32.81 32.58 30.97 27.54 27.48 27.14 26.74 26.67 27.03 27.95 28.10 28.59 29.19 27.81 28.23 29.85 29.39 28.38 28.67 29.49 30.67 31.11 30.96 31.19 30.89 30.08 28.75
45.49 44.33 44.68 43.93 43.45 43.51 41.48 39.65 38.25 35.63 32.58 31.54 30.83 29.66 29.74 29.92 30.59 30.28 30.06 28.87 27.48 26.48 25.03 25.66 26.07 26.38 27.22 28.10 28.60 28.18 27.51 27.02 25.38 24.42 24.19 24.23 25.30 27.00 30.44 31.18 31.20 31.78 32.38
41.74 42.02 41.85 40.89 39.66 39.32 38.44 36.96 35.32 34.19 32.24 31.52 30.33 28.42 27.09 26.93 26.74 27.35 26.74 26.42 25.66 24.66 24.93 24.84 25.28 25.99 26.42 26.75 26.36 25.38 25.13 22.81 21.54 20.40 21.09 21.15 23.23 24.64 27.05 30.40 31.08 31.36 32.04
37.04 34.38 33.94 33.13 32.80 33.01 32.76 32.87 31.81 31.12 30.76 30.82 30.39 28.39 26.88 25.26 23.98 24.34 24.60 24.77 24.40 24.21 24.31 24.11 24.01 24.73 24.82 24.78 24.22 24.07 23.94 22.30 20.94 19.97 18.78 21.31 21.39 22.27 22.70 25.48 26.09 29.79 29.42
32.70 32.01 30.99 30.56 29.96 28.15 27.67 28.17 27.78 28.81 29.88 28.55 28.00 28.24 24.23 23.40 24.11 24.10 24.34 24.00 23.89 24.38 22.51 22.28 22.56 22.24 21.27 21.14 21.36 21.20 20.76 20.22 18.46 17.97 18.23 16.37 17.87 18.68 20.29 21.60 22.79 23.77 27.99
30.35 29.95 29.74 29.37 28.41 28.22 27.58 26.99 29.13 28.61 28.53 28.52 28.16 26.92 26.38 26.07 24.66 24.52 24.97 25.06 24.73 24.61 22.33 19.68 16.88 15.29 16.49 18.20 17.53 17.20 17.68 17.06 16.83 16.99 14.36 14.92 14.58 14.99 17.20 17.63 19.93 20.28 23.26
28.36 28.77 28.90 29.23 29.37 29.27 28.68 27.64 26.14 27.86 28.46 28.03 26.72 26.59 26.02 24.85 24.13 24.33 24.21 24.18 24.47 23.77 19.49 18.20 14.13 12.74 13.45 17.10 16.73 15.57 13.19 14.17 16.50 14.22 12.55 11.95 13.57 13.94 13.67 13.62 15.90 17.27 17.92
28.75 28.26 27.71 27.39 27.17 26.99 26.56 26.55 26.31 26.15 24.64 25.36 27.16 26.73 26.58 24.61 23.08 22.48 22.40 21.57 20.40 21.40 19.84 17.74 14.90 13.94 14.70 15.06 14.36 13.56 12.64 9.90 8.78 11.56 7.84 6.96 10.77 11.56 10.08 10.90 12.42 12.55 14.58
27.07 26.22 25.58 25.45 25.65 25.63 25.75 25.37 24.78 24.29 24.01 23.65 24.14 23.39 23.91 23.42 21.74 20.52 19.65 17.13 16.86 16.94 16.82 15.25 14.51 13.16 11.09 10.87 2.18 -0.54 -3.81 -2.55 -1.99 -5.26 1.64 3.25 5.29 9.15 7.74 8.53 9.84 10.81 12.77
24.29 24.61 24.73 25.02 24.54 23.97 23.74 22.74 21.47 20.90 20.66 20.04 19.38 19.49 19.02 17.89 14.44 12.49 11.62 8.24 8.96 12.35 11.56 12.95 13.34 11.12 5.15 4.62 -2.36 -4.71 -4.89 -4.71 -1.82 -0.36 -1.99 1.57 -2.43 3.26 5.32 6.31 7.93 8.30 9.82
22.99 22.78 22.38 22.28 21.45 20.02 19.08 18.63 18.62 18.29 17.77 17.31 15.55 15.02 15.99 14.26 12.67 12.31 12.99 10.46 10.83 11.62 7.81 10.17 7.83 3.03 4.07 0.91 6.58 -1.99 -1.99 -6.71 -1.48 1.91 2.71 3.72 -6.71 2.75 6.04 7.27 5.66 7.47 9.85
19.91 19.59 19.34 18.37 17.72 15.83 16.32 17.32 15.11 14.17 14.28 13.22 11.91 14.72 12.56 10.05 9.38 8.61 8.71 5.14 4.25 8.15 10.43 8.33 7.13 6.31 7.19 4.29 2.88 -6.71 -2.74 -2.73 0.47 -1.64 -1.63 1.00 4.68 5.19 4.80 3.12 3.10 4.90 8.24
16.64 15.18 15.81 15.31 15.09 11.96 10.56 12.04 9.22 9.78 10.96 9.38 9.54 9.45 7.40 0.49 -1.47 3.35 4.81 0.34 5.30 2.63 2.40 3.02 0.47 2.26 1.54 -2.62 -3.81 3.29 4.24 2.93 3.83 -0.41 5.42 1.00 3.89 3.24 -0.65 2.08 2.70 3.62 5.83
13.64 11.97 12.81 10.08 7.50 6.31 2.14 1.09 3.21 6.58 5.86 1.99 -0.73 1.77 -0.12 -3.46 -7.80 -7.61 -7.61 -7.98 -7.27 -9.97 -8.70 -8.72 -4.24 -1.38 0.14 -4.10 -5.84 -1.70 3.72 2.74 6.76 8.41 4.96 5.46 4.59 4.83 3.59 3.38 2.83 2.43 5.24
9.22 6.93 4.71 4.68 4.39 2.28 -1.33 0.52 -0.55 -2.18 -0.40 -0.25 -0.43 0.99 2.49 -4.53 -3.29 -9.61 -11.97 -12.15 -8.52 -11.24 -8.44 -6.74 -7.04 -4.21 -3.55 -3.90 -2.92 -1.00 0.42 5.56 4.92 4.95 6.54 6.36 5.29 4.75 3.45 2.39 1.33 2.17 5.69
7.55 4.98 2.74 -0.60 -0.22 0.99 -0.59 -2.36 -1.99 -0.73 3.52 3.51 1.45 -1.35 -2.57 -0.61 -0.83 -11.97 -9.43 -8.00 -8.56 -7.55 -7.41 -6.70 -5.82 -4.90 -4.14 -1.46 0.65 3.28 1.65 1.62 3.52 2.24 4.06 3.91 3.33 3.80 4.69 3.26 2.67 4.07 5.72

GFSGL_sfc_wetblb_087.txt.gz
Wetbulb
54.57 55.50 56.03 56.65 57.51 58.11 58.08 57.57 57.56 57.86 56.22 55.34 55.10 54.80 52.48 50.87 50.58 49.87 48.93 48.69 48.00 47.25 46.93 46.36 45.95 46.13 45.52 44.48 43.80 41.87 39.55 36.65 32.59 33.94 34.54 34.93 33.99 34.60 36.06 35.71 36.56 35.92 36.18
55.94 56.47 56.42 57.55 58.17 58.46 58.20 58.26 57.35 56.48 55.92 55.62 54.47 53.07 52.00 50.91 50.33 49.86 48.27 48.14 48.12 46.89 46.66 45.85 45.55 46.11 44.51 43.86 41.96 40.12 38.65 35.51 33.91 31.55 33.19 32.84 32.65 34.05 33.73 33.39 35.88 36.70 35.20
56.18 56.50 56.00 56.14 57.63 58.03 58.22 56.65 56.20 56.44 55.68 54.47 54.15 53.11 51.39 51.13 50.30 50.11 49.17 48.40 47.68 47.00 46.33 46.02 45.67 45.15 43.01 41.30 39.94 38.64 35.53 36.55 33.54 31.28 30.40 30.97 31.37 31.39 30.76 31.41 31.17 31.25 33.61
56.17 55.93 55.64 55.87 57.06 57.71 57.86 56.12 56.38 55.86 56.16 54.86 53.31 52.51 51.41 50.83 50.46 49.04 48.52 47.64 47.61 46.86 46.27 45.63 44.77 42.98 41.77 38.87 36.38 33.86 33.27 31.35 30.28 28.61 27.41 27.97 28.66 29.74 28.69 27.84 28.23 29.02 29.56
55.74 55.40 55.57 56.59 56.64 56.10 56.38 56.54 56.94 57.00 56.38 53.86 52.81 51.67 51.27 50.00 49.46 48.69 48.33 47.25 46.98 44.77 43.73 42.65 41.50 40.05 38.31 36.11 33.54 30.83 29.84 28.36 27.50 26.60 26.11 25.76 25.92 26.61 26.97 27.81 27.19 29.47 28.36
55.94 55.55 53.67 53.62 54.87 55.01 54.35 54.57 52.27 51.47 51.41 52.16 51.63 50.20 49.16 49.47 42.69 42.86 45.26 45.11 43.92 41.13 37.78 36.19 36.24 37.43 36.00 35.26 34.80 33.42 30.96 27.57 26.69 24.95 25.21 25.15 24.99 26.02 26.55 26.48 26.49 26.13 25.00
52.93 51.94 51.03 51.38 50.11 49.77 50.33 50.33 49.59 49.41 49.75 49.49 49.24 48.73 48.34 47.90 43.46 41.93 39.23 40.92 38.86 36.89 35.08 34.26 34.54 34.04 33.00 32.01 32.10 31.63 30.91 32.01 29.56 27.81 25.19 25.09 24.58 26.34 27.05 26.18 25.32 26.56 27.47
50.27 49.71 49.91 49.77 48.88 48.68 48.46 48.48 47.63 47.96 47.72 47.33 47.00 47.09 45.43 44.11 39.49 38.38 36.49 36.17 35.01 34.54 33.93 33.31 31.52 30.22 31.83 31.47 29.52 28.72 29.14 29.57 29.92 29.44 27.53 26.85 27.21 28.15 28.44 28.91 29.34 30.20 30.82
49.39 49.39 48.68 47.94 47.40 47.04 46.15 45.43 46.06 45.83 45.52 45.47 45.29 43.06 40.97 38.10 35.71 35.19 35.35 33.97 32.30 31.30 31.35 31.22 30.20 28.99 30.49 31.03 28.20 27.01 26.80 27.76 30.58 31.59 32.13 32.71 32.96 33.37 33.37 31.55 28.92 28.07 26.20
48.01 47.22 47.13 46.79 46.32 45.54 45.10 45.04 45.64 44.87 42.56 40.49 37.22 37.17 35.90 35.03 34.90 34.60 33.26 31.63 29.51 28.28 28.81 28.23 29.01 28.09 29.17 28.98 27.30 26.81 25.81 27.31 28.14 28.83 29.36 29.80 31.46 31.38 32.45 31.78 30.24 26.72 26.72
46.77 46.54 45.75 46.01 45.09 44.83 44.29 43.26 39.99 37.99 35.57 33.06 31.58 32.15 32.43 32.47 32.10 32.51 31.80 29.39 28.72 27.86 26.82 26.06 26.58 26.78 26.98 27.71 28.46 27.85 27.02 26.65 26.41 26.02 25.77 25.99 26.64 26.80 27.82 29.90 31.27 29.83 27.64
45.42 45.01 44.36 43.47 43.60 42.43 39.94 38.15 36.38 34.66 32.15 30.68 29.72 28.76 29.31 29.75 30.72 30.61 29.78 28.35 27.82 26.91 25.06 25.24 25.12 26.07 26.77 27.66 28.00 26.37 26.07 25.21 23.56 22.73 22.15 22.25 21.64 23.23 23.74 24.59 26.36 29.47 31.78
39.20 36.73 36.38 36.18 36.33 37.55 36.70 35.31 33.77 33.30 31.42 30.20 29.04 27.34 26.46 26.88 26.93 27.96 27.05 26.30 25.26 24.55 24.88 24.65 25.05 25.54 26.11 26.76 25.59 24.78 24.25 22.88 21.52 19.57 19.00 18.76 20.69 21.03 22.44 23.29 24.74 25.51 26.75
34.09 33.37 33.08 31.86 31.26 31.71 31.59 31.95 31.33 31.33 31.37 30.79 29.26 26.90 26.02 25.52 25.19 25.24 24.72 24.90 24.80 24.64 24.34 24.22 24.12 25.08 25.27 24.58 23.74 23.46 22.46 21.49 19.74 18.32 17.58 18.98 18.56 18.90 17.81 20.18 19.38 19.39 21.07
31.69 31.05 30.03 28.53 27.75 27.36 27.87 28.53 28.43 29.52 30.93 30.12 29.40 28.52 25.52 24.59 24.56 24.96 24.75 24.41 24.68 24.34 23.40 22.94 22.83 22.06 20.80 20.90 20.30 19.99 19.54 18.76 17.35 17.21 16.80 14.91 14.65 15.23 14.77 17.79 16.62 16.85 17.20
29.23 29.11 28.68 29.20 29.36 29.02 27.72 26.93 30.14 29.52 29.29 29.14 28.19 27.09 27.02 26.71 25.82 25.84 25.76 25.45 25.00 24.27 22.45 20.11 17.29 16.51 17.22 18.16 17.51 16.83 17.03 16.38 16.01 15.54 13.30 12.55 11.27 12.01 12.48 13.07 13.68 13.33 12.80
29.80 29.99 29.68 29.65 29.33 28.84 28.45 28.04 26.09 27.82 29.20 28.77 28.51 27.87 26.73 25.87 25.85 25.63 24.71 23.79 23.99 24.10 20.17 19.41 15.21 14.48 15.49 17.36 16.31 15.20 13.87 14.48 14.51 12.55 10.03 8.90 9.89 11.25 10.38 9.73 10.65 10.89 10.35
26.66 26.74 26.57 26.35 26.01 25.90 25.62 25.47 25.42 24.74 24.21 25.26 27.76 27.60 27.29 25.81 24.57 23.21 21.96 20.93 19.44 20.87 20.24 17.53 15.09 15.09 14.99 14.39 13.55 12.48 11.13 7.43 5.53 8.38 4.53 2.68 2.77 8.38 6.45 6.67 7.45 6.48 8.08
25.37 25.04 25.01 24.70 24.53 24.30 24.24 23.64 22.91 22.65 21.80 21.54 22.95 21.38 21.30 22.61 21.71 20.70 19.94 16.78 16.11 15.71 15.29 14.52 14.09 12.94 11.98 11.57 3.93 -0.77 -6.75 -6.03 -5.30 -7.84 -2.43 -2.43 -2.94 3.69 4.50 5.49 5.47 5.58 5.92
23.82 23.91 23.59 23.07 21.95 20.85 19.81 19.26 18.88 18.27 18.13 17.22 16.55 16.13 17.60 16.79 13.62 12.47 12.62 10.19 10.07 11.57 11.31 12.77 12.56 11.05 3.53 1.91 -5.84 -6.39 -8.93 -8.38 -3.70 -4.39 -2.04 -7.84 -8.56 -4.39 1.70 2.67 4.06 4.01 4.54
21.42 20.55 19.55 18.55 17.28 17.12 17.04 15.51 15.25 14.83 14.32 14.26 13.74 13.53 13.16 12.49 11.17 10.48 10.61 9.24 7.87 6.07 6.18 8.17 6.73 1.76 3.74 4.04 5.05 -2.96 -4.76 -8.75 -3.31 2.11 -0.62 0.06 -6.03 -4.76 1.75 4.16 4.20 3.53 4.11
17.76 17.35 16.83 15.54 14.97 13.34 14.00 13.03 10.76 10.06 10.42 10.72 11.04 11.21 8.77 5.40 5.79 6.03 4.97 -1.13 -3.49 5.66 7.05 5.93 4.57 6.12 6.10 4.67 2.97 -4.76 -2.24 -2.59 -4.94 -0.79 -2.64 -1.53 1.45 1.99 1.25 2.24 1.14 0.92 2.04
14.15 13.03 12.73 11.81 11.50 8.58 7.38 8.23 6.26 4.95 3.56 0.32 2.99 3.82 1.64 -5.84 -6.93 -1.68 -4.58 -9.47 -4.59 -6.93 -3.33 -1.42 -4.45 -1.06 0.61 -3.19 -5.35 -3.16 -4.21 -0.90 0.27 2.03 1.71 2.38 2.29 2.14 -3.51 0.01 0.30 0.75 0.70
11.20 9.63 9.54 6.83 4.50 3.82 0.39 -0.97 -0.34 1.13 2.88 2.01 -1.34 1.12 -0.28 -1.53 -4.76 -2.62 -8.02 -13.82 -12.37 -11.86 -12.76 -9.35 -6.05 -3.69 -2.53 -5.69 -7.38 -4.50 0.08 1.96 3.75 5.20 3.53 2.56 2.51 2.92 3.30 3.08 2.40 1.86 -0.10
6.82 4.97 2.79 0.78 -0.85 -5.84 -5.85 -5.66 -7.11 -8.38 -6.39 -4.39 -3.50 -2.45 1.71 -2.44 -0.43 -8.20 -8.38 -9.47 -7.21 -13.46 -8.52 -8.38 -8.36 -6.24 -6.25 -6.06 -5.34 -3.96 -2.27 1.91 1.41 0.48 2.08 2.72 1.72 -0.50 0.48 2.40 2.41 1.25 -0.62
4.33 2.11 -0.42 -1.09 -4.58 -7.11 -10.01 -12.37 -11.83 -9.11 -7.84 -6.03 -5.66 -3.72 -4.95 -5.48 -4.96 -12.37 -8.42 -7.85 -8.03 -7.36 -7.96 -8.01 -6.65 -7.06 -6.85 -4.55 -2.51 0.08 -1.73 -1.77 -2.30 -0.90 -0.07 1.00 0.01 -0.38 0.67 1.90 2.37 2.29 2.33

GFSGL_sfc_wetblb_090.txt.gz
Wetbulb
52.62 52.53 52.43 52.37 52.41 52.91 53.11 53.71 55.02 55.38 55.87 55.87 55.87 55.20 54.40 52.46 51.71 51.28 50.58 50.08 49.87 49.11 48.86 48.62 47.94 48.07 46.59 45.90 44.78 43.36 41.09 39.87 37.77 37.95 37.46 37.61 36.70 37.09 38.24 38.58 38.46 37.82 38.49
53.67 53.71 53.42 53.35 53.30 53.51 53.88 54.64 55.32 55.44 56.06 56.07 55.70 55.48 55.19 53.17 51.87 51.69 51.16 51.10 49.68 48.79 48.52 48.38 48.06 47.09 46.07 45.35 44.28 41.99 41.46 39.61 37.36 35.95 36.35 35.02 35.04 36.33 36.37 35.57 37.17 37.59 37.21
54.00 53.41 53.61 54.06 54.46 54.65 55.33 55.99 56.73 56.66 56.37 55.66 56.47 55.89 55.68 54.10 53.15 52.97 53.46 51.92 49.96 49.81 49.35 48.44 47.68 45.68 44.84 43.81 43.10 41.70 40.01 39.39 37.18 34.79 34.07 33.12 33.58 33.61 33.59 33.73 33.92 34.49 34.68
52.93 52.95 52.94 53.70 54.61 55.48 56.29 56.71 56.96 56.39 56.96 56.15 55.75 55.51 54.70 53.84 53.21 52.18 51.54 50.91 50.04 50.07 49.02 47.91 47.30 46.02 45.27 42.97 41.60 40.12 38.09 36.52 33.32 31.41 30.35 30.89 31.13 32.36 31.32 30.82 30.40 31.95 31.88
52.50 52.23 52.54 53.52 54.19 53.83 54.92 55.52 55.82 56.89 56.99 56.93 56.41 55.29 53.57 52.82 51.86 51.15 50.39 49.64 48.49 47.36 46.12 45.43 44.34 43.47 41.49 40.43 38.79 36.12 34.38 31.70 30.66 29.47 28.85 28.60 28.61 29.29 29.50 29.96 28.87 29.41 30.41
53.78 52.92 53.30 53.26 53.12 53.04 54.11 54.82 56.06 56.55 55.81 56.13 53.26 52.67 51.44 51.71 46.18 43.97 47.20 48.40 47.07 44.72 41.23 39.18 38.61 38.08 36.83 35.78 34.96 34.06 33.53 31.54 29.82 28.71 28.23 27.77 28.09 28.83 29.40 28.52 27.68 26.58 25.91
53.28 52.23 51.45 51.84 52.62 53.79 53.70 53.76 53.88 53.50 52.47 51.71 51.55 51.37 51.10 50.76 42.37 42.72 42.01 45.97 44.47 40.00 36.72 35.95 35.97 35.23 33.85 32.68 32.53 32.08 31.42 32.03 29.70 29.68 27.68 27.56 27.54 28.18 28.41 27.42 27.35 27.03 27.18
51.08 50.69 50.70 50.88 50.36 50.36 50.90 51.07 49.29 49.09 48.91 47.83 47.10 46.54 44.85 41.77 38.83 38.35 38.08 38.62 36.88 36.26 36.02 34.45 32.25 31.36 31.83 31.73 30.82 30.23 29.86 29.75 29.91 29.35 28.99 28.52 28.86 29.38 29.17 29.48 29.31 29.78 30.42
49.58 49.94 50.16 49.80 48.55 47.81 47.29 46.18 46.38 46.07 45.35 43.85 42.88 41.59 39.05 36.60 35.95 35.85 35.91 34.57 32.67 31.43 31.49 31.34 30.61 30.22 31.33 31.60 28.79 27.39 27.03 28.01 30.58 31.18 31.65 32.10 32.41 32.89 32.87 31.57 28.59 28.67 26.69
48.03 47.52 48.17 47.50 46.87 45.52 45.53 45.37 44.89 43.36 40.65 38.58 36.34 36.10 35.12 34.36 34.79 34.32 33.24 31.16 28.95 28.34 28.69 28.79 29.46 28.88 28.92 28.49 27.56 26.97 26.10 27.30 27.15 27.23 27.09 27.59 28.54 28.93 28.92 30.08 30.04 27.54 26.88
46.43 46.07 45.81 45.49 44.70 44.18 41.88 40.83 38.75 35.80 33.50 31.83 30.42 30.69 31.17 31.72 32.41 33.18 32.61 30.45 29.56 28.63 27.17 25.92 26.28 26.61 26.95 27.57 28.58 28.29 26.74 26.15 24.74 24.50 24.09 24.69 25.68 24.53 25.82 25.84 25.43 24.85 23.67
41.97 40.54 40.05 40.49 40.63 39.40 37.42 36.40 35.21 33.23 30.97 29.75 28.89 28.21 28.67 29.57 30.55 30.64 30.07 29.18 29.31 27.39 25.84 25.19 25.35 26.29 27.07 28.10 27.65 26.46 25.00 24.22 23.35 21.92 21.22 20.98 20.40 21.29 22.00 22.51 23.89 25.16 26.17
37.37 36.23 35.95 35.95 35.97 36.39 35.19 34.25 33.03 32.34 30.68 29.56 28.41 26.69 25.95 26.63 27.25 28.66 28.05 26.89 26.20 25.10 25.37 25.07 25.52 25.92 26.35 27.22 25.38 24.89 23.62 22.25 20.75 19.15 18.00 18.04 19.34 19.48 20.38 20.37 21.18 22.76 22.20
33.66 32.48 32.01 30.97 30.92 31.63 31.98 32.25 31.96 31.50 30.52 29.44 28.02 26.22 25.80 25.77 25.73 25.71 25.55 25.53 26.16 25.62 24.85 25.04 24.57 25.07 26.04 24.38 24.31 23.28 22.03 20.72 19.28 17.91 17.02 18.02 17.74 17.09 16.08 17.30 16.77 17.09 16.38
28.21 27.93 28.28 29.38 29.61 28.71 28.67 29.16 28.81 29.10 30.67 29.35 28.44 28.20 25.70 24.03 24.59 25.99 25.85 24.82 24.95 24.50 24.09 23.81 23.58 23.16 22.33 22.07 21.35 20.71 20.31 19.45 17.93 17.31 16.27 14.98 14.27 13.64 13.27 14.94 14.08 13.70 12.50
29.42 29.96 30.22 29.96 29.48 28.21 27.71 27.50 30.41 30.10 29.85 29.61 28.86 27.53 27.23 27.19 27.13 27.24 26.98 26.43 26.32 25.53 22.79 20.93 19.22 18.33 18.36 19.06 18.40 17.87 17.74 16.80 16.10 15.28 14.13 13.05 10.87 10.20 10.84 12.24 11.69 10.48 9.58
28.90 28.59 27.96 27.99 27.42 26.89 26.50 26.54 24.54 27.28 28.88 28.60 28.45 27.84 27.11 26.88 26.51 25.37 24.67 24.08 23.76 23.04 20.56 20.20 16.35 15.64 16.25 17.38 16.45 15.25 14.00 14.26 13.69 11.94 11.27 9.39 8.73 8.57 9.22 8.03 8.45 8.39 7.40
25.20 25.15 24.69 24.34 24.13 23.63 23.06 23.22 23.43 22.48 21.63 22.81 24.06 24.88 25.25 24.05 23.33 22.71 22.03 20.75 18.57 19.16 17.56 15.32 14.57 14.52 14.57 14.05 13.47 12.27 11.93 9.15 6.95 7.69 7.05 4.82 2.70 7.11 5.85 6.01 6.41 5.16 5.52
23.50 22.98 22.55 21.60 20.54 20.61 20.51 19.84 19.92 19.18 18.32 17.92 17.68 18.19 18.84 20.43 19.90 18.95 17.56 13.16 12.49 12.43 13.08 13.24 13.93 12.57 11.37 11.02 6.92 2.25 0.74 1.49 -0.43 -3.32 0.96 0.85 1.09 4.21 3.61 4.70 4.98 3.62 3.97
19.94 19.42 18.63 18.42 17.87 17.04 16.39 15.67 15.07 15.04 14.13 12.57 11.33 11.47 12.94 11.67 8.86 7.47 7.95 3.46 5.73 7.76 6.93 8.80 9.79 8.20 5.09 5.76 3.16 0.70 1.74 -0.60 0.17 0.26 0.86 1.59 0.38 1.06 2.18 1.95 3.13 3.40 4.38
18.35 17.17 16.54 16.07 15.17 14.02 12.79 11.88 11.33 10.08 10.34 10.50 8.81 7.66 6.41 5.58 2.30 1.22 2.64 0.13 1.40 2.99 1.40 4.79 6.43 5.72 6.14 6.29 5.53 1.39 -0.23 -5.12 -2.54 0.78 3.17 3.39 -0.52 -0.22 2.44 3.10 3.89 4.31 3.84
15.43 14.93 13.65 11.70 10.64 9.57 9.53 8.76 6.76 5.88 5.71 5.57 5.09 7.13 1.73 -3.15 0.40 1.80 1.79 -3.67 -7.84 -2.96 0.55 -0.23 -1.00 1.57 2.55 2.04 1.00 -2.56 -3.18 -4.76 -3.87 -1.63 -1.27 0.02 2.19 3.51 2.66 2.56 1.93 1.70 2.00
11.21 9.31 8.71 7.97 7.30 3.23 2.62 3.67 1.17 0.22 0.62 -2.06 0.24 1.23 0.69 -4.40 -3.51 -0.89 -4.59 -11.11 -6.04 -5.93 -5.16 -4.01 -6.74 -3.13 -1.20 -3.33 -5.00 -3.93 -4.76 -2.41 -0.77 1.06 1.08 1.74 2.66 2.81 1.73 0.77 0.86 0.67 1.74
7.61 6.18 6.12 2.25 1.05 -1.00 -5.37 -7.31 -4.62 -2.62 -1.47 -5.12 -8.02 -4.94 -2.29 -2.81 -10.38 -12.19 -13.64 -12.74 -8.83 -10.27 -10.83 -11.52 -7.63 -5.40 -3.88 -4.73 -6.07 -4.29 -1.18 0.08 2.16 3.07 2.70 1.39 1.60 1.99 2.48 2.07 1.99 2.05 2.17
3.05 0.81 -0.90 -4.09 -5.86 -10.56 -9.66 -8.39 -11.65 -16.00 -13.28 -13.64 -13.46 -13.64 -6.97 -11.30 -6.52 -11.47 -11.51 -10.12 -9.02 -11.14 -7.87 -8.41 -7.59 -5.71 -6.64 -7.12 -6.93 -5.66 -4.33 -0.28 0.99 0.90 0.96 0.75 0.28 -0.43 -0.91 0.03 0.56 1.88 2.45
1.15 -1.43 -4.69 -5.40 -9.31 -11.29 -16.00 -19.81 -21.08 -19.63 -18.54 -17.45 -16.91 -17.27 -16.18 -12.01 -8.71 -14.55 -12.08 -9.44 -7.47 -7.20 -7.87 -6.42 -6.89 -8.12 -7.92 -6.06 -4.30 -0.61 -0.05 -0.34 -0.63 0.03 0.28 -0.08 -0.97 -0.86 -0.20 0.02 0.66 1.62 2.51

GFSGL_sfc_wetblb_093.txt.gz
Wetbulb
55.76 55.93 55.57 55.57 55.52 56.02 55.98 56.32 56.80 57.87 57.86 58.04 58.37 58.68 58.94 59.14 58.46 57.52 57.10 56.31 52.87 52.52 51.52 51.32 50.52 51.12 49.70 48.24 48.46 47.02 46.29 47.35 46.91 46.44 48.38 47.11 40.72 41.42 42.20 44.60 46.66 46.15 46.56
56.13 56.04 55.84 56.14 55.45 55.70 56.04 56.53 57.50 57.16 58.54 58.66 58.34 58.53 58.60 58.29 56.40 53.99 53.59 53.86 52.14 52.07 51.11 50.34 49.89 50.24 48.79 48.61 49.50 46.87 47.95 45.36 43.01 43.13 43.75 38.83 38.92 42.13 44.61 44.91 44.02 43.61 44.74
56.21 56.09 55.87 55.88 55.61 54.79 55.89 56.59 57.33 57.33 57.48 57.91 58.16 58.15 57.79 57.00 55.29 56.45 55.67 54.64 52.86 52.51 52.47 50.74 50.74 50.07 49.02 48.92 49.25 49.10 47.98 42.80 42.80 40.80 38.98 38.00 38.95 41.05 41.54 42.20 41.77 42.05 41.05
56.27 55.88 55.73 56.06 56.10 56.11 56.57 57.09 57.76 57.63 57.41 58.03 58.71 58.51 58.46 58.06 57.17 56.39 55.10 54.10 53.55 53.90 54.52 52.35 50.94 50.48 48.77 49.21 47.70 45.26 43.56 40.47 38.18 37.30 35.74 36.11 38.07 40.24 39.49 38.86 37.63 39.59 38.92
55.98 56.11 56.02 56.78 56.97 56.93 57.73 57.75 58.03 58.67 58.97 59.28 59.20 58.73 58.11 57.41 56.21 54.97 54.31 54.05 53.58 52.34 51.20 50.90 49.55 49.19 46.65 46.33 45.02 41.64 39.89 36.72 34.78 33.86 33.33 33.85 36.47 34.44 35.32 37.92 36.44 37.24 36.77
55.54 55.41 56.07 55.92 55.92 56.68 57.31 57.65 58.44 58.63 58.97 58.89 57.79 57.02 56.65 55.41 47.95 44.86 48.67 51.80 51.66 50.14 47.35 41.63 42.07 40.97 39.41 37.26 37.38 36.81 37.59 35.28 33.28 33.11 34.57 33.03 33.59 33.56 35.16 34.77 33.72 31.72 30.27
55.50 55.34 55.09 55.23 55.09 55.98 56.50 56.90 57.25 57.87 58.15 57.06 56.39 55.41 53.64 51.27 43.60 42.69 40.70 46.86 44.83 40.99 38.39 37.95 36.69 35.86 35.18 34.10 33.44 32.96 32.65 32.55 31.74 34.82 34.03 32.39 33.10 33.21 33.00 31.68 31.28 30.96 31.02
55.82 54.63 54.98 55.02 54.11 54.35 55.14 55.25 53.38 50.96 49.52 47.87 46.23 45.27 41.87 38.43 37.90 38.60 37.88 38.99 37.13 36.37 35.91 34.86 33.73 32.84 32.87 32.46 31.92 31.56 31.34 31.77 32.77 31.98 32.60 31.95 32.31 32.93 33.29 32.97 32.66 32.17 33.21
52.10 52.17 52.53 52.62 50.75 49.30 48.60 47.29 47.06 45.10 42.52 40.92 40.08 38.22 36.48 35.09 35.28 35.50 35.64 33.96 31.44 31.08 31.72 31.74 31.52 31.07 31.63 32.68 30.55 29.51 28.86 29.61 31.43 31.70 31.84 31.42 31.17 30.87 31.32 31.89 30.14 29.35 28.38
47.55 47.64 48.18 47.94 46.95 45.98 45.22 43.39 41.02 38.98 36.99 35.39 33.90 34.05 33.92 33.73 34.22 33.63 32.79 31.11 29.27 28.32 28.67 28.46 29.19 28.83 29.09 29.02 28.51 28.40 27.27 28.57 28.53 28.30 28.96 28.29 27.90 29.10 27.21 28.82 28.93 26.60 27.36
45.99 45.71 45.09 44.40 42.69 41.88 40.66 39.27 36.80 34.59 32.81 31.53 30.57 31.03 31.45 32.02 32.65 32.94 32.37 30.55 29.42 28.17 27.04 26.11 26.76 27.88 28.29 28.18 28.86 29.21 28.88 28.80 26.47 26.25 26.08 26.10 27.12 25.92 26.43 27.50 26.01 25.05 24.32
41.43 40.39 39.75 39.53 39.23 38.77 37.06 35.80 34.41 32.65 30.85 29.67 28.51 28.16 28.94 29.74 30.41 30.68 30.42 29.98 29.84 27.92 26.47 26.55 27.14 27.55 27.62 28.67 28.80 27.46 25.83 25.69 26.37 24.92 23.81 23.90 23.47 23.46 24.32 23.51 23.99 24.38 24.82
36.80 35.24 34.78 34.76 34.87 35.31 34.62 33.40 32.23 31.61 29.79 28.62 27.95 26.62 26.09 26.54 27.22 28.68 28.49 27.76 27.40 27.31 27.29 26.10 25.99 26.30 26.50 28.32 27.24 25.53 24.11 25.43 24.60 22.90 21.97 21.70 22.39 22.12 21.81 21.45 22.36 22.10 22.98
34.14 33.57 32.87 32.53 32.19 32.60 31.95 32.12 31.83 31.37 30.29 29.35 28.07 26.28 26.19 25.82 26.24 27.11 27.52 27.79 27.36 26.89 26.43 26.73 25.85 25.96 26.81 26.80 26.40 25.38 25.29 24.18 22.38 21.49 20.37 20.97 20.69 19.68 18.10 18.91 17.71 18.75 18.18
33.38 32.43 31.32 30.53 29.85 29.05 29.38 29.36 28.71 29.55 30.09 29.65 29.68 29.90 28.87 26.99 26.82 27.71 27.60 26.96 26.94 25.80 26.12 25.87 25.36 24.57 24.43 24.63 24.33 23.22 23.11 22.09 20.28 20.29 18.60 18.01 17.10 16.69 16.61 18.01 17.65 17.58 16.16
31.95 31.35 31.15 30.69 30.20 29.14 28.63 28.04 29.34 28.89 28.89 28.85 28.58 28.86 28.09 27.90 26.95 26.22 25.66 25.16 24.66 24.44 24.33 23.14 22.54 22.32 21.28 21.25 21.20 20.93 20.25 18.85 18.70 17.82 17.31 16.47 15.51 14.92 15.09 15.89 16.62 15.50 14.32
29.33 28.78 28.49 28.19 28.39 28.08 28.58 27.92 24.89 25.47 25.76 26.51 26.81 25.78 25.38 24.39 23.91 23.51 23.14 22.75 22.25 22.46 20.73 19.61 19.03 18.93 18.88 18.86 18.33 17.72 16.52 17.23 15.92 15.38 14.86 14.23 13.78 13.41 12.67 12.98 13.32 13.15 12.88
26.00 25.94 26.44 25.83 26.12 25.86 25.54 25.15 25.13 23.76 21.56 20.60 21.04 21.61 22.28 21.50 20.67 19.49 19.25 19.44 17.97 17.98 17.11 16.37 15.89 16.12 15.60 14.97 14.75 13.68 13.25 13.53 13.28 12.62 12.12 11.99 11.51 11.43 10.95 10.94 11.12 10.39 10.86
24.04 23.31 23.23 22.70 22.16 22.05 21.94 21.21 20.77 19.45 18.12 17.36 17.58 16.96 16.35 17.28 16.74 16.03 15.65 14.47 13.24 12.83 13.05 12.88 13.01 12.31 11.95 11.86 11.82 11.14 10.60 10.32 9.79 9.32 9.94 9.69 9.95 9.95 9.03 9.28 9.67 8.38 8.41
20.66 19.92 20.00 19.64 19.05 18.42 18.37 17.68 17.04 16.30 15.18 14.29 13.29 13.03 14.56 14.41 12.74 11.77 11.56 11.04 10.36 10.20 10.09 10.04 10.32 10.29 9.84 9.62 9.51 9.46 8.57 8.42 8.16 8.37 8.26 8.57 9.25 9.16 7.78 7.98 8.65 8.52 8.87
18.63 17.40 16.57 16.52 15.83 15.54 15.28 14.48 14.14 13.99 12.98 12.18 11.42 9.51 7.46 11.21 10.01 9.39 8.80 7.95 7.52 7.61 7.26 7.40 7.62 7.76 7.76 7.79 7.39 6.74 5.87 5.70 6.03 6.17 6.42 7.17 7.10 6.74 8.14 8.58 8.66 8.74 8.61
16.13 14.99 14.12 13.09 13.14 12.46 12.06 11.99 11.22 10.31 9.92 9.41 9.82 8.97 5.87 8.69 8.37 7.51 7.21 5.70 6.09 6.79 7.07 6.26 5.39 5.84 5.78 5.31 4.75 4.06 3.13 3.08 4.20 5.11 5.19 5.13 6.41 7.10 7.64 7.49 7.37 7.55 7.71
13.08 12.24 11.38 10.66 10.10 8.37 8.97 9.00 8.50 8.19 6.89 6.65 6.82 6.52 6.54 5.37 4.96 5.14 4.49 4.02 4.37 4.09 4.51 3.80 3.42 2.85 4.33 3.92 3.98 3.49 2.18 2.62 3.81 4.45 3.87 4.81 5.61 6.15 6.51 6.33 6.49 6.38 6.83
11.22 10.12 8.58 7.40 7.06 6.63 6.19 5.63 5.58 3.36 4.30 4.32 4.30 4.19 3.30 2.97 3.09 2.18 1.55 2.03 1.73 2.42 2.03 1.63 1.30 0.89 0.85 0.71 2.69 3.45 3.80 3.94 4.38 4.87 4.77 3.89 4.07 4.92 5.64 5.51 5.63 5.46 5.70
8.06 6.83 5.68 5.12 4.61 4.22 3.66 3.17 2.71 2.51 2.43 1.78 1.31 0.81 0.88 1.04 1.06 0.62 0.09 -0.19 -0.76 -0.56 -0.69 -0.51 -0.15 -0.43 -0.61 -1.99 -1.41 -0.35 0.76 1.26 2.81 3.12 3.82 4.14 3.69 3.38 3.70 4.31 4.37 5.26 5.97
6.13 5.01 4.50 4.03 3.12 2.55 2.16 1.28 0.45 0.24 -0.54 -0.16 -0.64 -0.97 -1.35 -1.66 -0.95 -1.82 -2.08 -2.03 -3.02 -3.03 -2.21 -1.34 -1.31 -2.14 -2.55 -0.47 0.79 1.25 0.19 0.24 1.29 1.55 3.02 3.78 3.23 3.51 4.38 4.41 4.53 5.45 5.83

GFSGL_sfc_wetblb_096.txt.gz
Wetbulb
59.77 59.80 59.43 59.32 59.41 59.54 59.06 59.32 59.36 59.97 59.93 59.64 59.80 60.14 60.26 60.48 60.86 61.09 60.96 60.59 60.06 60.43 61.07 59.83 58.95 58.21 56.46 54.31 52.89 52.07 49.74 49.50 47.58 50.39 52.83 55.13 52.74 51.19 49.74 48.09 49.65 48.61 46.72
59.43 59.81 59.79 60.03 59.94 59.34 59.48 59.41 59.84 59.31 60.22 60.03 60.03 59.82 60.03 60.16 60.97 61.25 60.30 59.89 59.30 58.78 57.41 56.23 54.73 54.25 53.49 53.03 51.17 50.28 49.67 49.69 48.60 47.36 50.66 44.61 50.11 44.94 43.93 46.25 44.24 45.53 47.12
59.51 59.57 59.44 59.45 59.39 59.29 59.13 59.22 59.96 59.80 59.79 59.99 60.03 59.72 59.68 60.26 60.12 60.52 60.23 58.23 56.94 57.93 58.05 55.75 54.57 53.12 51.74 51.55 50.88 49.76 50.54 50.02 48.73 47.56 47.91 44.33 42.56 41.08 40.40 42.40 43.05 44.56 46.03
59.81 59.35 59.04 59.32 59.57 59.41 59.64 59.64 59.98 59.69 59.34 59.31 59.62 59.61 59.84 59.92 59.92 59.93 59.08 58.57 59.75 59.71 58.64 54.78 54.35 53.32 51.61 51.37 50.70 49.53 49.18 48.15 47.72 44.54 41.48 36.89 37.69 38.95 39.70 39.26 39.26 42.01 42.92
59.77 59.42 59.37 59.79 60.03 59.87 59.52 59.51 59.52 59.57 59.46 59.28 59.64 59.86 60.56 60.74 60.41 60.33 59.32 58.35 56.73 55.44 54.60 53.50 53.90 51.71 47.04 47.15 49.88 49.09 47.18 42.80 38.81 38.25 35.63 34.66 35.58 34.72 34.91 38.42 37.30 39.27 39.87
59.72 59.46 59.99 59.79 59.67 59.47 59.34 59.46 59.71 59.75 60.16 60.41 60.40 60.43 60.17 58.57 48.34 45.51 49.50 55.15 52.70 51.14 50.35 42.68 40.71 40.06 37.62 36.98 36.36 34.95 37.97 37.64 35.03 34.69 33.80 33.52 32.79 32.98 34.18 34.98 35.46 35.74 33.59
59.91 59.82 59.77 59.70 59.08 59.19 59.34 59.18 58.56 58.67 59.32 58.44 57.33 55.34 47.43 41.65 38.81 42.61 40.62 45.88 41.86 39.81 38.66 37.98 36.29 35.42 35.74 34.47 33.59 33.50 33.05 33.05 32.00 34.96 33.53 32.81 33.01 33.85 35.26 35.37 34.01 32.29 30.93
59.56 59.19 59.16 58.91 58.57 58.79 58.56 57.82 56.56 52.44 49.22 45.98 42.88 40.77 38.25 36.73 36.73 37.39 36.57 36.42 34.59 33.99 33.98 33.99 32.55 32.30 33.23 33.28 32.55 31.13 30.91 31.19 32.27 33.22 33.65 33.98 34.16 34.45 33.83 33.09 32.63 33.13 34.23
55.97 56.35 56.92 57.17 54.80 51.71 48.73 47.90 45.69 42.45 38.57 37.19 37.02 36.21 34.74 33.92 34.32 34.60 34.63 32.34 30.48 29.97 30.95 31.17 30.48 29.74 31.00 32.61 30.86 29.89 30.23 30.63 32.62 32.75 32.31 31.83 31.49 31.17 31.46 33.12 31.79 30.61 30.26
48.60 48.24 48.05 47.55 46.11 43.42 41.45 39.11 38.13 36.33 34.84 34.02 32.97 33.68 33.92 33.62 33.96 33.86 33.11 31.42 29.32 28.74 28.64 28.72 29.10 28.91 29.15 29.68 30.11 29.97 28.67 30.04 30.76 30.88 31.27 29.83 28.92 30.48 27.43 29.20 29.44 27.99 28.04
43.85 43.12 42.06 41.30 39.70 38.85 37.24 36.17 34.79 32.87 31.43 30.54 30.03 30.51 31.15 32.28 32.53 32.77 32.47 31.04 30.00 28.65 27.37 26.84 27.68 28.23 28.34 28.51 28.80 31.13 30.37 31.07 28.91 29.14 29.36 29.34 29.32 29.67 29.09 29.37 30.01 27.79 25.78
39.46 38.49 37.92 37.79 37.48 36.69 35.34 34.41 33.14 31.85 30.58 29.93 29.21 28.39 29.07 30.00 30.43 30.61 30.42 30.00 30.38 29.34 28.47 29.56 29.19 27.80 27.57 28.83 29.66 27.78 26.32 27.36 29.47 28.33 27.09 26.79 27.14 27.13 27.82 27.60 26.74 26.60 27.22
38.08 36.88 35.96 35.63 35.37 35.65 34.49 33.64 32.67 32.02 30.54 29.24 28.13 27.20 26.76 27.97 28.39 29.07 28.85 28.37 28.00 29.54 29.60 27.44 26.55 26.96 27.39 28.62 27.55 25.17 25.47 28.57 27.36 25.93 25.57 25.26 25.40 25.70 24.56 24.35 24.72 24.69 24.26
36.68 36.22 36.07 34.63 33.69 33.25 32.70 32.21 31.98 31.52 30.29 29.43 28.48 27.46 28.36 29.49 29.94 30.47 30.10 30.22 28.77 29.12 28.75 28.86 27.78 27.48 27.08 27.27 27.73 27.68 27.42 26.39 24.38 23.99 24.21 24.10 24.30 23.22 22.24 22.89 21.49 22.32 22.14
35.65 35.19 34.23 33.01 31.41 29.64 29.70 30.33 29.36 29.63 31.52 31.11 29.82 29.90 28.63 26.34 26.22 26.63 26.28 26.37 27.23 26.75 28.14 28.21 27.27 26.15 25.58 26.09 26.11 26.45 25.93 24.37 22.85 22.94 21.59 21.15 20.81 20.79 20.35 21.23 20.11 19.98 19.03
34.52 34.49 34.34 33.94 32.93 30.85 28.47 26.90 28.21 28.02 27.54 27.39 27.49 27.68 26.22 25.30 24.96 24.74 24.45 23.20 23.44 24.07 25.61 23.64 22.86 23.12 22.59 22.19 21.72 21.47 21.96 21.00 20.62 18.90 18.74 18.16 17.37 16.94 16.83 17.62 18.04 17.47 16.59
32.04 31.79 32.57 32.41 32.46 30.52 28.94 27.25 23.69 24.16 24.21 24.52 24.15 23.87 23.07 21.72 21.16 21.06 21.53 21.99 21.17 22.68 21.10 20.18 19.77 19.31 18.98 18.80 18.40 17.79 16.67 17.19 17.24 16.92 15.97 15.47 15.26 15.06 14.32 14.68 14.88 15.25 14.65
30.09 29.53 30.91 29.93 29.53 29.23 28.50 27.67 27.06 25.02 22.70 21.10 20.08 20.09 19.71 19.21 18.40 18.25 18.74 20.48 19.90 19.19 18.73 18.03 16.77 16.58 16.22 15.64 15.53 14.62 14.50 14.36 14.12 14.03 13.05 13.15 13.15 12.74 12.28 12.48 12.96 12.44 12.55
28.71 27.48 27.49 27.01 27.00 26.57 26.27 25.19 24.52 23.58 22.35 21.28 21.19 19.93 18.36 17.79 17.22 16.53 16.65 17.13 15.82 15.79 15.70 15.71 15.62 14.84 14.26 13.97 13.54 13.25 12.83 12.46 11.84 11.87 11.62 11.65 11.80 11.37 10.87 11.49 11.42 10.62 11.06
24.10 23.72 24.29 24.30 23.87 23.17 23.03 22.23 21.37 20.66 19.45 18.17 16.58 15.71 17.97 18.27 16.63 15.66 15.55 14.50 14.17 13.94 13.55 13.34 13.45 13.28 12.53 12.34 12.10 11.85 11.49 11.03 10.80 10.37 10.32 10.45 10.85 10.79 9.70 10.07 10.38 10.32 10.85
21.75 20.72 20.75 21.51 20.53 20.36 20.15 19.38 19.06 18.42 17.57 16.78 13.93 12.10 10.39 15.31 14.29 13.84 13.59 12.48 12.33 12.16 11.86 12.01 12.11 12.00 12.06 11.46 11.19 10.46 9.40 9.46 9.44 9.10 9.17 9.64 9.41 8.75 10.14 10.74 10.84 10.92 10.59
20.50 19.71 19.14 18.54 18.55 17.81 17.30 17.49 16.74 15.86 15.30 14.57 14.58 12.38 10.07 13.83 13.06 12.54 12.25 11.26 11.29 11.45 11.79 10.91 10.25 10.73 10.50 9.40 8.89 8.46 7.80 7.55 8.12 8.53 8.12 7.82 8.60 9.18 9.76 9.79 9.84 10.01 10.16
18.85 17.63 16.66 15.67 15.28 14.41 15.32 15.26 14.60 14.28 13.35 12.90 13.10 12.18 11.95 11.26 10.88 10.54 9.84 9.62 9.76 9.35 9.88 8.85 8.41 7.78 8.94 8.61 8.35 8.12 6.98 7.27 7.79 7.94 6.69 7.17 7.78 8.31 8.85 8.46 8.98 8.83 9.26
17.00 16.12 14.43 14.03 14.09 13.62 13.52 12.79 11.18 8.89 11.03 11.38 11.36 10.79 9.90 9.26 9.42 8.61 8.18 8.04 7.22 7.63 7.41 6.67 6.32 5.68 5.64 5.43 7.44 8.00 8.09 8.04 7.65 7.01 7.11 6.94 6.91 7.71 8.27 8.11 8.19 8.50 8.73
14.77 13.79 13.16 12.75 12.27 11.77 11.54 11.07 10.73 10.45 10.46 10.07 9.47 9.26 8.79 8.33 7.95 7.57 6.94 6.01 4.74 4.71 4.57 4.77 5.80 5.32 5.03 3.67 3.92 5.01 5.99 5.05 4.85 4.82 5.68 6.87 6.90 6.86 7.13 7.86 8.23 8.91 9.09
12.94 12.26 11.81 11.91 11.20 10.82 10.52 9.89 9.26 9.04 8.07 8.10 8.09 7.75 7.15 6.47 6.49 5.76 5.30 4.36 2.91 2.61 4.09 5.29 5.27 4.40 4.02 6.02 6.89 6.16 3.69 2.77 3.19 3.11 4.48 5.97 6.25 7.13 8.23 8.11 7.98 8.40 8.79

GFSGL_sfc_wetblb_099.txt.gz
Wetbulb
60.53 60.09 60.29 60.05 60.31 60.44 60.90 61.38 61.16 61.61 61.50 61.02 61.16 61.16 61.23 61.21 61.68 61.83 61.59 61.40 60.84 61.02 61.77 61.21 60.99 61.82 60.83 60.28 57.68 56.39 54.49 53.12 50.20 52.82 53.40 53.15 50.29 48.92 50.27 49.82 50.15 50.39 49.90
61.09 60.62 60.29 60.45 60.30 59.81 60.34 61.10 62.00 61.64 61.94 61.42 61.19 60.37 60.55 60.82 61.52 61.34 61.11 61.11 60.87 60.63 61.05 61.13 60.60 59.21 56.93 57.18 58.30 55.20 53.83 53.52 50.40 48.72 51.19 51.23 51.53 51.45 51.99 49.93 49.44 49.27 50.02
60.99 61.04 60.79 60.72 60.52 60.25 60.52 61.45 61.53 61.35 61.01 61.23 61.06 61.05 60.80 61.21 61.23 61.61 61.69 61.27 61.26 61.27 61.37 60.78 59.15 56.33 55.83 56.52 55.68 53.26 53.17 51.99 51.01 48.92 48.67 50.23 50.30 44.83 46.75 43.92 45.09 43.59 44.91
60.33 60.26 60.36 60.71 60.78 61.18 61.56 61.39 62.08 61.72 60.69 60.33 61.33 61.25 61.75 60.68 60.58 60.97 60.73 61.19 61.10 60.76 60.36 58.35 57.78 57.37 55.68 54.46 53.85 52.24 51.33 50.20 49.21 47.59 46.98 41.70 38.28 38.91 39.30 38.25 38.45 41.29 41.06
60.23 60.09 60.19 61.04 61.60 61.23 61.04 61.19 61.05 60.83 60.68 60.82 60.49 60.34 60.43 60.55 59.95 60.43 59.68 58.48 58.12 57.74 57.59 51.81 41.05 39.97 38.12 38.27 44.38 47.43 48.11 47.34 45.57 42.72 36.08 35.32 35.53 34.97 35.45 37.30 36.01 36.04 39.02
60.80 60.37 60.82 60.81 60.78 60.66 60.86 60.80 60.43 60.41 60.40 60.21 59.64 59.82 59.62 51.22 38.28 41.03 47.46 52.89 46.69 44.61 42.34 38.47 37.25 36.52 35.30 34.70 34.17 33.75 33.25 36.33 36.41 36.06 34.07 34.05 33.00 33.36 34.04 33.53 32.82 32.30 33.01
61.19 61.13 61.02 60.90 60.34 60.46 60.46 60.08 59.76 59.44 58.67 50.07 46.03 43.20 39.97 39.36 37.93 38.35 38.47 39.01 36.60 35.95 35.14 34.64 33.93 34.39 35.03 34.62 32.79 32.54 32.14 32.57 30.86 33.74 32.06 31.52 31.79 32.33 33.77 33.44 33.60 33.87 34.04
61.02 61.02 61.12 60.90 60.55 60.34 59.13 53.40 47.57 44.45 41.47 39.65 37.37 36.48 35.37 35.47 35.45 35.27 34.54 34.00 32.66 32.11 31.93 32.12 32.09 32.39 33.17 33.23 32.49 31.54 31.26 31.41 32.08 33.04 32.74 33.60 34.08 34.75 34.44 34.34 33.96 33.62 33.93
60.47 60.49 60.56 60.68 55.79 50.34 45.57 42.12 39.66 37.23 35.70 35.24 35.47 34.73 33.93 33.58 34.02 33.99 32.96 31.49 30.27 30.00 30.72 31.46 30.87 30.09 30.60 32.44 32.18 31.26 30.96 30.92 32.16 32.12 32.22 31.84 31.60 31.80 31.93 32.16 31.16 30.75 29.77
49.51 48.16 47.58 46.44 43.29 39.84 37.94 36.11 35.33 34.24 33.57 33.02 32.51 33.14 33.29 32.72 33.97 33.81 33.04 31.64 29.96 29.26 29.49 29.55 29.34 29.07 29.16 29.62 30.67 30.96 30.45 30.86 31.43 31.85 32.72 32.00 30.94 32.05 29.17 29.46 29.11 26.43 26.97
42.38 41.05 39.87 39.01 37.64 36.45 35.13 34.19 32.92 31.96 31.01 30.24 29.72 30.49 30.95 31.43 31.37 32.47 32.78 32.09 31.38 30.52 29.89 28.97 28.54 28.49 28.87 29.54 29.72 29.35 27.93 29.50 30.48 30.45 29.99 30.26 30.80 31.01 31.12 30.89 30.49 28.26 25.39
38.78 37.91 37.35 36.80 36.19 35.06 33.84 33.24 32.43 31.29 29.67 28.99 28.59 28.33 29.41 29.83 30.28 30.08 29.92 30.66 31.77 30.90 29.56 29.69 29.16 28.43 28.84 28.78 28.99 27.21 26.80 27.93 29.43 28.25 27.98 28.06 28.13 27.60 28.24 26.94 26.92 26.69 26.59
36.34 35.67 35.63 35.73 35.52 35.26 33.76 32.78 31.86 31.48 30.35 29.59 29.37 28.81 29.18 30.62 30.98 30.21 29.74 29.63 28.98 29.81 29.79 27.94 28.47 29.30 30.01 28.42 26.39 25.93 27.35 27.51 26.27 24.77 24.59 25.20 25.19 25.68 25.88 25.44 25.86 25.71 25.57
35.30 34.75 34.68 33.89 32.94 32.60 32.45 33.24 33.57 32.67 31.58 30.72 30.20 28.68 28.30 27.91 27.92 29.26 29.27 29.47 29.27 29.09 29.65 29.94 29.01 28.03 27.93 28.36 28.29 28.08 28.52 26.49 24.14 24.34 22.99 22.87 23.74 23.31 22.34 23.12 21.52 22.28 21.50
34.90 34.23 32.62 31.67 29.68 29.31 29.70 29.84 27.86 28.97 31.41 29.32 28.43 28.28 26.44 24.18 24.84 25.06 24.49 24.67 25.88 25.72 28.09 27.49 25.73 24.78 24.29 24.32 24.27 24.21 24.12 23.20 21.56 20.53 19.56 19.35 19.14 19.01 18.89 20.65 19.81 19.06 17.73
35.88 34.33 32.58 31.23 29.92 27.76 26.16 25.41 26.73 26.42 25.97 26.19 26.13 25.17 23.55 23.16 23.21 23.46 23.37 22.57 22.62 24.18 25.08 23.12 22.06 21.42 20.34 20.39 20.06 19.78 20.41 19.26 18.71 17.80 18.05 17.11 16.06 15.75 15.93 16.56 17.19 16.79 15.76
33.78 33.39 32.91 32.01 30.64 28.39 26.92 24.44 21.07 22.74 23.94 23.17 22.79 22.19 21.12 19.98 20.36 20.97 21.72 22.33 21.54 22.60 20.99 20.48 19.19 18.72 18.11 18.21 17.85 17.31 15.99 16.69 16.60 15.51 15.10 14.84 14.45 14.09 14.49 13.52 14.29 14.74 14.10
32.19 31.65 32.56 32.04 31.39 30.72 29.71 28.63 27.40 24.51 21.73 19.58 20.07 19.98 19.43 19.19 18.97 19.38 20.50 21.88 20.30 19.75 18.95 18.02 17.07 16.83 16.43 16.06 15.70 14.57 14.43 14.46 14.53 13.74 13.10 13.40 13.21 12.71 11.78 11.70 12.39 12.37 11.86
29.58 29.06 29.13 29.06 28.48 28.25 28.29 27.22 26.30 24.99 22.66 21.82 21.54 20.83 20.28 19.87 19.52 18.86 18.72 18.05 16.87 16.53 16.56 16.41 16.44 15.52 14.81 14.52 14.09 13.87 13.40 13.36 12.74 12.43 12.10 12.00 11.99 11.60 10.63 10.96 11.56 10.99 11.07
26.91 26.70 26.87 26.81 26.16 25.03 24.76 23.59 22.18 21.63 20.17 18.40 16.53 16.11 19.35 20.01 18.20 17.36 16.94 16.19 15.69 15.28 14.90 14.69 14.81 14.50 13.78 13.57 13.33 12.98 12.09 11.64 11.48 10.99 10.81 11.27 11.36 10.97 9.68 10.29 10.86 10.75 10.88
24.82 23.81 24.21 23.85 23.18 22.60 22.25 21.66 21.35 20.43 19.05 16.59 13.49 12.90 13.02 17.34 16.31 16.15 15.57 14.34 13.72 13.72 13.10 13.24 13.17 13.08 13.14 12.51 11.95 10.90 10.35 9.96 10.00 9.87 9.90 9.88 10.01 9.08 10.22 10.62 11.05 11.12 11.25
23.44 22.17 21.59 21.00 20.86 19.78 19.26 19.38 19.09 18.52 17.93 17.09 16.63 13.90 13.68 16.35 15.72 14.87 14.32 13.06 13.03 13.19 13.05 12.17 11.35 11.69 11.41 10.50 9.83 9.33 8.69 8.50 9.30 9.28 8.69 8.47 8.87 9.14 9.79 9.82 9.84 10.50 10.45
20.61 19.63 18.83 18.49 18.46 17.96 18.25 18.15 17.82 17.14 16.39 16.06 15.90 15.04 14.80 13.96 13.78 13.10 12.54 11.99 11.59 11.21 11.44 10.54 9.75 9.33 10.47 9.85 9.31 9.32 8.28 8.33 8.88 8.92 7.29 7.28 7.72 8.53 9.12 8.53 9.21 8.93 9.27
19.73 18.88 18.14 17.76 17.85 17.37 16.46 14.95 13.57 12.73 14.86 15.10 14.88 14.25 13.21 12.73 12.41 11.72 11.37 10.54 9.71 9.81 9.62 8.94 8.58 8.45 8.25 8.02 9.04 8.96 8.91 9.20 8.80 7.75 7.15 6.74 6.04 7.16 8.43 8.22 8.33 8.82 9.46
19.15 18.02 17.40 16.66 16.02 15.48 15.43 15.14 14.81 14.65 14.30 13.69 13.06 12.88 12.24 11.94 11.40 10.93 10.61 9.53 8.13 7.45 7.29 8.15 9.05 8.48 8.15 7.13 7.21 8.39 9.28 7.37 6.08 5.14 5.55 5.95 5.71 5.72 6.98 8.25 8.73 9.13 9.64
17.28 16.75 16.35 16.14 15.61 15.60 14.94 14.14 13.30 12.98 12.03 11.85 11.85 11.19 10.78 10.43 9.97 9.11 8.98 8.18 5.95 4.97 7.11 8.44 8.38 8.00 7.42 8.49 9.24 9.21 6.16 5.35 5.90 6.14 6.69 6.43 5.93 6.92 8.32 8.42 7.70 8.10 8.30

GFSGL_sfc_wetblb_102.txt.gz
Wetbulb
58.98 58.91 58.60 58.07 58.42 57.48 57.14 57.98 58.84 58.96 59.04 59.18 58.71 58.20 57.73 57.50 57.97 57.24 56.67 56.69 56.63 56.91 57.54 57.49 57.30 58.14 57.81 58.03 58.08 57.69 55.75 54.18 51.76 53.22 54.70 54.88 53.82 52.06 51.85 50.94 50.53 50.75 51.05
59.47 58.81 58.18 58.46 58.75 58.14 57.88 56.60 58.14 59.01 58.97 58.49 59.04 58.51 58.16 57.90 57.79 57.29 57.13 57.76 57.59 56.89 57.02 57.25 56.95 57.47 56.69 57.37 57.35 56.40 55.73 55.34 53.60 52.06 53.68 52.91 51.87 51.75 50.82 49.79 49.89 50.36 49.81
59.89 59.28 58.75 58.39 58.75 58.19 58.21 58.89 59.50 58.86 58.86 58.55 58.52 57.90 57.96 58.12 58.04 57.94 57.88 57.56 57.27 57.46 57.22 56.70 56.48 56.03 55.90 54.75 55.11 55.33 55.89 55.11 53.36 51.59 51.00 51.74 49.50 44.80 45.87 45.43 43.92 45.21 45.68
59.69 59.26 58.62 58.72 58.77 58.72 58.42 58.70 58.95 59.32 58.68 58.62 58.40 58.44 58.23 58.01 58.13 58.17 58.10 57.78 57.56 57.67 56.18 46.56 41.80 40.33 40.48 41.74 46.99 46.59 48.67 50.08 50.57 49.46 48.63 46.88 39.84 39.71 39.62 38.51 39.08 40.38 40.97
59.33 59.32 59.10 59.57 59.74 59.80 59.26 59.24 59.15 59.37 58.72 58.72 58.66 58.74 58.77 58.51 53.41 50.30 55.99 56.27 51.27 44.72 41.06 39.24 37.80 37.23 36.34 35.67 37.06 35.66 38.20 40.50 41.20 39.95 37.29 35.39 34.91 34.81 34.59 36.38 36.23 34.79 36.54
58.93 58.60 59.59 60.05 59.96 59.55 59.65 59.46 59.21 59.15 59.27 58.93 57.31 50.88 44.86 42.23 38.29 40.81 45.54 42.75 41.46 40.01 36.84 36.02 35.83 36.55 34.93 34.40 33.79 33.67 33.35 33.98 33.64 33.68 32.96 32.60 31.83 32.10 32.96 32.10 32.10 32.09 32.07
58.91 59.29 59.38 59.71 59.27 59.16 59.61 59.12 58.45 55.09 47.51 42.90 40.71 39.50 37.15 36.52 36.55 36.94 37.90 36.45 35.22 34.64 34.19 34.02 33.73 34.04 34.36 33.80 33.31 32.99 32.55 33.02 30.93 33.01 30.90 30.59 30.94 31.48 32.22 32.04 31.87 31.90 31.90
59.46 59.77 60.00 59.56 59.08 59.34 55.87 45.46 42.31 40.63 38.29 36.86 35.80 35.45 34.53 34.25 34.43 34.53 34.02 33.08 32.24 32.05 31.98 31.62 30.97 30.80 32.01 33.37 32.90 31.94 30.64 30.97 31.45 31.93 31.02 31.08 31.44 32.24 32.03 31.85 30.91 31.21 31.75
59.43 59.40 59.44 59.47 49.00 44.44 40.88 38.74 37.67 36.07 35.08 34.34 34.08 33.44 32.95 33.04 33.83 33.55 32.47 30.91 29.61 29.41 30.19 30.50 29.91 29.13 30.77 32.47 31.43 30.03 29.91 30.80 32.48 32.03 31.90 31.79 31.64 31.59 31.13 29.30 27.69 25.71 24.86
48.29 47.29 44.98 43.58 40.77 37.87 36.77 35.29 34.69 33.93 32.69 32.29 31.55 32.10 32.69 32.26 33.95 33.64 32.82 31.03 29.56 29.12 29.38 29.03 29.45 28.86 30.19 31.16 28.57 27.07 25.09 25.69 29.35 28.92 29.87 30.77 31.61 31.58 30.44 29.17 27.66 24.11 24.19
41.16 40.01 38.51 37.17 35.80 36.34 34.96 33.39 32.87 31.42 30.56 29.81 29.41 29.67 29.84 30.48 31.49 33.07 33.10 31.72 30.82 29.76 29.01 27.69 28.21 29.70 29.56 29.35 28.38 26.11 25.84 27.03 28.41 27.60 27.09 27.39 28.33 27.89 26.92 25.89 25.35 23.90 21.33
38.60 36.74 36.11 35.67 34.99 34.06 32.49 31.88 31.32 30.40 29.23 28.67 28.17 28.19 29.11 29.49 30.21 30.48 31.02 31.23 30.53 27.74 26.93 27.13 27.60 30.54 29.13 28.16 26.83 27.53 28.38 27.05 24.74 24.02 23.88 23.68 22.49 22.48 23.25 23.57 24.09 23.76 23.41
35.84 36.31 34.71 34.39 33.97 33.62 32.08 31.38 30.60 30.55 29.61 29.12 28.57 27.69 27.95 29.54 29.17 29.93 30.09 29.89 29.86 28.12 27.78 28.81 29.54 29.22 29.08 27.56 27.57 27.25 25.07 22.89 21.69 19.05 18.65 18.40 19.03 20.37 21.21 21.00 21.43 21.63 21.35
33.00 32.42 32.10 31.07 30.50 30.93 31.94 32.30 31.48 30.56 29.54 28.15 26.74 24.69 24.44 24.10 23.36 25.00 25.38 25.76 27.02 27.37 28.08 26.07 25.23 25.49 24.40 23.99 23.53 23.01 22.18 20.60 18.66 16.27 15.54 16.71 18.22 17.54 16.63 17.59 15.95 16.11 15.07
30.61 29.68 28.37 27.67 26.79 25.83 26.10 26.18 26.04 27.35 27.48 25.27 24.43 24.01 22.20 21.26 22.18 23.28 22.89 22.62 23.10 24.73 24.12 22.92 20.75 19.74 18.75 18.81 18.59 18.53 18.27 17.33 14.52 14.56 14.15 14.14 14.29 14.43 14.11 15.33 14.47 14.15 11.86
30.45 28.99 27.73 26.85 25.62 24.45 23.28 22.59 25.98 25.60 25.59 25.17 23.98 21.94 21.85 22.70 23.37 23.80 23.40 23.51 24.38 24.66 20.48 17.10 15.14 14.32 14.27 14.97 14.12 13.91 14.72 13.78 13.87 14.04 12.37 12.21 11.61 11.38 11.72 12.69 13.01 11.49 10.53
29.28 28.30 27.35 26.22 24.52 23.12 22.23 20.63 18.54 21.39 23.24 22.62 22.17 21.71 21.65 21.62 22.39 22.92 23.55 22.59 22.15 21.14 15.85 14.54 12.33 11.81 11.90 13.25 12.72 12.12 11.11 12.30 14.06 12.16 10.80 10.65 10.92 10.89 10.26 10.08 10.49 10.31 9.36
31.46 30.84 29.83 28.58 26.94 24.79 23.39 22.65 21.89 19.20 16.43 17.02 20.68 20.38 21.40 21.05 21.06 21.55 21.71 20.58 15.85 16.55 15.19 13.00 11.40 11.34 11.79 12.09 11.72 11.39 11.22 10.97 10.39 10.51 9.52 9.05 8.37 8.54 8.22 8.28 8.54 7.31 7.97
28.69 28.52 28.57 28.18 27.54 27.02 26.18 24.56 22.93 21.14 19.27 18.47 19.18 19.81 20.75 21.27 20.25 19.34 18.81 14.48 12.85 12.43 12.99 12.65 11.76 11.23 10.80 11.47 8.22 8.07 6.40 7.14 5.67 4.94 6.96 6.56 6.36 7.99 6.68 7.38 7.79 7.69 7.79
26.28 26.26 25.71 24.99 24.00 23.09 22.38 21.26 19.60 17.68 15.07 13.41 13.10 13.79 16.58 16.98 14.20 13.31 12.89 11.80 11.02 11.04 10.70 10.86 11.15 11.17 9.21 9.00 5.91 4.06 5.52 4.68 6.12 6.10 5.07 5.59 6.00 6.21 5.60 6.47 6.76 7.07 7.99
23.38 23.23 22.86 22.62 21.94 21.48 20.64 19.39 18.69 16.24 13.16 11.32 10.89 10.27 12.35 14.24 12.84 12.22 11.13 9.96 9.47 9.57 8.67 9.41 8.35 7.24 7.30 6.74 7.70 5.77 4.85 2.32 5.76 6.14 6.27 5.84 4.53 4.47 6.50 7.08 7.43 7.05 7.47
21.48 20.96 20.32 19.32 19.48 18.81 18.59 18.26 17.46 16.43 15.48 13.89 12.63 12.54 12.06 12.67 12.04 10.67 10.04 8.42 7.74 8.63 9.38 7.65 7.40 7.61 7.65 6.76 5.82 1.00 3.68 2.97 4.77 5.45 4.74 3.92 3.98 4.52 5.63 5.62 4.75 6.05 6.78
19.37 18.50 18.26 18.12 18.00 17.07 16.96 16.66 15.81 15.14 14.27 13.65 13.16 12.29 11.58 10.44 9.69 9.57 9.23 5.70 7.70 6.70 6.16 6.45 3.04 4.24 6.88 2.29 3.24 6.96 5.04 4.60 5.81 5.91 3.70 3.00 2.85 2.90 2.39 3.48 4.68 3.72 4.40
18.99 18.07 17.28 16.76 15.73 14.23 13.07 11.81 12.06 11.66 12.87 12.62 11.63 10.93 9.77 8.73 7.58 7.16 5.43 4.00 4.75 4.08 2.89 2.52 4.31 5.66 3.88 2.09 3.64 4.28 7.02 7.11 5.96 3.72 2.69 1.44 0.73 2.33 2.84 2.33 2.80 4.49 5.77
17.85 16.59 15.60 14.93 14.56 14.01 13.47 13.17 12.84 12.50 11.80 11.05 10.12 9.66 9.23 8.08 8.89 5.58 6.32 4.76 3.58 -0.39 1.23 2.94 4.16 3.57 3.47 1.52 3.09 6.40 7.08 3.72 3.25 2.52 3.03 2.65 2.09 0.95 1.87 2.99 4.02 5.49 3.57
16.57 15.84 15.40 15.19 14.30 13.76 12.89 11.52 10.91 10.50 9.57 9.13 9.29 7.96 7.65 7.58 6.52 2.92 4.48 4.23 -0.41 -0.34 3.23 2.78 3.81 2.44 2.78 5.30 6.24 7.93 2.71 4.70 5.57 4.51 3.91 3.73 2.77 2.86 3.32 2.91 1.88 3.19 4.47

GFSGL_sfc_wetblb_105.txt.gz
Wetbulb
56.92 56.67 56.39 56.09 56.69 57.23 57.45 57.16 57.25 57.55 57.12 56.95 56.63 56.52 57.14 57.07 57.35 56.78 56.81 56.74 56.07 55.94 55.61 55.91 55.94 56.39 56.11 55.99 56.29 56.38 55.75 55.21 53.20 54.71 55.10 55.74 52.08 52.64 53.76 53.81 53.35 53.06 52.46
57.90 57.76 56.48 56.62 55.70 55.52 57.00 57.03 57.38 57.09 57.83 57.65 57.78 56.88 56.83 56.68 56.52 55.80 55.46 56.11 55.41 54.50 54.64 55.23 55.39 56.27 55.18 56.10 55.97 55.49 55.75 55.95 54.71 53.48 55.46 54.74 52.33 52.62 52.55 52.55 52.22 51.66 50.91
57.46 58.01 57.53 56.76 55.92 54.87 55.32 56.27 56.45 57.25 57.27 57.95 57.73 56.91 56.78 56.79 56.50 56.04 56.02 55.65 55.38 55.57 55.89 55.16 52.00 49.93 52.04 48.30 50.11 51.23 51.35 52.47 52.39 50.46 49.17 50.59 48.37 43.21 44.22 44.59 43.37 43.62 45.64
57.43 56.51 56.72 56.25 56.44 56.06 56.04 55.40 55.02 57.12 57.35 56.61 57.74 57.78 57.53 57.19 56.95 56.76 56.83 56.49 56.20 50.30 45.58 42.49 40.60 39.81 39.76 42.24 41.61 40.41 42.70 44.03 44.43 43.67 43.54 39.37 38.40 39.03 38.96 37.75 38.03 40.01 40.15
57.31 56.76 56.09 56.54 56.05 56.13 55.69 55.97 57.04 57.26 57.15 57.21 56.56 57.37 56.96 54.74 49.72 52.21 54.86 52.58 45.41 40.79 39.11 37.95 37.75 37.39 36.60 36.28 37.32 35.61 37.57 37.45 36.76 36.81 33.58 34.68 33.20 33.31 32.64 34.39 34.03 34.67 36.00
57.08 56.83 57.17 57.17 57.17 56.47 56.00 55.82 55.74 56.16 56.69 53.55 45.81 45.30 42.19 40.46 38.30 41.55 43.86 41.56 39.53 37.40 35.95 35.85 36.16 35.44 34.50 34.19 33.76 33.67 33.20 32.93 31.82 32.63 30.96 30.97 30.45 31.15 32.18 32.22 32.04 31.23 30.57
56.93 57.33 57.44 57.56 57.30 56.99 57.09 56.92 56.23 48.08 43.29 40.81 38.84 37.60 35.97 36.19 36.71 37.16 36.60 36.36 35.34 34.53 33.89 33.26 32.89 33.28 33.59 33.32 32.39 32.33 32.27 32.05 30.84 31.59 29.32 28.86 29.09 29.33 29.29 28.69 28.13 27.80 28.64
56.24 57.02 57.78 57.87 57.50 57.02 52.08 44.40 41.40 39.74 37.82 36.28 35.22 34.83 34.05 34.14 34.78 34.81 34.45 33.25 32.04 31.49 31.23 30.83 30.36 30.83 32.21 32.10 32.00 31.17 30.84 30.88 31.37 30.80 29.36 28.75 28.46 30.16 28.47 28.21 27.43 27.40 26.95
56.18 56.26 56.96 57.57 46.64 43.55 39.97 38.18 37.27 35.59 34.41 33.85 33.95 33.32 32.64 32.80 33.56 33.05 32.21 30.68 29.56 29.43 30.22 30.18 30.18 30.47 30.69 31.49 28.76 26.95 26.59 27.58 31.47 32.47 32.34 32.41 32.42 30.75 28.40 24.60 21.90 19.93 18.82
43.96 43.40 44.14 42.95 40.50 38.00 36.20 34.76 34.11 33.28 32.22 32.18 31.71 32.66 33.37 32.80 33.71 33.15 32.06 30.71 28.81 28.10 28.70 29.70 30.60 29.41 29.39 28.22 26.42 25.36 24.27 25.00 25.64 25.61 26.65 26.98 26.94 26.40 26.21 23.97 22.04 18.66 18.89
41.72 40.84 38.62 37.80 36.00 35.12 34.29 33.85 32.26 30.87 30.12 29.33 28.98 29.66 30.30 31.40 32.13 33.26 32.95 30.74 29.18 27.56 27.30 27.74 28.72 29.41 28.67 28.83 28.53 25.82 24.28 24.23 24.41 23.73 22.33 21.03 20.82 20.79 21.24 21.90 21.10 19.19 17.34
39.12 38.55 37.15 35.89 35.11 34.04 32.58 31.82 30.91 29.93 28.73 28.21 27.93 27.95 28.95 29.73 30.75 31.21 30.84 29.97 29.37 27.44 26.64 26.79 27.94 28.77 28.39 27.01 24.86 24.66 23.99 21.75 19.56 18.46 17.38 16.96 16.89 17.54 18.15 18.50 19.33 18.91 18.79
37.79 36.23 35.47 35.01 34.20 32.86 31.51 30.72 29.96 30.19 29.03 28.11 27.63 26.05 25.52 26.37 26.17 28.19 29.68 29.66 28.94 26.19 25.86 26.71 26.37 26.02 24.58 22.91 23.07 21.83 19.91 16.96 15.10 13.12 13.51 14.29 15.29 16.28 17.07 17.23 17.50 17.69 17.65
33.42 32.40 32.19 31.95 31.32 31.83 32.09 31.36 29.78 28.31 26.87 25.74 24.10 21.93 21.85 22.24 22.71 23.86 24.68 24.61 27.38 24.88 23.63 21.96 21.83 21.63 19.85 19.06 18.57 18.34 17.20 15.29 14.01 12.73 12.20 12.82 14.43 14.10 13.28 14.61 12.91 13.43 12.10
29.74 28.81 27.69 27.10 26.35 25.96 25.83 25.59 24.53 25.73 26.13 23.76 23.11 22.70 20.75 20.11 21.93 24.05 24.30 24.14 22.95 21.95 19.52 18.86 17.28 16.48 15.04 14.86 14.68 14.72 14.35 14.09 12.22 11.94 10.82 10.90 11.41 11.50 11.27 12.60 12.08 11.53 8.98
27.43 26.55 25.44 24.58 23.74 23.04 22.07 22.41 26.16 25.33 25.06 24.98 24.50 23.31 23.54 24.23 24.25 24.74 25.02 24.63 23.05 21.03 16.75 13.16 10.78 10.71 11.38 11.61 10.58 10.66 11.68 11.26 11.52 11.51 9.74 9.97 9.10 8.72 8.53 10.02 10.42 8.54 7.03
26.05 25.36 24.44 23.49 22.43 21.26 20.44 19.39 17.80 22.09 24.05 23.90 23.95 24.05 24.02 24.02 24.44 23.20 22.85 21.91 20.79 18.57 13.10 11.01 8.41 5.31 7.82 10.61 10.39 9.91 8.94 10.04 11.32 9.63 8.34 7.65 7.82 8.04 7.57 7.50 7.58 7.45 6.84
26.80 25.67 24.31 22.75 21.39 20.30 19.01 18.64 18.48 17.16 16.40 18.15 21.95 21.79 22.65 22.64 22.32 21.55 20.22 17.90 13.87 14.83 12.51 9.88 7.65 7.18 9.98 9.70 9.36 8.33 7.64 6.35 5.55 6.84 4.48 3.09 1.23 6.01 4.47 4.83 6.10 5.00 5.53
28.14 27.50 26.96 26.42 25.40 23.57 21.89 19.83 18.86 18.15 17.65 17.76 18.65 19.29 19.60 19.87 19.19 18.24 16.80 11.58 9.94 9.71 10.39 10.01 8.80 8.42 7.83 7.51 0.88 0.29 -6.68 -2.63 -4.53 -5.09 -0.38 0.94 -3.67 3.32 2.94 4.54 5.20 5.00 5.20
24.95 24.85 24.13 23.17 22.34 20.97 19.34 17.14 15.34 14.26 13.70 12.87 12.47 13.51 15.21 13.70 9.81 8.57 8.73 6.42 7.11 7.77 8.07 7.82 7.90 6.18 3.17 3.11 -2.08 -4.53 -2.54 -5.97 -0.94 1.10 -6.68 -9.58 -8.13 1.40 2.11 2.95 3.95 4.06 4.06
23.22 22.73 22.23 21.81 20.57 19.29 17.30 14.63 13.18 12.48 11.83 12.02 11.87 13.52 13.14 11.07 8.71 7.35 7.22 4.78 4.52 4.77 0.45 4.43 3.15 1.05 2.87 -0.09 2.79 -2.23 -3.78 -10.12 -2.57 -2.90 -4.14 1.16 -4.63 -0.18 2.34 3.33 2.67 2.53 4.32
20.56 20.03 19.65 18.90 18.79 17.98 17.46 16.09 13.48 12.37 11.89 11.28 10.98 11.05 9.37 7.77 7.71 6.61 4.53 -1.10 -5.05 0.27 1.15 -0.55 0.03 1.64 3.94 0.21 -1.51 -7.41 -6.14 -10.31 -8.67 -4.14 -0.73 -1.04 0.94 0.62 0.26 -0.54 0.31 2.07 1.65
18.55 17.84 17.25 16.79 16.39 15.54 14.41 13.81 12.40 11.46 10.60 9.76 9.37 8.65 7.63 4.59 2.19 2.35 -0.83 -5.78 0.51 -1.55 -2.40 -2.68 -6.14 -0.07 -1.03 -5.69 -4.87 -2.25 -5.23 -0.29 1.92 -0.65 -1.53 -1.71 -1.24 -1.35 -2.17 -0.25 -0.27 -1.05 0.31
17.04 15.49 14.23 12.71 12.25 11.39 10.77 10.31 10.30 8.82 9.07 6.88 3.46 2.43 2.83 1.29 -4.50 -3.07 -7.77 -6.88 -4.18 -6.83 -7.87 -6.20 1.70 2.05 -0.72 -4.15 -6.02 -1.87 4.97 2.07 -0.37 -1.47 -3.57 0.12 -0.63 -0.13 0.37 0.17 -0.01 0.35 1.65
15.38 14.14 13.19 12.95 12.18 11.45 10.71 9.71 8.09 5.87 6.10 4.46 1.59 0.74 3.12 1.06 -0.60 -7.59 -2.07 -4.91 -7.89 -10.59 -4.85 0.56 -3.97 -2.99 -3.74 -2.47 -0.57 3.50 0.10 0.66 1.20 3.33 2.05 1.50 0.48 -0.19 -0.18 0.47 0.42 1.31 -0.64
15.07 14.64 13.74 13.08 11.08 9.85 7.77 5.58 3.52 4.13 3.21 1.05 -3.00 -6.69 -0.69 -4.75 -5.02 -4.50 -2.50 -7.87 -8.96 -8.18 -7.20 -6.45 -3.92 -2.56 -0.13 -0.23 1.00 3.98 2.35 2.19 -1.75 -1.64 -1.66 1.42 0.90 1.15 1.65 0.97 0.55 0.98 1.39

GFSGL_sfc_wetblb_108.txt.gz
Wetbulb
56.76 57.12 56.43 56.10 56.60 56.95 56.79 56.62 56.14 57.22 57.17 56.44 56.34 56.44 56.87 57.42 57.49 56.86 56.36 56.30 55.85 55.47 55.24 54.98 55.38 55.94 55.64 55.74 55.66 55.62 54.65 53.79 52.02 53.56 54.72 55.88 51.03 52.13 52.71 53.32 53.67 54.15 53.37
56.73 57.03 56.56 55.70 56.63 57.04 57.02 56.68 56.41 55.93 56.71 56.39 56.00 55.66 55.87 56.58 56.67 56.46 56.00 56.18 55.67 55.09 55.37 55.05 54.99 55.73 55.21 55.85 54.68 53.56 54.44 54.89 53.92 52.88 55.20 53.98 51.89 48.94 45.79 45.81 44.92 45.79 45.30
56.36 56.38 56.50 55.40 55.16 55.70 56.30 56.24 56.39 56.17 56.13 56.27 55.91 55.30 55.52 55.96 56.14 56.17 55.93 55.42 54.91 55.35 54.92 54.12 52.60 49.74 51.69 47.01 47.39 46.72 46.56 47.91 48.06 46.66 46.88 43.16 42.91 40.09 39.30 41.34 40.57 41.67 41.38
56.33 56.99 55.40 54.99 54.42 55.05 56.02 55.94 56.21 56.41 56.39 56.27 56.07 56.17 55.88 55.90 55.51 55.34 55.07 54.46 54.38 48.69 43.81 41.00 39.11 38.35 39.36 41.47 39.72 39.65 41.42 41.90 41.27 40.56 39.03 37.64 36.45 37.46 36.25 33.72 33.91 34.73 35.19
55.82 56.06 56.19 55.69 55.09 54.06 54.63 55.07 55.52 56.27 56.39 56.84 56.37 56.22 55.99 55.87 53.90 55.09 54.93 54.24 43.92 39.38 38.49 37.35 36.98 36.82 36.22 35.92 35.81 35.04 36.61 36.28 36.64 34.15 32.79 32.10 31.12 30.74 29.99 32.04 31.77 31.14 31.63
55.55 55.46 55.63 56.30 56.09 54.69 54.38 54.28 53.77 54.53 55.44 52.06 49.59 45.23 41.91 41.59 38.96 41.49 44.08 41.43 39.28 37.08 35.25 34.59 34.59 34.78 34.05 33.75 33.35 33.00 32.49 32.67 31.75 31.45 29.88 29.72 28.23 28.94 29.04 27.89 27.11 26.30 26.27
55.93 55.93 55.84 55.70 55.41 55.07 55.07 55.05 53.06 45.64 42.80 40.47 39.15 38.14 36.53 36.99 37.66 38.06 37.30 36.73 34.94 34.06 33.38 33.09 33.08 33.23 33.38 32.51 32.47 32.22 32.07 32.13 29.98 30.53 27.69 27.40 27.23 27.81 27.86 25.54 25.11 24.46 22.58
56.15 56.26 56.23 56.10 55.54 55.48 51.69 44.47 41.54 39.85 37.78 36.27 35.03 34.63 33.97 34.29 34.91 34.79 33.85 32.65 31.39 31.09 31.40 31.58 31.41 31.27 32.00 31.80 30.20 29.22 29.84 30.48 30.74 30.10 29.06 28.45 26.99 26.13 24.56 23.41 21.31 21.08 22.09
55.75 56.05 56.37 56.23 49.53 44.49 40.87 38.72 37.42 35.75 34.74 34.00 33.73 32.91 32.19 32.16 33.23 33.08 31.80 30.56 29.73 29.87 30.43 29.22 28.68 28.51 29.99 31.10 28.79 26.77 25.75 25.89 30.05 29.59 28.44 27.05 26.30 25.98 24.50 20.46 18.02 16.90 15.60
46.58 46.90 49.04 45.52 42.66 39.08 37.00 35.74 35.28 34.30 33.14 32.97 32.36 32.69 32.78 31.89 32.83 32.28 30.87 29.43 28.29 28.46 28.79 28.80 29.73 29.07 29.44 28.84 26.58 23.76 22.02 22.58 23.15 21.28 20.55 21.22 21.87 21.49 22.06 19.55 17.27 13.36 13.64
43.20 42.76 42.25 40.69 37.78 36.11 34.69 34.03 32.71 31.65 31.07 30.73 30.32 31.10 31.57 32.35 32.60 32.27 31.09 29.24 28.32 27.73 27.52 27.37 28.38 28.09 27.03 26.39 25.23 22.31 20.82 20.66 19.81 19.03 18.49 17.74 18.06 17.20 17.31 17.58 17.21 14.71 11.97
40.50 38.60 37.06 36.09 35.65 34.49 32.86 32.01 31.41 30.45 29.23 28.46 28.12 28.13 29.41 29.88 30.86 31.14 30.93 30.28 29.79 27.89 27.05 27.25 26.65 26.50 24.97 23.88 21.62 21.23 20.14 18.05 17.28 15.92 14.84 13.77 13.82 14.15 15.27 15.79 16.65 16.76 16.53
37.20 36.12 34.74 33.94 33.07 32.72 31.46 31.27 29.49 29.37 28.15 27.20 25.98 24.32 24.29 25.98 29.34 30.35 29.22 28.17 27.23 25.41 25.97 25.11 24.40 23.38 22.13 20.83 20.23 18.86 17.54 14.91 13.32 10.92 10.61 11.24 12.60 13.99 15.02 14.80 15.56 15.94 15.59
33.96 33.19 33.29 32.51 32.09 31.37 30.74 30.31 28.70 27.14 25.52 24.64 23.33 22.02 22.56 23.40 24.38 26.04 25.86 24.81 24.64 22.83 22.18 20.75 20.20 19.67 18.31 17.44 16.66 16.45 15.56 14.39 11.98 10.31 10.09 11.03 12.46 11.89 10.99 12.18 10.78 11.30 9.77
29.67 28.98 27.81 27.15 25.79 25.22 25.91 25.56 25.26 25.84 25.09 22.65 22.14 22.39 21.39 21.47 24.02 25.72 24.09 22.01 20.63 20.02 18.47 17.84 16.38 15.03 13.84 13.59 13.19 12.98 13.21 12.33 10.39 10.17 9.31 8.95 8.99 9.33 9.01 10.30 9.92 9.09 6.73
26.38 25.50 24.83 24.16 23.56 23.09 22.64 22.81 26.80 26.29 26.58 26.28 25.54 24.15 24.94 26.91 27.09 25.75 24.39 22.94 21.34 19.55 14.94 12.29 10.61 10.78 10.27 10.38 9.61 9.89 10.39 9.67 9.61 9.80 7.54 7.65 6.47 6.56 6.46 7.47 8.00 6.49 5.33
24.31 23.91 23.17 22.81 22.02 21.33 21.09 20.57 19.70 24.14 26.37 26.13 25.97 25.30 25.22 24.93 24.62 24.04 22.57 20.89 19.45 16.54 11.09 9.76 7.75 6.92 8.93 10.06 9.09 8.60 6.49 7.87 9.22 7.54 5.67 4.93 4.67 5.33 4.37 4.86 5.52 5.61 4.90
23.40 22.84 21.58 20.72 20.19 19.78 19.60 19.28 19.08 18.27 17.77 19.48 24.03 24.28 24.33 23.40 22.55 21.52 19.97 17.38 12.75 12.94 11.07 8.83 7.93 7.93 8.76 7.79 7.21 6.00 4.83 2.66 2.05 4.09 0.94 -1.70 -3.32 2.10 1.58 2.68 3.64 2.67 3.37
23.18 22.42 21.90 21.01 20.24 19.78 19.74 19.59 19.48 18.79 17.66 16.89 17.02 18.19 19.55 20.15 19.12 17.90 16.34 11.47 10.36 10.09 9.95 8.69 7.58 6.71 5.59 4.20 -6.85 -8.30 -11.02 -8.48 -9.03 -11.57 -5.98 -4.12 -10.30 -1.11 -0.08 1.33 1.87 1.89 1.65
24.05 23.77 22.88 21.64 20.41 18.94 18.27 17.10 16.32 15.74 15.36 14.86 12.87 11.44 11.88 10.46 7.80 6.95 7.45 7.24 7.04 7.22 7.26 6.42 5.65 3.35 -0.97 -2.56 -10.48 -13.74 -8.48 -10.30 -6.67 -3.95 -10.84 -13.92 -11.02 -5.76 -1.14 -0.37 -0.31 -0.77 0.23
22.94 22.26 21.07 19.80 17.81 16.57 15.70 15.02 14.57 14.12 13.27 12.52 11.93 12.06 11.10 8.49 6.92 6.10 5.39 2.68 2.15 1.80 -1.98 1.99 -0.25 -0.81 -0.96 -5.41 -0.63 -8.30 -9.03 -16.82 -7.76 -4.68 -5.04 -4.16 -12.47 -6.31 -1.00 -1.15 -1.54 -0.54 1.01
21.29 20.32 19.38 17.26 15.78 14.67 14.33 14.50 13.35 12.55 11.68 10.33 9.69 9.25 8.05 5.97 4.60 3.36 2.20 -3.05 -8.85 -2.75 -1.51 -1.74 -0.20 0.44 -1.73 -1.70 -3.26 -12.47 -10.84 -13.38 -10.66 -5.95 -7.58 -6.15 -4.01 -2.23 -2.74 -3.17 -2.84 -1.54 -1.59
18.91 17.79 16.75 16.12 15.79 14.86 13.89 12.95 11.07 9.79 8.96 8.77 7.94 6.68 5.46 3.15 1.26 1.06 -2.56 -10.48 -3.82 -8.12 -7.42 -6.52 -7.94 -3.23 -4.32 -8.30 -8.67 -5.24 -4.31 -3.23 -1.49 -5.04 -7.58 -7.22 -1.86 -1.58 -3.26 -3.39 -1.63 -2.14 -2.01
16.27 14.98 14.31 13.63 13.21 12.36 10.62 9.14 8.14 7.22 6.59 3.99 2.97 2.36 2.29 -0.68 -3.82 -5.07 -9.21 -12.85 -11.81 -14.11 -14.65 -9.75 -2.51 -3.79 -3.86 -9.40 -9.42 -6.13 1.60 -1.08 -1.10 -5.04 -7.76 -6.67 -2.00 -1.24 -1.73 -1.58 -1.63 -1.99 -1.59
15.18 13.85 13.24 12.30 11.31 9.88 9.04 8.14 6.44 3.96 3.07 1.55 2.34 2.81 1.77 -0.47 -1.01 -6.68 -10.69 -13.03 -11.77 -13.56 -9.26 -10.68 -11.20 -7.26 -7.40 -6.68 -4.47 -2.03 -1.19 -1.78 -5.63 -4.59 -5.86 -7.22 -5.59 -4.87 -3.01 -1.50 -1.56 -0.39 -0.79
14.21 12.73 11.51 10.85 9.35 7.92 6.70 5.18 3.66 2.52 1.24 0.62 -0.33 -3.90 -4.67 -3.61 -4.16 -11.75 -12.84 -12.11 -11.41 -11.07 -10.41 -10.53 -7.66 -6.20 -5.49 -3.54 -1.15 3.22 -1.71 -4.77 -6.38 -5.80 -7.79 -3.45 -2.77 -2.89 -1.38 -1.03 -0.91 -0.17 0.27

GFSGL_sfc_wetblb_111.txt.gz
Wetbulb
56.92 57.40 55.80 56.81 56.48 56.20 56.04 57.43 57.61 57.82 58.19 57.82 57.77 57.65 57.47 57.40 57.67 57.28 56.84 56.52 55.62 55.19 55.59 55.46 55.05 55.77 55.70 55.64 55.23 55.18 54.51 53.98 51.55 53.47 53.03 53.05 50.20 49.46 46.98 47.02 46.57 46.15 46.00
56.33 57.07 56.44 56.38 56.81 56.32 55.78 55.72 56.97 56.78 57.13 57.26 57.38 57.49 56.97 56.77 56.44 56.18 55.74 56.34 55.54 54.75 54.82 54.52 54.28 54.55 54.33 54.66 54.23 53.90 53.69 53.68 53.39 52.13 52.98 45.95 41.55 42.08 42.87 40.54 41.59 40.82 40.91
55.81 56.68 56.47 56.55 56.55 56.30 55.92 55.94 55.82 56.55 56.55 56.43 56.31 56.22 56.40 56.40 56.48 56.28 56.06 55.58 55.52 55.26 54.45 53.97 49.53 48.75 49.62 47.38 47.22 46.76 46.17 46.82 46.06 46.36 43.49 40.78 39.62 36.72 37.62 36.82 37.37 36.52 37.52
55.04 55.84 55.63 55.82 56.28 56.12 55.80 55.66 54.66 55.44 55.84 55.68 55.89 56.05 56.19 56.59 56.69 56.17 55.99 54.67 52.02 45.80 42.45 40.45 39.23 39.43 40.85 41.51 40.24 40.24 41.46 41.24 40.01 39.21 37.33 34.60 33.82 34.02 34.25 30.56 31.09 31.49 32.15
54.61 54.97 54.83 55.81 55.52 55.52 55.11 55.30 55.90 55.24 55.14 55.44 55.20 55.16 55.06 54.99 54.27 54.11 54.05 51.39 42.88 38.89 37.77 36.84 36.60 36.69 36.24 36.21 35.90 35.21 36.45 35.87 34.79 33.71 31.99 30.97 29.39 28.82 27.18 28.37 27.61 28.08 30.54
54.43 55.24 54.91 55.22 53.97 54.00 54.21 54.49 55.36 55.52 54.60 54.33 51.64 48.73 45.89 44.11 39.65 44.01 45.99 42.80 39.51 36.67 34.82 34.69 34.59 34.62 33.95 33.85 33.21 32.55 32.25 32.01 30.52 29.35 28.51 27.14 26.39 27.04 27.67 25.60 24.19 22.46 21.99
54.49 54.39 55.71 54.62 53.47 52.83 53.64 53.36 53.20 48.02 45.50 42.49 41.01 40.05 38.24 38.82 38.85 39.18 38.25 37.52 35.66 34.57 33.77 33.13 32.82 33.20 32.76 31.88 31.92 31.73 31.72 31.41 29.82 29.29 24.75 24.56 21.89 22.20 23.23 21.31 20.32 20.03 18.88
55.06 54.89 54.99 54.43 53.75 53.45 51.90 46.38 42.43 41.47 39.52 37.44 36.23 35.92 35.25 35.55 36.27 35.58 34.32 33.22 32.29 32.20 32.17 32.01 31.76 30.86 30.88 30.10 28.60 28.29 28.91 28.40 27.59 26.90 24.84 23.91 23.21 22.05 20.95 20.48 19.07 18.64 19.23
55.54 55.30 55.28 54.73 50.90 46.26 42.18 39.47 38.49 37.02 35.59 34.48 34.25 33.62 32.84 32.93 34.04 33.77 32.80 30.86 29.33 28.56 28.78 29.47 29.85 30.21 31.36 30.75 26.85 25.54 25.24 24.64 25.98 26.17 25.37 24.39 23.51 22.70 20.86 16.85 14.09 12.22 10.96
54.66 54.52 53.54 48.59 44.96 40.87 38.64 37.05 36.13 35.07 33.34 32.94 32.14 32.49 32.58 31.70 33.21 33.24 31.81 29.38 27.46 27.40 28.52 29.02 29.69 28.31 28.06 27.24 25.37 23.51 19.92 19.30 20.03 19.38 18.96 18.99 19.20 19.00 19.56 17.42 14.61 10.50 10.62
43.45 45.64 45.12 44.46 42.08 38.97 36.57 35.73 34.57 33.14 32.41 31.78 31.27 31.72 31.40 31.57 31.66 32.27 31.37 28.77 27.68 27.36 26.48 25.68 26.57 26.58 25.67 24.59 23.15 21.40 19.44 19.64 18.26 17.34 16.31 15.96 15.96 15.83 15.61 15.86 15.63 13.44 10.29
38.96 38.21 37.74 37.40 37.01 35.88 34.13 33.24 32.59 31.59 29.88 29.19 28.67 28.67 29.73 30.58 31.63 31.58 31.23 30.25 29.45 26.32 24.85 24.92 24.63 24.21 23.12 21.94 20.47 20.26 19.10 17.30 16.00 14.19 13.21 12.27 12.15 12.40 13.51 14.29 15.25 15.35 15.12
35.51 34.24 33.55 33.43 33.16 33.56 32.71 31.16 30.13 29.75 28.64 28.15 27.52 26.84 27.15 28.31 28.74 30.07 29.92 28.81 27.24 24.83 24.68 24.58 23.90 22.28 21.08 20.03 19.68 18.31 15.96 14.46 12.57 10.89 10.24 10.00 11.23 12.49 13.26 12.96 13.79 14.17 13.48
33.15 32.29 31.60 30.47 29.75 29.92 29.96 30.24 28.89 27.09 26.08 25.77 24.64 24.07 24.57 24.46 24.52 24.94 25.17 24.82 25.05 22.64 20.99 19.74 18.96 18.43 16.60 16.23 15.97 15.32 14.25 13.39 11.65 9.68 9.07 9.77 10.96 10.58 9.61 10.38 8.92 9.36 8.00
27.62 27.20 26.35 25.87 25.44 25.16 25.61 25.10 24.57 25.30 25.27 24.10 24.41 24.72 23.60 22.71 23.76 23.85 22.59 21.25 20.65 20.15 18.59 17.32 15.60 14.57 13.34 12.91 12.43 12.01 11.92 11.34 9.36 8.55 8.06 7.68 7.38 7.62 7.17 8.21 8.05 7.47 5.16
25.63 24.82 24.62 24.72 24.94 24.58 24.02 23.89 27.38 26.94 27.40 27.85 28.08 26.75 26.35 26.91 26.71 25.75 24.75 23.58 22.05 19.89 15.18 12.52 11.23 11.11 10.59 9.82 8.71 8.74 9.13 8.89 8.69 8.21 6.04 5.18 3.59 4.06 4.20 5.60 6.29 4.83 3.44
23.65 23.72 23.44 23.63 23.23 23.00 23.00 22.36 20.89 24.90 27.53 27.60 27.36 27.15 26.59 25.99 25.30 24.21 22.92 21.66 19.84 16.52 11.30 10.06 8.68 9.33 8.47 8.74 8.06 7.16 6.03 6.90 7.58 5.30 3.46 2.50 1.73 2.50 2.06 2.87 3.62 3.34 2.34
23.26 22.95 22.58 22.24 22.06 21.99 22.09 21.85 22.09 20.78 19.51 20.93 24.97 24.49 24.84 24.03 22.80 21.59 19.92 17.28 12.78 13.01 11.05 8.82 7.43 7.45 7.80 6.60 6.22 5.06 3.73 2.00 1.07 3.06 -0.78 -3.91 -7.69 -0.60 -0.82 0.42 1.20 -0.24 0.27
21.47 20.70 20.53 20.52 20.51 20.45 20.07 19.91 19.88 19.16 18.09 17.50 17.70 18.72 20.91 21.55 20.46 19.02 16.64 12.04 9.99 9.25 8.91 7.62 7.23 6.11 4.63 3.29 -2.49 -4.98 -10.02 -8.39 -9.29 -12.01 -8.05 -7.19 -12.56 -3.92 -2.89 -0.76 -0.58 -1.38 -1.50
21.18 21.21 20.87 20.28 19.63 18.91 18.91 17.80 16.72 15.53 13.96 12.89 11.72 11.16 11.64 10.50 7.50 6.92 7.72 7.61 7.75 7.87 7.57 6.22 5.14 3.18 1.33 -0.32 -8.39 -11.29 -9.84 -11.29 -9.29 -7.30 -12.74 -16.54 -14.37 -10.02 -4.82 -2.95 -2.88 -3.36 -1.71
20.50 19.60 19.11 18.40 17.71 17.30 16.48 15.46 15.17 14.20 12.50 11.34 10.10 10.76 10.53 8.00 5.89 5.36 4.69 2.95 4.09 3.10 -0.16 2.78 1.48 -0.06 -0.55 -3.89 0.08 -8.94 -10.02 -19.08 -11.10 -9.12 -7.48 -5.48 -13.82 -9.29 -3.15 -2.63 -3.23 -2.51 -1.21
19.69 18.24 17.55 16.34 16.24 15.46 14.87 14.56 13.49 12.25 11.19 9.56 8.25 7.68 7.19 5.14 4.25 3.46 2.47 -2.14 -5.31 -0.55 -0.00 -0.01 0.33 -0.04 -1.43 -1.23 -3.91 -14.73 -12.56 -14.91 -14.73 -8.93 -8.75 -8.20 -5.17 -3.51 -4.30 -4.69 -5.10 -4.44 -2.24
18.25 16.63 15.69 15.15 14.71 13.75 12.92 12.38 11.08 9.84 8.66 7.62 6.93 5.78 4.21 2.15 1.83 0.98 -1.36 -6.40 -2.40 -7.14 -5.14 -6.39 -7.48 -4.22 -6.22 -11.10 -10.20 -6.04 -8.57 -6.03 -3.85 -6.57 -10.92 -10.74 -4.98 -3.83 -8.75 -6.04 -3.66 -3.35 -3.06
16.60 15.55 14.55 13.68 12.50 11.40 10.31 8.69 7.74 7.19 5.69 4.69 3.69 2.49 1.07 -2.04 -5.53 -6.47 -9.32 -12.19 -9.30 -10.20 -13.28 -11.10 -5.87 -5.33 -5.37 -11.83 -12.37 -9.11 -0.27 -4.03 -4.40 -7.12 -11.83 -12.74 -7.12 -4.51 -5.20 -4.18 -3.54 -3.85 -3.16
14.15 13.37 12.49 11.42 10.55 9.40 8.52 7.28 5.82 5.25 4.41 3.57 2.24 1.33 -0.75 -2.56 -3.20 -7.02 -13.82 -13.46 -12.76 -15.27 -11.30 -13.11 -13.10 -9.12 -9.84 -9.84 -8.99 -4.79 -6.03 -6.39 -10.20 -9.40 -12.37 -11.65 -10.92 -9.84 -8.20 -4.13 -3.99 -2.34 -2.71
12.88 11.75 10.49 9.26 8.11 7.18 5.76 4.56 3.39 3.17 1.64 1.65 -0.61 -4.25 -3.05 -2.06 -5.25 -12.94 -14.01 -12.74 -12.57 -12.74 -11.66 -12.74 -11.31 -10.75 -10.04 -6.95 -3.70 -2.40 -8.02 -9.47 -11.13 -10.07 -13.64 -7.84 -8.57 -7.50 -6.80 -5.21 -4.19 -3.33 -1.31

GFSGL_sfc_wetblb_114.txt.gz
Wetbulb
56.48 57.12 57.07 57.03 56.89 57.15 57.43 57.65 58.16 58.62 58.96 59.21 59.15 59.35 59.09 58.44 58.19 57.54 57.05 56.90 56.07 56.21 56.18 55.48 55.36 55.81 55.33 55.39 55.15 55.07 54.35 54.17 51.70 53.21 53.88 47.77 43.90 43.91 41.85 43.39 42.07 41.50 41.01
54.91 57.05 57.03 56.95 56.81 56.29 56.29 57.07 57.52 57.32 58.04 58.25 58.37 58.69 58.53 58.41 58.01 57.69 56.71 56.73 56.27 55.53 55.37 55.21 54.83 55.17 54.57 55.05 54.51 54.03 54.23 54.24 53.20 51.73 47.23 41.85 37.76 40.64 38.91 38.39 37.92 37.52 40.42
54.77 56.36 56.15 56.49 56.45 56.08 56.08 56.29 56.86 56.51 56.84 57.18 57.32 57.14 57.46 57.60 57.63 57.47 57.07 56.55 55.98 55.64 55.25 54.91 54.37 53.89 53.24 50.60 50.12 50.02 47.88 47.02 45.75 46.76 39.24 38.25 36.42 35.00 35.46 35.25 34.20 33.69 36.95
54.86 56.16 55.82 56.35 56.41 56.23 56.12 55.81 55.99 56.37 56.13 56.29 56.53 56.37 56.29 56.49 56.65 56.67 56.31 55.63 51.70 46.91 44.12 43.25 43.09 44.80 45.23 44.24 42.56 41.75 42.56 40.57 40.14 39.18 35.58 33.62 32.84 32.47 31.83 29.01 29.53 30.54 31.57
54.34 54.96 55.02 56.06 56.47 56.21 55.61 55.37 55.38 56.06 55.96 55.88 55.94 56.11 56.27 56.27 55.89 55.89 54.30 47.34 41.39 38.54 37.61 37.17 37.45 38.26 37.84 38.11 37.90 37.69 37.91 36.13 34.85 33.13 31.05 29.65 28.38 27.80 25.78 26.71 25.23 26.46 28.71
54.04 54.20 54.80 55.46 55.47 55.57 55.11 55.23 55.21 55.08 55.30 54.94 52.95 51.34 49.02 47.18 42.92 44.55 45.92 42.36 39.52 36.75 34.64 34.42 34.45 34.47 33.73 33.82 33.28 32.83 33.68 33.06 30.34 29.50 27.97 23.72 23.02 24.03 24.14 22.44 21.52 20.90 20.22
54.42 54.92 54.43 54.78 54.30 54.73 54.83 54.99 54.04 49.22 47.81 44.90 43.52 44.01 41.50 41.68 40.38 40.34 39.21 39.02 36.81 34.87 33.52 32.88 32.36 32.76 32.23 31.67 31.15 30.42 29.67 29.06 27.76 26.63 23.45 22.60 19.83 20.83 21.82 19.48 18.29 18.32 18.15
54.15 54.75 55.00 54.67 53.73 53.76 53.24 46.56 43.51 42.05 40.62 38.98 37.39 37.17 36.39 36.57 37.72 36.84 35.95 35.06 33.85 33.29 32.86 32.26 31.08 30.22 30.71 29.56 27.82 25.81 25.19 25.15 25.22 25.09 22.99 22.10 21.36 19.93 19.61 18.48 17.21 16.82 19.08
53.91 53.93 54.24 54.39 52.51 48.41 44.29 41.20 39.52 38.00 36.22 34.95 34.88 34.39 33.59 33.52 34.62 34.31 32.83 31.16 29.94 29.96 30.82 30.89 30.49 29.60 30.77 30.38 25.82 23.25 22.47 23.30 25.61 24.94 23.88 23.36 22.47 21.32 19.71 16.95 14.37 12.74 11.62
54.14 53.78 53.57 51.57 48.48 44.22 40.77 38.57 36.91 35.30 33.61 33.28 32.20 32.78 33.20 32.53 33.56 33.01 31.97 30.52 28.68 27.76 28.01 28.34 29.04 28.08 28.09 26.87 24.16 22.28 19.75 19.61 19.21 18.32 18.25 18.54 18.92 18.37 18.71 16.62 14.90 10.90 10.52
45.78 46.87 47.41 46.84 43.44 40.46 37.78 36.56 34.84 33.26 32.30 31.10 30.52 31.09 31.41 31.51 31.66 32.49 31.93 29.37 27.31 25.83 24.68 24.26 25.27 26.20 25.56 24.83 23.59 21.37 19.35 19.14 17.87 17.21 16.16 15.55 15.67 15.43 15.24 16.08 15.75 13.79 10.57
39.56 38.54 37.75 38.20 38.09 36.82 34.94 33.88 33.20 31.98 30.49 29.60 29.20 29.41 30.36 30.93 31.44 31.17 30.02 28.80 27.49 23.89 22.44 23.06 23.97 24.53 23.63 22.47 20.80 20.75 19.69 17.68 16.39 14.52 13.00 11.84 11.94 12.12 13.18 14.07 14.91 15.07 14.89
35.03 33.95 34.18 34.18 33.76 33.46 32.29 31.42 30.24 30.14 29.17 28.52 27.97 27.36 27.79 29.06 29.02 29.56 28.44 27.27 25.97 23.50 23.86 24.18 23.87 22.82 21.51 20.05 19.49 18.11 15.97 14.65 12.97 11.20 9.67 9.64 10.84 12.23 12.82 12.35 13.24 13.74 13.14
30.88 30.09 30.70 30.88 30.01 30.13 30.73 30.27 29.20 28.99 28.26 26.73 24.88 23.44 23.86 24.30 25.17 25.79 25.36 24.89 24.97 22.18 20.27 18.45 18.12 18.23 16.21 15.52 15.44 15.03 13.82 12.91 11.11 9.55 9.10 9.76 10.63 10.24 8.95 9.62 8.81 9.35 8.25
27.41 27.39 27.13 26.75 26.12 25.76 25.93 25.82 25.86 26.76 27.11 25.19 24.64 24.39 22.52 21.02 22.07 23.13 21.84 19.98 19.33 19.09 17.86 16.82 15.10 14.40 12.95 12.33 12.23 11.92 12.16 10.89 8.81 8.79 7.43 6.99 6.96 7.33 6.78 8.10 7.81 7.02 5.03
26.77 26.50 26.15 25.66 25.52 25.63 25.35 25.49 29.08 28.55 28.67 28.35 27.48 25.68 25.02 25.88 26.23 25.82 24.85 23.68 22.07 20.10 15.19 12.63 11.40 11.30 10.29 9.50 8.97 8.93 9.16 8.28 7.88 7.14 5.47 4.84 3.94 4.32 4.21 5.72 6.31 4.43 2.89
25.19 25.61 25.16 25.04 24.82 24.64 24.75 24.23 23.07 26.71 28.73 28.55 28.15 27.56 27.00 26.68 26.06 25.20 23.87 22.26 20.18 16.72 11.58 10.94 9.45 8.89 8.72 8.65 8.05 7.42 6.53 6.64 6.57 4.69 3.17 2.20 1.60 2.74 2.42 3.26 3.36 2.84 2.28
24.03 24.17 23.90 23.89 23.79 23.66 23.55 23.23 22.78 21.35 20.51 21.87 26.09 25.93 26.11 25.17 23.93 22.52 20.97 18.02 13.08 13.01 10.99 9.38 8.65 8.98 8.31 7.18 6.74 5.69 4.29 3.00 2.82 3.26 0.71 -0.41 -3.08 0.58 0.06 0.89 1.48 -0.10 0.14
21.25 21.23 21.58 21.82 22.33 22.39 22.17 21.30 20.76 20.15 19.15 18.23 18.79 19.88 21.46 21.94 20.60 18.98 16.90 12.21 10.43 9.70 9.16 7.81 7.08 6.14 5.09 3.82 0.78 -0.10 -0.38 -0.39 -2.13 -2.97 -2.88 -2.45 -6.77 -2.67 -1.64 -0.44 -0.25 -1.76 -1.91
21.02 21.44 21.09 20.44 19.67 18.66 18.05 16.79 15.96 15.23 14.54 13.23 12.12 11.49 11.93 10.36 8.09 8.06 9.32 9.60 8.94 8.32 7.64 6.12 5.39 4.63 3.16 0.72 -2.49 -3.83 -2.44 -3.31 -2.28 -1.16 -5.30 -6.94 -6.94 -4.49 -2.99 -2.48 -1.86 -2.10 -1.12
19.66 19.48 19.33 18.84 18.14 17.62 16.57 15.45 14.83 13.30 11.51 10.37 9.43 10.20 10.27 8.32 6.73 6.54 6.00 6.11 5.84 5.41 4.50 4.08 3.51 2.94 2.13 1.23 1.52 -3.34 -2.84 -8.57 -3.85 -2.84 -3.49 -3.17 -8.94 -5.22 -2.08 -1.55 -1.66 -1.18 -0.91
18.91 18.30 17.75 16.72 16.46 15.70 15.08 14.37 12.52 11.11 9.92 8.21 7.05 7.34 7.78 6.42 5.31 4.20 2.87 1.28 1.91 4.11 4.78 4.14 3.84 3.78 3.03 2.10 -0.78 -7.31 -6.39 -8.21 -6.57 -4.58 -4.58 -5.74 -4.49 -3.18 -3.00 -2.94 -3.28 -2.64 -1.88
17.53 16.34 15.61 14.93 14.49 13.49 12.42 11.84 10.29 8.87 7.83 7.32 6.62 5.14 4.16 2.94 2.75 1.95 0.17 -0.93 1.06 0.11 1.89 0.02 -0.41 -0.23 -1.95 -5.68 -4.60 -1.89 -2.59 -1.68 -1.55 -4.94 -6.94 -8.02 -5.27 -3.83 -4.84 -4.49 -3.60 -3.05 -2.12
16.67 15.38 13.97 12.88 12.22 11.30 10.00 8.84 7.79 6.65 5.14 3.89 3.08 3.07 2.36 1.02 -0.35 -2.13 -4.85 -5.14 -4.04 -4.76 -5.30 -5.37 -1.34 -0.93 -1.77 -8.57 -7.37 -4.71 0.59 -2.60 -2.21 -4.16 -9.51 -8.75 -6.39 -4.47 -4.54 -4.29 -2.99 -2.86 -2.98
13.89 12.74 11.84 10.60 9.88 8.90 7.87 6.72 5.19 4.63 3.91 3.05 1.04 -0.20 -0.94 -1.52 -2.55 -6.44 -7.17 -6.52 -6.37 -8.10 -7.35 -9.14 -9.12 -7.51 -8.39 -9.67 -6.94 -3.34 -6.94 -7.66 -9.15 -9.75 -7.31 -8.23 -8.39 -8.39 -6.95 -5.07 -4.72 -3.10 -2.74
11.51 10.50 9.38 8.66 7.16 6.76 5.00 3.28 2.80 2.38 0.87 0.35 -1.04 -2.26 -1.60 -2.39 -4.27 -10.24 -12.21 -9.69 -10.04 -10.40 -9.86 -11.66 -9.70 -10.57 -9.50 -5.59 -3.96 -3.13 -9.13 -9.85 -9.54 -10.64 -10.10 -5.56 -7.66 -7.31 -6.66 -6.43 -5.08 -3.56 -1.88

GFSGL_sfc_wetblb_117.txt.gz
Wetbulb
58.85 59.89 59.93 58.92 59.04 58.97 58.62 59.19 60.23 60.53 60.94 60.52 60.65 60.45 59.61 58.59 57.80 57.03 56.71 56.55 55.35 55.31 55.47 55.03 55.33 55.95 55.72 55.12 55.50 55.08 54.26 53.68 51.90 53.91 53.38 46.15 42.77 41.74 41.73 41.58 41.35 40.30 38.74
58.81 59.10 59.20 58.88 58.27 57.83 58.04 58.94 60.00 59.22 60.07 59.98 59.68 59.53 59.43 59.55 58.26 57.13 55.96 55.66 55.11 54.72 55.05 55.27 55.11 55.57 55.39 55.43 55.05 54.69 54.87 55.25 53.75 52.21 46.89 39.56 38.74 38.23 38.24 35.65 36.21 38.95 37.00
57.56 58.51 58.25 58.51 57.40 57.42 58.11 58.08 58.90 58.70 58.18 58.17 58.46 58.21 58.11 59.31 58.28 57.63 56.75 55.88 55.73 55.25 55.43 55.23 55.37 55.13 54.65 54.73 54.95 54.54 53.98 50.65 50.57 50.27 38.95 38.55 34.34 35.61 34.36 34.46 32.99 34.87 34.38
56.92 57.84 57.81 57.84 57.24 57.29 57.44 57.37 58.34 57.92 56.84 56.94 57.10 57.33 57.65 58.09 57.96 57.72 57.08 56.46 56.28 55.91 55.27 55.05 54.38 54.51 54.35 52.33 49.53 47.57 45.22 44.25 43.31 39.89 35.94 32.87 33.12 32.09 30.85 28.53 28.43 30.40 30.22
56.10 57.17 57.51 58.02 57.62 57.31 56.90 57.03 57.00 57.06 57.09 56.82 56.48 56.14 56.48 56.50 56.91 56.60 54.18 47.64 44.02 40.79 39.74 39.13 39.33 39.59 38.56 39.21 41.87 41.27 40.90 38.82 36.78 34.44 31.28 29.32 27.86 25.83 24.83 25.21 25.06 26.39 27.42
55.86 56.74 57.57 57.33 56.86 56.80 56.24 56.22 56.14 56.08 56.03 55.23 54.46 53.09 51.32 49.20 42.24 42.44 45.30 42.64 39.76 37.29 34.74 34.29 34.57 34.54 33.41 33.02 32.09 31.55 33.56 34.12 31.45 28.62 25.33 23.30 23.23 23.93 23.16 21.94 21.73 22.31 22.54
55.09 56.50 56.28 56.49 56.03 55.95 56.06 55.75 55.10 51.75 49.33 46.71 45.37 44.96 42.19 42.39 40.43 39.79 38.77 38.63 36.12 34.64 33.38 32.60 32.07 32.05 31.22 29.53 29.12 28.68 28.09 27.55 27.11 26.28 22.97 21.40 18.92 20.72 21.73 20.62 21.25 22.04 24.10
54.86 55.32 55.65 55.88 55.45 55.67 55.02 49.52 46.24 45.17 43.69 41.48 39.02 38.25 37.49 37.36 37.48 36.83 35.89 34.89 33.51 32.97 32.50 31.84 30.84 29.73 29.19 27.96 26.24 24.35 23.87 24.10 24.07 23.85 22.54 21.54 20.68 20.64 21.96 21.41 21.29 22.67 25.91
54.42 54.52 54.71 55.69 54.32 52.23 47.16 43.53 41.15 39.41 37.49 36.23 36.14 35.46 34.34 34.08 35.16 34.99 33.81 32.29 30.87 30.35 30.53 30.88 30.00 28.59 29.18 29.22 24.69 22.98 21.92 22.34 25.01 24.65 23.72 22.93 22.06 21.34 20.99 21.38 19.83 19.46 19.21
53.99 54.38 55.10 55.03 51.71 47.39 42.67 39.99 38.30 36.28 34.13 33.60 32.93 33.33 33.48 32.91 34.10 34.05 33.15 31.59 29.10 27.87 28.13 28.91 29.01 27.74 27.32 26.63 24.11 22.10 19.37 18.88 19.16 19.12 19.13 19.15 19.59 19.53 19.69 19.18 18.03 15.31 15.33
46.25 52.50 51.85 50.68 46.85 42.93 39.38 37.34 35.19 33.69 32.66 31.79 31.08 31.37 31.96 32.60 32.91 33.10 32.10 29.47 27.32 25.76 25.48 25.50 26.54 26.84 25.90 24.97 23.95 21.78 19.75 20.01 18.89 18.28 18.32 18.39 18.41 18.51 18.44 18.32 18.23 16.16 14.73
38.63 40.92 40.58 40.51 39.67 38.30 36.39 34.95 33.93 32.70 31.25 30.22 29.67 29.64 30.38 30.79 30.88 30.62 29.67 28.39 27.23 24.16 23.19 23.93 24.51 24.95 24.16 23.01 21.96 21.80 20.95 19.47 19.08 18.14 17.07 15.49 14.96 16.30 18.20 18.61 18.48 18.49 18.64
34.64 34.49 34.98 35.08 34.88 34.89 33.84 32.84 31.89 31.90 30.60 29.53 28.64 27.61 27.32 28.40 28.35 28.81 27.96 26.66 25.55 23.36 23.59 24.15 24.05 23.11 21.88 20.56 20.07 19.07 18.03 17.13 15.83 15.25 14.12 14.31 15.70 16.63 16.99 16.59 18.00 17.78 17.62
30.18 30.92 31.87 32.17 32.01 32.34 32.27 31.88 31.19 30.10 29.17 28.15 26.55 25.10 24.89 24.93 24.84 25.35 24.88 24.83 25.04 22.59 20.52 18.49 18.17 18.42 16.97 16.75 16.57 16.44 16.47 17.38 16.29 15.15 14.23 14.99 15.82 15.42 14.70 15.50 14.81 14.88 15.13
28.73 29.04 29.10 28.91 28.31 27.80 28.26 28.27 28.44 29.67 28.95 25.91 25.52 25.50 23.44 22.51 23.12 23.10 21.36 19.56 19.15 18.52 17.80 17.60 16.07 15.79 15.13 14.55 14.31 14.83 15.54 15.33 13.74 13.97 14.14 14.05 13.60 13.84 13.38 14.24 13.31 13.55 13.07
27.16 26.65 26.91 27.22 27.91 27.64 27.11 27.12 29.87 28.90 28.60 28.18 27.29 25.47 24.55 25.29 25.75 25.17 24.43 23.24 22.19 20.92 19.07 16.77 14.93 15.09 14.16 13.04 12.68 12.31 13.09 12.28 12.52 12.59 12.23 11.74 11.35 11.82 11.65 13.10 12.87 12.48 11.91
26.31 26.49 26.65 27.06 26.84 26.04 25.74 25.03 23.78 27.23 28.89 28.51 28.09 27.61 27.14 26.68 26.38 25.98 24.92 22.78 20.72 19.39 16.16 14.10 13.94 14.14 14.13 13.32 13.11 12.90 11.22 11.25 11.22 11.00 10.22 9.41 10.20 11.08 11.28 11.59 11.73 11.88 11.55
25.19 25.47 25.36 25.64 25.59 25.31 24.76 24.52 24.24 23.13 22.80 23.42 26.88 26.66 26.86 26.43 25.42 23.88 21.64 19.14 15.30 16.01 14.47 13.61 13.46 13.88 13.55 12.72 12.41 11.38 10.83 10.69 10.56 10.10 9.37 8.66 7.85 9.88 10.58 10.41 10.96 8.87 9.65
22.39 22.80 23.66 23.64 23.51 23.42 23.02 22.45 22.12 21.75 21.21 21.22 22.15 23.50 23.98 23.17 21.57 19.60 18.63 16.76 14.53 13.50 13.54 13.19 13.39 12.87 12.42 11.77 10.66 10.44 10.22 9.42 8.74 8.67 8.12 7.90 7.07 8.19 8.84 9.61 9.87 6.60 6.94
21.77 21.65 21.09 20.40 19.92 19.57 19.17 18.45 17.93 17.41 16.80 16.63 16.45 15.56 15.65 15.79 14.58 14.71 15.43 15.23 14.23 13.11 12.68 11.87 11.39 11.39 10.77 10.33 10.01 9.57 9.37 9.67 9.24 8.96 7.93 8.28 7.90 8.81 9.06 8.36 8.58 8.55 9.13
21.03 20.93 21.02 21.02 19.86 19.95 19.37 18.06 16.97 15.91 14.65 13.98 13.47 13.86 13.80 13.92 13.08 12.81 12.72 12.86 12.24 11.41 11.32 10.97 10.40 9.97 10.10 9.97 9.79 9.76 8.74 9.07 8.55 7.90 8.06 7.93 6.35 7.91 8.84 9.56 9.12 8.88 8.68
21.11 20.52 20.07 19.31 18.53 17.33 16.27 15.83 14.87 14.05 12.65 11.34 10.70 10.42 10.99 12.33 11.61 11.13 10.84 10.67 11.04 11.21 11.49 11.19 10.56 10.67 10.48 10.28 9.67 9.34 8.24 7.87 8.98 8.67 8.26 5.94 7.02 8.87 8.32 8.36 8.09 8.30 8.67
19.50 18.45 17.84 17.26 16.63 15.42 15.08 13.94 12.94 12.01 11.09 10.92 10.38 9.55 9.96 9.65 9.23 9.01 8.82 9.65 9.87 9.68 10.29 10.33 9.65 8.29 8.55 8.41 9.93 10.46 10.03 9.72 9.27 7.45 5.88 5.93 6.85 7.96 7.60 7.92 7.27 7.14 7.16
18.32 17.45 16.08 15.69 15.24 13.89 12.94 11.80 10.97 10.00 9.84 9.61 8.89 8.62 8.03 7.60 7.27 6.61 6.76 7.29 7.36 7.95 8.16 8.16 8.56 8.07 6.41 7.38 9.52 9.76 9.79 8.41 8.57 7.04 1.50 4.07 5.65 6.15 6.25 5.98 6.86 6.07 6.27
17.22 15.98 15.21 14.07 12.79 11.58 11.28 10.44 9.86 9.66 9.11 8.46 7.88 7.12 6.49 5.99 5.60 5.59 5.84 5.61 5.54 6.60 4.73 5.37 6.64 5.07 3.94 1.67 3.37 3.17 1.86 0.70 2.07 -0.21 4.64 3.68 3.59 2.36 3.60 4.20 4.56 5.96 6.21
15.64 15.04 14.18 13.47 12.33 11.54 10.47 9.45 8.75 8.61 7.80 7.49 6.98 6.79 6.54 5.61 5.09 4.97 4.23 4.13 3.95 3.76 4.06 4.35 4.05 0.56 -1.24 2.80 0.89 0.37 -0.31 -0.43 1.15 -0.95 2.00 4.21 3.60 4.38 4.73 4.29 3.70 5.24 6.34

GFSGL_sfc_wetblb_120.txt.gz
Wetbulb
58.95 59.08 61.63 61.82 62.49 63.18 60.95 61.23 61.77 61.15 60.69 60.35 60.63 59.93 59.27 58.59 58.62 57.43 56.43 57.27 58.67 59.36 60.74 60.82 60.01 59.38 58.55 58.62 58.50 57.50 56.89 56.41 52.38 53.87 49.87 45.22 42.58 41.33 40.24 41.69 40.27 37.19 35.69
58.84 59.10 60.53 61.90 62.14 62.25 61.19 61.54 61.60 60.59 62.57 62.28 60.93 60.45 59.79 57.83 57.98 57.62 56.58 57.99 59.67 59.00 58.74 58.17 57.79 57.39 57.59 57.08 56.95 57.05 55.50 55.86 53.58 52.21 45.97 39.14 38.39 38.23 36.66 35.95 38.55 37.42 34.66
58.47 58.99 59.48 61.09 60.80 60.56 60.46 61.13 60.24 59.80 60.11 60.02 60.30 59.91 59.70 59.51 58.28 57.93 57.40 56.34 56.47 56.48 56.74 56.61 56.96 55.43 54.95 55.31 54.95 54.81 54.67 54.08 54.50 52.99 39.91 37.57 35.07 36.09 34.24 33.46 33.52 34.32 33.48
57.65 58.20 58.86 59.86 59.75 59.98 61.22 59.92 59.51 59.34 59.42 58.76 59.30 59.26 58.92 58.58 59.05 58.31 57.71 56.51 55.77 55.40 55.20 54.93 54.91 54.71 54.87 54.87 54.41 54.30 53.02 49.73 46.09 39.71 34.72 33.17 32.05 30.78 29.76 29.20 28.15 31.12 30.39
56.46 57.43 58.19 59.19 60.47 60.75 60.96 59.16 59.33 59.43 58.63 58.40 58.72 58.33 56.82 57.28 57.34 57.62 56.96 55.94 54.36 48.53 43.85 42.19 41.17 42.49 41.64 44.43 48.28 45.26 45.00 40.94 37.41 34.34 31.34 28.89 27.41 25.46 24.48 25.40 25.36 27.55 26.49
55.94 56.38 58.47 59.07 59.31 59.93 60.13 58.80 58.38 57.81 57.48 57.11 57.13 54.04 50.87 46.53 40.85 42.66 45.80 43.84 40.66 38.14 35.55 34.78 34.66 34.91 33.68 33.47 33.29 33.07 36.09 36.50 32.98 29.37 27.04 24.74 23.76 23.67 23.83 22.62 23.58 24.75 24.50
53.06 56.61 57.95 58.87 58.71 59.54 58.96 58.25 56.91 55.06 52.33 47.90 46.38 45.16 42.22 40.89 38.89 39.22 38.73 38.62 36.78 35.67 34.18 32.81 31.55 31.55 30.52 29.20 29.15 28.62 28.21 28.50 28.87 27.97 23.88 22.46 21.59 22.86 23.31 22.54 23.47 25.39 24.56
49.94 55.98 57.28 57.89 57.66 58.81 57.77 56.21 51.18 48.90 46.17 42.53 39.89 39.82 38.33 37.37 36.56 35.93 35.23 34.35 33.29 32.89 32.25 31.48 29.88 28.90 28.90 27.35 25.23 23.73 23.20 23.75 24.26 23.86 22.03 21.86 22.52 23.57 23.73 24.13 23.90 24.94 27.39
49.15 55.11 56.14 56.99 56.55 56.96 52.75 49.28 45.38 41.90 40.18 38.79 37.86 37.07 36.10 35.60 35.28 34.71 33.99 32.34 31.10 30.22 30.21 30.06 29.40 28.40 29.40 29.73 25.32 23.14 22.66 23.01 25.15 25.10 24.52 23.87 23.55 23.42 24.07 24.13 22.96 25.20 24.06
41.01 50.07 55.56 55.78 55.44 51.13 46.22 42.46 40.98 38.34 35.95 35.85 34.66 35.12 34.84 34.61 34.79 34.49 33.69 31.82 29.70 28.20 27.86 28.09 28.57 27.37 27.03 26.34 23.76 22.42 19.55 19.44 19.52 19.57 19.78 20.95 21.41 21.46 22.93 24.52 23.90 21.84 22.13
39.19 41.05 54.06 54.14 50.17 45.46 41.55 39.11 37.20 34.90 33.82 33.02 32.65 33.49 33.83 33.80 33.82 33.73 32.79 30.48 28.86 27.42 26.51 26.27 26.84 26.93 26.20 25.44 24.45 22.43 20.45 21.29 20.58 20.45 20.48 20.44 21.78 22.33 22.15 22.47 23.30 23.24 21.88
37.57 37.41 45.37 45.79 42.71 40.38 37.77 36.36 35.36 33.83 31.85 30.98 30.26 29.87 30.87 31.54 31.89 31.63 30.86 29.80 29.27 26.81 25.33 25.70 25.46 25.59 24.83 24.04 23.15 23.06 22.43 21.81 21.86 20.38 20.39 20.41 20.76 21.82 23.05 23.60 23.19 23.23 23.33
34.72 34.55 33.74 37.71 38.37 37.72 35.81 34.36 33.62 33.28 31.60 29.82 28.71 27.46 27.37 28.61 28.93 29.09 28.51 27.33 26.31 24.13 24.29 24.71 24.72 24.18 23.72 22.46 22.52 22.28 21.66 21.92 21.48 20.40 20.32 20.76 20.89 21.67 22.43 22.02 23.31 22.70 22.90
32.25 31.96 33.04 31.95 32.31 33.29 33.61 33.58 32.98 31.96 30.64 28.94 27.71 26.64 26.36 26.27 26.41 26.82 26.04 25.68 25.95 23.99 22.51 20.67 19.99 20.20 19.59 20.11 20.89 21.64 22.21 22.85 21.13 20.87 19.64 20.85 21.79 20.76 19.82 20.56 20.37 21.00 22.26
30.78 31.23 31.37 31.62 29.55 29.30 30.73 30.60 29.77 30.35 29.67 27.47 26.30 25.47 24.06 23.17 24.71 25.15 23.01 20.14 19.08 18.42 18.51 19.39 19.96 19.87 20.17 20.19 20.24 20.87 21.78 21.52 18.93 19.46 19.11 19.09 18.44 18.92 19.13 20.63 20.18 20.74 20.37
28.44 28.65 28.91 29.76 29.51 28.54 27.45 26.84 29.87 29.19 29.22 28.87 28.02 25.84 24.97 25.68 25.83 24.93 23.91 23.15 22.96 23.19 22.68 21.95 20.75 21.65 21.08 19.92 18.89 17.83 18.24 17.51 17.63 18.15 18.30 18.38 18.83 18.43 19.62 20.12 20.55 20.26 19.34
27.88 28.10 27.88 27.56 27.55 27.34 26.30 25.42 24.33 26.88 28.47 27.81 27.54 27.10 26.73 26.37 26.16 25.68 24.94 24.44 23.92 22.80 20.99 19.66 18.67 18.30 18.34 18.54 17.89 16.60 15.61 17.00 17.84 18.55 18.39 17.84 18.67 18.52 19.56 18.90 19.22 18.47 18.11
26.64 26.90 26.52 26.69 26.16 26.16 25.41 24.91 24.77 23.52 23.13 23.97 27.09 26.60 26.73 26.26 25.31 24.36 23.31 21.99 20.56 21.00 21.00 20.24 18.95 19.46 19.41 18.18 17.47 17.15 17.28 18.00 18.16 18.22 17.55 16.64 17.58 18.64 18.70 17.93 18.49 15.86 16.02
24.02 24.17 24.17 24.35 24.51 24.79 24.77 24.03 23.79 23.33 22.41 22.63 22.86 23.58 24.76 23.79 22.58 22.34 23.37 23.00 21.24 20.26 20.04 19.88 20.23 19.79 19.37 19.07 18.99 18.93 18.35 17.52 17.22 17.01 16.70 16.32 16.95 18.12 17.00 17.06 17.65 14.26 14.28
22.55 22.51 22.34 21.71 21.32 20.79 20.71 20.82 21.05 21.94 22.04 21.62 19.96 19.23 20.93 22.30 21.30 20.95 21.70 21.59 20.53 19.66 19.74 19.24 19.07 18.88 18.57 18.44 18.01 16.96 16.86 17.27 17.12 17.32 17.21 17.26 17.16 17.96 17.24 16.31 16.58 15.91 16.51
24.71 23.97 23.12 22.04 20.85 20.39 20.09 19.43 19.74 19.88 19.23 18.75 18.89 20.13 20.59 20.97 19.90 19.85 19.53 19.83 19.59 19.02 18.75 18.27 18.20 17.77 17.54 17.74 18.03 17.87 17.29 16.97 16.17 15.87 16.75 16.36 15.37 16.27 16.27 17.18 16.61 16.44 16.23
24.81 24.11 23.81 22.66 22.53 21.07 20.08 20.30 19.47 17.96 17.00 15.57 15.37 16.36 17.59 18.77 17.97 17.48 18.02 18.20 18.68 18.31 18.29 17.89 17.80 18.01 17.79 17.73 17.73 16.94 15.79 15.32 15.63 16.02 15.51 14.18 15.06 16.63 15.78 16.01 15.62 15.52 16.00
23.49 22.54 21.80 21.28 21.06 20.19 19.85 19.31 18.38 17.35 16.08 15.53 15.62 16.00 16.42 16.52 16.38 16.21 15.67 15.87 16.52 16.83 17.33 17.11 15.98 15.18 15.64 15.91 17.48 17.63 16.40 15.33 14.78 13.33 13.53 13.80 14.54 15.45 14.85 15.04 14.55 14.19 14.07
23.69 22.85 21.37 21.28 20.27 19.26 18.74 17.07 16.51 15.38 15.68 15.62 15.43 15.16 15.22 14.97 14.65 14.20 14.27 15.37 15.18 15.17 14.71 14.49 14.35 13.41 12.65 14.40 15.81 15.70 14.49 14.43 14.50 13.76 6.58 10.77 12.22 13.21 12.92 12.89 13.38 13.04 13.05
22.72 21.93 21.05 20.35 18.81 16.97 16.30 15.69 15.51 15.45 14.94 14.32 14.02 13.79 13.73 13.95 13.17 13.19 13.13 12.97 12.37 12.40 11.49 12.48 12.56 10.16 8.74 8.09 9.74 10.70 6.22 4.67 6.54 3.58 10.04 9.99 10.13 9.05 10.03 10.90 11.34 11.72 12.73
22.65 21.82 20.71 19.60 18.18 17.09 16.55 15.94 15.44 15.10 14.32 14.32 14.45 14.28 13.45 12.66 12.63 12.57 11.43 10.97 10.59 10.51 10.74 10.70 9.46 8.15 7.33 9.86 8.21 5.58 1.58 1.19 4.48 1.76 5.21 9.62 10.15 10.77 11.54 10.96 10.02 10.99 11.91

GFSGL_sfc_wetblb_123.txt.gz
Wetbulb
60.30 60.49 60.44 60.61 62.19 63.22 63.20 63.81 64.32 64.36 63.53 62.51 60.16 58.53 56.84 55.61 56.22 56.28 56.88 57.58 57.89 58.43 59.87 60.42 60.56 60.97 61.26 62.03 62.53 61.91 59.82 58.75 55.51 52.75 47.96 44.36 43.00 41.74 41.27 39.13 37.45 35.68 35.97
59.41 59.52 60.17 59.83 61.71 61.29 62.26 63.09 64.35 63.30 63.85 62.10 60.40 59.70 57.93 56.80 55.85 55.69 55.55 56.48 56.80 57.71 58.68 59.35 59.95 59.75 60.61 61.15 60.36 58.22 58.16 58.68 56.57 52.17 43.22 40.58 38.40 38.41 38.17 38.54 36.69 35.12 33.49
57.12 58.83 59.31 59.19 60.59 61.03 60.89 62.63 61.75 61.77 62.45 61.97 61.69 61.21 59.68 58.06 56.56 56.48 56.39 56.26 56.04 56.84 57.71 59.42 59.96 60.30 59.73 58.86 57.95 57.38 57.71 54.57 54.70 50.69 40.58 36.88 35.80 35.62 33.52 34.13 34.16 33.42 32.25
52.77 57.74 58.47 59.28 60.03 60.55 61.57 61.02 60.73 61.67 61.65 61.55 61.49 61.98 61.79 59.62 58.38 57.78 57.30 56.92 56.65 56.33 56.52 57.28 58.38 58.88 58.26 57.02 55.45 54.89 53.28 52.55 50.60 42.43 36.20 33.50 31.99 30.84 31.69 30.43 29.06 31.15 28.59
50.55 52.10 57.67 59.08 59.96 59.67 59.99 60.04 60.30 60.57 60.30 60.17 59.80 59.48 59.74 59.43 59.29 58.39 57.53 56.94 56.62 56.31 53.32 52.02 52.39 51.53 44.92 46.13 52.67 52.65 52.29 44.64 41.55 38.02 32.75 30.86 28.58 27.67 27.41 27.28 26.95 28.39 26.61
49.19 49.73 56.16 58.86 58.54 59.11 59.33 59.38 59.58 59.73 59.50 58.69 58.31 55.83 52.42 48.42 41.01 44.28 51.67 53.25 49.48 42.35 38.22 37.13 39.09 38.12 35.99 35.23 34.40 33.47 39.53 41.52 36.63 34.12 30.53 27.85 25.19 25.00 25.35 24.90 26.33 27.99 25.13
48.71 49.73 51.55 57.83 57.93 59.82 59.30 58.85 58.60 58.53 56.02 51.05 48.46 47.21 43.89 42.08 39.14 39.78 39.28 39.56 37.68 36.12 34.86 34.01 32.99 33.46 33.47 31.08 30.22 29.41 29.53 30.52 30.70 31.31 26.98 24.91 23.63 24.33 25.40 25.04 26.19 27.01 24.86
45.87 46.89 49.85 57.03 58.46 59.45 58.41 57.25 55.25 52.63 47.12 43.45 41.51 40.77 39.42 37.76 36.95 36.43 35.76 35.25 33.41 32.66 32.57 32.48 32.09 31.10 30.94 28.84 26.41 23.90 23.57 23.97 24.63 24.93 23.88 23.88 24.59 25.39 25.72 25.80 26.40 26.74 26.09
42.02 43.03 44.12 55.87 58.45 58.60 55.82 51.33 47.59 44.55 41.92 39.61 38.88 37.63 36.93 36.15 35.38 35.07 34.54 32.95 31.24 30.61 30.91 30.77 30.68 29.43 30.38 30.65 25.34 23.03 22.59 23.41 26.56 26.92 26.90 26.49 26.45 26.39 26.56 26.92 25.81 26.07 24.84
37.66 38.82 41.29 43.67 57.07 55.32 48.75 45.27 43.38 40.58 37.96 36.85 35.70 36.11 35.58 35.34 35.24 35.00 34.26 32.19 29.44 27.67 28.01 28.32 29.24 28.24 28.24 27.32 24.12 22.43 19.85 20.74 21.36 21.43 21.90 22.78 23.36 24.06 25.34 26.29 26.14 24.11 24.39
36.92 38.48 39.98 42.52 53.00 49.24 44.01 40.95 38.37 36.25 35.30 34.10 33.37 34.10 34.43 34.49 34.45 34.50 33.79 31.57 29.05 27.26 26.24 25.67 26.46 27.14 26.62 25.92 24.95 22.21 21.00 21.84 21.56 22.16 21.50 21.45 22.28 23.25 23.98 24.85 25.22 24.48 24.16
36.23 36.41 36.35 43.12 46.56 43.74 40.54 37.32 36.04 34.72 32.98 31.91 31.36 30.59 31.31 31.90 32.65 32.69 32.21 31.11 30.00 27.26 25.46 25.74 25.84 25.92 25.51 24.96 23.81 24.08 23.64 23.20 22.71 21.54 21.18 21.15 22.25 22.17 23.61 24.67 24.15 24.01 23.73
34.45 33.94 34.46 34.94 39.58 40.15 37.78 35.25 34.24 33.86 32.15 30.58 29.61 28.39 28.28 29.62 29.97 30.63 29.95 29.13 27.90 25.72 25.75 25.87 26.04 25.94 25.13 24.11 24.36 23.93 23.26 22.80 23.10 22.68 22.34 22.67 23.44 23.99 24.63 24.84 24.90 24.74 23.88
31.68 32.31 32.67 32.55 32.10 34.31 35.39 35.04 33.74 32.39 31.01 29.51 27.74 26.50 25.96 26.01 26.07 26.69 26.42 26.25 26.56 25.17 23.89 21.99 21.61 22.09 22.00 22.96 23.98 25.12 26.15 26.25 25.39 24.17 22.88 23.74 24.39 23.41 22.33 22.93 22.02 22.39 23.33
30.43 31.34 31.72 31.47 30.04 29.12 29.50 30.61 30.53 31.56 31.55 28.79 27.48 26.51 24.72 23.96 25.38 26.43 24.92 22.46 20.73 20.07 20.25 20.62 20.42 20.08 20.41 21.02 22.60 23.63 24.19 24.68 23.75 23.57 22.94 22.05 21.77 22.00 21.16 22.46 22.16 22.66 21.96
29.11 29.21 29.80 30.11 29.34 27.93 27.13 27.16 29.85 28.66 28.76 28.47 27.87 26.41 25.75 26.55 26.21 25.23 24.40 23.98 24.31 24.55 22.28 22.01 21.82 22.29 22.91 22.48 22.30 21.69 21.93 21.59 21.88 21.84 21.83 21.75 20.78 20.93 21.73 22.55 22.96 22.18 20.91
27.75 28.50 28.53 28.24 27.47 26.39 25.49 24.35 23.01 26.71 28.66 28.17 27.71 26.96 26.39 25.79 25.73 26.15 26.49 26.96 26.78 26.01 22.73 22.80 22.99 23.15 21.90 20.81 20.57 20.55 20.29 20.77 21.60 21.51 21.24 21.54 21.68 21.34 21.83 21.43 21.52 20.84 19.88
26.19 26.30 27.11 27.25 26.41 25.84 25.28 24.71 24.03 22.73 21.77 23.09 26.55 26.29 26.85 26.86 26.70 26.23 26.06 24.69 22.59 23.57 22.91 21.97 22.09 22.44 21.83 20.61 19.93 19.11 19.73 20.87 21.24 20.64 20.28 20.46 21.05 21.34 20.84 20.39 20.45 18.36 18.28
23.64 24.02 25.24 25.48 25.95 25.58 24.61 23.90 23.27 22.51 21.61 21.28 22.34 23.61 24.80 25.76 26.02 26.24 25.62 24.19 22.96 22.60 22.48 22.06 22.55 21.86 21.44 21.03 21.80 21.83 21.60 20.78 20.50 20.14 19.53 19.38 20.18 20.59 19.28 19.37 19.98 17.74 17.61
23.66 23.61 23.14 22.98 23.81 24.31 23.89 22.27 21.22 20.51 19.55 19.25 19.37 19.95 23.07 23.70 22.70 23.30 23.86 23.54 23.23 23.12 22.82 21.89 21.77 21.56 21.52 21.25 20.49 18.60 18.40 19.57 19.90 20.04 19.68 19.33 19.86 20.17 19.15 18.73 18.74 18.29 18.49
25.17 23.77 22.65 22.07 21.58 21.73 22.05 21.71 21.54 21.04 21.21 21.90 23.29 24.08 23.36 23.13 22.35 21.87 21.45 22.21 22.12 21.75 21.59 20.87 21.00 21.14 21.05 21.04 21.48 21.09 20.12 19.55 18.77 18.78 18.83 18.06 17.77 18.47 18.39 19.23 18.82 18.70 18.35
26.47 25.48 24.14 22.91 22.53 21.33 20.61 20.74 19.41 18.84 19.50 19.30 20.60 21.40 21.77 22.33 21.86 21.47 21.50 20.99 22.01 21.56 21.75 21.06 20.60 20.16 20.87 20.91 20.44 20.09 18.78 17.76 17.63 18.16 16.43 16.45 17.67 18.67 17.92 18.01 17.93 17.40 17.61
25.49 23.98 23.35 23.01 22.62 21.71 20.93 19.50 18.93 18.95 18.83 18.97 19.02 19.43 19.61 19.98 20.33 18.90 19.06 20.27 20.22 20.52 20.61 20.32 19.42 18.69 19.41 20.01 20.72 19.83 18.16 17.46 16.56 15.68 15.66 16.22 16.82 17.20 16.17 16.77 16.39 15.87 15.52
25.23 24.05 22.89 22.94 22.37 21.21 20.17 19.11 19.40 19.00 19.38 19.38 19.45 18.98 18.57 18.67 18.55 18.26 18.45 18.33 18.04 17.83 17.95 17.62 17.21 16.45 16.45 17.19 18.01 17.97 16.29 16.33 15.97 14.38 12.25 13.12 14.68 15.29 14.36 14.57 14.85 14.87 14.36
25.39 24.63 23.87 22.72 20.84 19.98 19.94 19.66 19.06 18.83 18.30 18.15 17.88 17.63 16.95 16.97 16.57 16.38 16.30 16.17 15.91 15.34 14.87 14.48 13.60 12.54 11.78 12.06 12.49 9.91 8.33 6.03 8.05 4.93 13.01 12.85 12.37 11.68 11.99 13.15 13.12 13.64 13.54
24.76 23.79 22.66 22.04 21.16 20.87 20.02 19.06 18.23 17.77 16.82 16.99 16.96 16.95 16.50 15.54 15.32 15.04 14.68 14.37 13.69 13.63 13.11 12.87 12.54 11.17 11.48 11.12 10.16 5.75 4.61 4.39 6.58 3.68 6.53 10.92 12.14 12.73 13.18 12.80 11.68 11.99 12.53

GFSGL_sfc_wetblb_126.txt.gz
Wetbulb
56.83 58.10 60.25 60.61 60.88 61.50 61.90 62.44 63.29 63.14 62.14 60.93 59.02 57.89 57.37 56.79 57.31 57.47 57.57 58.59 58.37 57.37 59.05 58.66 58.36 58.51 57.72 57.94 58.12 57.83 56.97 56.22 50.97 46.42 45.11 43.38 41.70 39.31 38.19 37.37 37.12 36.84 36.72
55.47 56.04 58.46 60.45 60.63 60.88 61.54 61.82 62.31 62.68 62.34 60.91 60.06 58.24 56.91 56.51 56.41 56.37 56.71 57.66 57.85 57.73 57.86 57.89 57.50 58.39 57.91 57.98 57.99 57.00 56.11 55.85 51.98 44.89 42.15 39.36 38.60 39.15 37.48 35.63 35.25 34.06 33.40
53.57 53.85 55.91 59.10 59.49 59.32 61.13 61.10 62.28 62.04 61.90 61.65 60.47 58.45 57.09 56.23 55.83 56.11 56.57 57.04 57.48 57.79 58.04 57.69 57.30 57.48 56.92 56.85 56.35 55.73 55.34 54.74 51.95 45.36 39.24 37.79 35.98 35.86 34.59 34.45 32.79 32.35 32.29
51.78 52.31 53.07 57.43 58.88 59.37 60.94 60.64 60.44 60.91 60.52 61.32 60.90 60.04 58.40 56.93 56.05 55.83 56.07 56.15 56.76 57.22 57.64 58.14 57.87 57.58 56.98 56.73 56.15 55.32 53.86 52.52 47.95 41.62 36.53 33.67 32.44 33.37 32.95 30.89 29.75 30.26 27.85
48.92 50.33 51.18 53.01 58.54 59.77 60.06 60.17 59.89 59.89 59.56 59.98 59.70 60.16 59.94 57.86 56.77 55.91 55.71 55.68 55.40 55.34 55.11 55.35 54.19 54.54 51.06 54.25 55.71 53.24 52.37 48.17 44.51 39.15 33.20 30.76 29.15 29.30 29.44 29.62 28.96 26.65 26.38
48.84 48.60 50.61 51.00 55.82 58.86 58.99 58.97 58.72 58.89 58.51 58.53 57.99 56.37 53.05 50.90 40.40 46.20 52.66 55.48 54.88 54.19 53.40 45.45 44.23 41.79 39.64 38.60 37.50 37.58 44.63 44.61 39.44 38.09 32.69 31.65 27.72 26.60 28.15 27.72 27.69 26.49 24.42
46.74 47.13 47.90 47.56 51.79 58.00 58.55 58.59 57.55 57.33 55.15 50.90 48.80 46.93 43.58 41.74 39.46 40.87 40.13 41.51 39.87 39.72 41.10 39.62 35.49 35.65 35.61 33.27 32.68 32.37 32.29 33.11 33.24 34.94 33.42 28.99 26.14 26.13 26.93 26.93 27.14 27.37 23.47
44.41 45.06 44.38 43.79 46.93 55.10 58.13 57.44 55.25 51.29 48.12 44.73 42.38 41.06 38.59 37.36 37.46 36.97 36.09 35.42 33.75 33.52 33.97 34.23 33.99 32.18 32.72 32.15 29.97 27.96 26.63 27.01 28.74 28.78 27.83 26.69 26.95 27.35 27.81 28.01 27.47 24.29 23.98
40.27 40.23 41.04 40.76 41.91 46.46 52.76 53.26 48.82 44.81 41.95 39.62 38.93 37.61 36.00 35.16 35.51 35.49 35.05 33.58 32.35 31.79 32.10 32.22 32.81 32.45 33.20 34.25 29.40 26.06 25.16 25.73 29.32 29.63 29.14 28.70 28.56 28.61 28.21 26.97 24.96 24.52 24.36
35.98 36.85 38.71 39.99 40.46 43.36 49.61 48.40 44.81 41.49 38.06 37.13 35.78 36.12 35.44 34.51 35.39 35.37 34.71 32.51 29.27 28.18 29.13 29.59 31.09 30.43 31.39 31.22 27.97 25.31 22.12 22.98 23.92 24.42 24.84 26.13 26.86 27.61 27.49 27.27 27.76 25.17 24.37
35.44 36.08 37.68 38.82 39.51 42.26 47.07 43.31 39.80 36.96 35.31 33.93 33.37 33.76 34.14 34.34 34.10 34.87 34.19 31.44 29.29 27.51 26.84 26.51 27.63 28.70 28.54 28.32 27.09 24.20 22.02 22.63 21.99 21.59 21.22 21.60 22.67 23.04 23.41 24.40 24.95 23.66 22.39
34.16 34.60 36.30 37.19 38.37 45.62 42.23 40.15 37.31 35.26 32.93 31.69 30.94 30.42 31.52 32.27 33.10 32.95 32.42 31.12 30.05 26.50 24.86 25.55 26.11 26.93 26.39 25.49 24.26 24.71 24.26 22.91 21.99 21.36 20.89 20.38 20.92 21.48 22.25 22.60 22.89 22.15 22.02
32.58 32.91 34.22 35.55 35.05 36.96 38.44 36.82 35.13 34.57 32.68 31.10 29.80 28.73 28.64 30.13 30.54 31.18 30.12 28.81 27.66 25.14 25.66 26.85 27.46 26.76 26.19 25.02 25.21 24.85 23.73 22.80 21.99 20.70 20.43 20.39 21.32 22.73 23.61 23.15 23.67 22.87 22.13
30.99 31.24 32.44 32.42 31.81 32.09 32.90 34.91 34.80 33.31 32.08 30.37 28.58 26.80 26.12 26.16 26.39 26.94 26.63 26.71 27.53 26.24 25.48 24.03 23.48 23.91 23.74 24.30 24.81 25.12 24.87 24.05 22.78 21.20 20.40 20.96 21.96 21.40 20.38 21.34 20.96 20.63 18.74
30.10 29.74 30.43 30.42 29.98 28.72 28.04 28.86 31.37 31.94 32.50 30.09 28.30 26.65 24.50 23.73 25.11 26.33 25.33 22.61 21.81 22.13 22.42 22.74 22.17 22.16 21.56 21.61 22.22 22.93 23.27 22.99 21.73 21.89 20.93 20.17 20.31 20.69 20.34 20.32 20.39 19.94 18.32
28.44 28.63 28.01 28.44 27.69 27.75 26.62 26.01 29.57 29.77 30.08 29.98 29.32 27.56 27.02 27.70 27.32 25.97 25.40 25.42 25.27 24.78 22.09 20.63 20.29 20.75 20.56 21.00 21.14 21.12 21.52 21.04 20.90 21.30 20.67 20.54 19.84 18.97 18.38 19.73 20.02 16.91 14.47
26.22 27.74 26.99 26.79 26.28 25.46 25.48 24.74 23.47 27.04 28.65 27.97 27.72 27.28 26.79 26.66 26.86 26.98 26.98 26.94 26.89 25.53 21.72 21.19 20.77 20.56 20.13 19.45 19.41 19.53 19.00 20.72 21.67 20.33 19.28 18.25 17.89 19.03 19.03 19.03 17.58 17.40 16.30
25.19 26.38 25.98 25.80 25.40 24.90 24.18 23.82 23.20 22.12 21.36 22.83 26.83 26.71 27.59 28.07 28.36 28.41 27.61 26.06 22.69 22.90 21.23 19.89 19.58 20.03 19.93 19.35 18.59 18.18 18.92 19.37 19.01 18.40 18.21 18.01 16.14 16.77 15.10 16.97 15.69 11.27 12.49
23.51 24.07 25.15 24.74 24.05 23.57 23.37 22.81 22.58 22.13 21.69 21.95 23.25 24.91 26.55 27.71 27.71 27.56 26.54 22.51 21.13 20.98 21.48 20.67 20.32 19.69 19.14 19.26 19.72 19.46 18.73 17.77 17.74 17.33 16.85 14.17 12.36 15.95 13.06 14.35 12.87 10.67 11.34
23.38 23.44 23.43 23.78 22.51 21.28 20.90 19.96 19.43 19.27 19.64 20.21 20.74 21.36 22.85 22.86 21.22 21.54 22.06 21.51 20.72 20.24 20.14 19.56 20.10 20.40 20.31 18.97 17.08 17.40 17.58 17.66 17.16 16.90 13.84 11.50 10.85 12.69 10.94 10.87 9.38 10.12 12.70
23.70 23.14 22.37 21.18 20.97 21.36 21.42 20.74 20.96 21.33 21.12 20.77 21.16 22.30 22.41 20.67 19.81 20.18 20.38 20.41 20.16 20.12 20.11 20.00 19.91 18.99 18.63 18.36 19.28 18.93 17.71 16.13 16.04 15.55 14.74 11.22 8.53 9.38 12.07 12.10 10.38 11.49 12.18
24.05 23.10 22.00 20.76 20.80 19.75 19.21 19.87 19.32 19.18 19.40 19.01 19.84 20.78 21.61 20.81 19.87 19.30 19.22 19.67 20.07 20.13 20.17 19.63 19.36 19.76 19.64 19.47 18.95 17.30 15.28 14.16 13.58 12.85 8.24 9.36 11.26 11.81 10.45 10.08 8.95 7.78 10.71
24.23 22.84 21.85 20.74 19.83 19.17 18.87 18.83 18.33 18.34 18.16 18.16 18.43 18.28 18.11 17.71 17.82 18.17 18.35 18.89 19.00 19.14 19.32 18.73 18.02 17.78 18.67 18.54 18.48 17.74 15.48 12.80 10.45 9.81 9.16 8.97 10.05 9.48 6.82 8.27 7.57 6.95 5.60
24.48 23.00 21.59 20.37 19.56 19.14 18.83 18.39 18.28 17.99 17.67 17.46 17.33 17.26 17.05 17.12 16.77 16.22 16.32 16.30 16.39 16.26 16.27 16.31 15.75 15.08 15.56 15.88 14.24 10.86 8.64 11.01 11.86 7.19 5.51 5.10 7.40 8.73 4.70 5.14 5.61 4.05 3.48
24.46 22.62 21.03 20.17 19.67 19.26 18.80 18.43 17.77 17.21 16.90 16.52 15.82 15.99 16.11 15.83 15.07 15.11 15.34 14.62 13.76 12.94 12.51 12.23 11.58 10.64 8.63 6.57 5.54 4.77 4.71 2.68 1.06 1.47 5.90 5.28 3.13 2.06 2.83 3.80 3.05 5.06 3.34
23.40 22.53 21.67 20.85 20.05 19.33 18.19 17.45 16.98 16.76 16.24 16.20 15.83 14.95 14.68 14.00 13.68 13.35 13.01 13.12 12.80 12.27 11.95 11.24 10.30 9.23 8.36 4.98 4.18 3.36 1.31 -0.01 -1.12 -1.60 -2.73 3.34 2.93 3.77 4.08 2.93 1.73 1.52 3.61

GFSGL_sfc_wetblb_129.txt.gz
Wetbulb
51.37 52.79 53.33 55.72 59.02 59.88 60.98 61.59 61.97 62.30 61.39 60.32 59.20 57.94 57.82 57.73 57.78 58.23 58.45 58.68 58.51 58.55 58.88 58.74 58.47 58.96 58.31 57.45 58.05 57.52 56.07 55.19 49.39 43.93 43.62 41.01 40.70 39.84 38.60 38.35 37.63 36.35 36.35
50.96 50.93 51.34 53.06 56.59 59.71 59.84 61.02 61.75 61.89 61.33 60.20 58.96 57.46 57.50 57.29 57.37 57.31 57.15 57.75 57.99 57.37 57.70 58.31 58.21 58.09 57.77 58.33 57.07 57.01 56.57 54.58 50.75 42.85 40.72 39.64 37.92 36.98 35.92 34.53 34.92 35.28 34.62
49.26 48.93 49.97 50.94 53.12 56.83 59.32 60.51 61.32 61.49 61.22 60.56 58.87 57.17 56.96 56.57 56.55 56.75 56.97 57.13 57.81 57.50 57.55 57.88 57.98 57.54 56.68 57.82 56.17 56.15 55.93 53.37 49.45 43.91 40.05 37.88 36.67 36.04 34.10 33.44 32.21 32.04 33.18
48.06 47.88 47.83 49.53 50.66 52.23 56.84 59.32 60.77 61.33 61.09 60.17 59.55 58.45 57.36 56.84 56.29 56.23 56.43 56.67 57.14 57.43 57.33 57.77 57.74 57.79 57.40 56.97 55.34 53.98 53.45 49.87 47.02 42.79 37.82 34.63 34.22 34.18 33.37 29.76 28.56 29.49 28.97
46.40 46.84 47.34 48.34 49.19 50.22 53.04 58.84 60.35 60.77 60.76 60.58 59.80 59.28 58.06 57.08 56.35 55.77 56.01 55.95 55.95 56.25 56.25 57.17 56.94 55.55 51.79 53.32 55.67 53.20 50.98 46.20 43.08 39.93 34.62 31.44 29.93 30.61 30.56 31.01 28.03 26.60 26.20
44.56 44.64 46.20 46.85 46.09 46.45 50.67 55.10 59.18 59.80 59.08 58.44 59.19 58.91 58.27 56.09 47.04 46.13 51.99 54.85 54.69 54.37 53.24 52.16 54.22 50.04 49.30 45.59 45.23 45.95 48.55 46.15 42.36 40.15 37.87 34.84 31.18 32.60 30.39 30.30 26.25 25.20 24.05
42.91 42.65 43.25 43.48 42.71 42.87 44.99 47.50 58.04 58.35 57.19 53.98 52.32 51.02 47.66 45.99 40.12 43.05 43.78 51.19 51.14 50.09 50.94 42.47 38.14 40.68 40.58 38.12 35.69 35.24 34.71 36.81 39.53 38.41 37.96 34.77 30.92 30.74 31.13 29.03 29.26 28.40 24.18
40.38 39.16 38.56 38.58 39.34 41.05 42.58 45.64 53.33 54.24 52.59 48.47 44.92 42.91 40.15 38.06 38.22 38.37 37.29 36.70 34.71 33.93 33.99 34.89 36.15 33.99 36.33 35.23 35.62 32.36 31.32 31.76 32.49 32.84 34.15 30.86 30.24 31.59 32.11 30.94 27.12 23.56 23.66
36.10 35.03 35.94 36.54 37.32 38.96 40.06 42.47 46.77 47.55 46.44 42.11 40.12 38.14 36.60 35.40 35.95 35.77 36.07 34.22 32.67 32.01 32.69 32.90 32.72 33.44 35.09 37.43 33.46 30.94 30.01 29.53 32.47 32.54 32.14 31.83 31.73 31.44 29.84 26.16 23.59 24.07 23.06
32.68 33.13 34.90 35.70 37.14 37.85 38.42 40.81 45.77 45.54 40.44 38.23 35.96 35.72 35.28 34.60 35.51 35.55 35.05 32.93 30.38 29.63 30.38 31.76 33.10 32.16 31.95 33.70 31.86 29.66 26.32 26.49 27.29 27.35 27.73 28.69 28.94 29.01 29.07 29.01 28.05 25.23 21.92
31.13 32.69 34.09 35.38 36.53 37.65 38.62 40.00 41.07 39.08 37.11 34.80 33.70 33.74 34.04 34.51 34.64 34.63 34.11 32.31 30.33 28.68 28.14 27.75 29.68 31.59 32.12 32.33 32.02 29.74 25.71 24.85 24.25 24.10 23.46 23.33 24.02 24.38 24.17 23.65 24.21 26.50 21.13
30.06 31.95 33.00 34.39 35.51 36.60 38.76 41.05 38.37 37.06 34.75 32.78 31.64 31.14 31.88 32.51 33.52 33.44 32.53 31.42 30.52 27.43 25.84 26.79 27.87 29.09 28.90 28.24 26.67 26.82 25.69 23.94 23.19 21.96 21.12 20.48 20.33 20.60 21.85 22.04 22.33 22.33 22.47
29.58 31.16 31.61 33.10 33.25 33.64 35.97 36.04 35.00 35.30 33.85 31.77 30.65 29.24 29.14 30.56 30.97 31.52 30.44 29.31 28.29 26.09 26.69 28.00 28.49 28.00 27.02 25.74 25.71 25.22 23.93 22.76 21.74 20.45 19.69 19.96 20.97 21.99 22.90 22.09 22.54 21.90 22.15
27.95 29.68 30.00 30.01 29.84 29.26 31.50 33.04 32.90 32.36 31.95 31.86 29.79 28.00 27.50 26.93 26.87 27.41 27.66 27.90 28.65 27.41 26.62 24.91 24.31 24.59 24.32 24.12 23.88 24.20 23.71 22.90 21.45 20.28 19.80 20.96 22.20 21.87 21.07 21.85 21.23 20.84 19.22
27.28 28.73 28.20 28.18 27.84 27.60 28.39 29.25 31.34 31.72 31.92 31.75 30.75 28.28 25.95 24.64 25.75 27.53 27.23 25.61 24.04 23.75 23.98 24.12 23.51 23.06 22.34 22.25 22.46 22.71 22.93 22.49 20.67 20.78 20.20 20.09 20.41 21.02 21.11 22.15 21.66 20.19 17.78
25.57 26.96 26.59 26.62 26.21 26.63 26.26 26.47 30.50 30.33 30.30 30.43 30.22 29.14 27.75 28.47 29.19 28.13 26.90 26.81 26.69 26.33 23.16 21.25 21.03 21.47 20.95 21.05 20.93 20.82 21.38 20.86 21.04 21.15 20.80 20.58 20.12 20.44 20.00 20.12 19.44 17.23 15.13
24.39 25.99 25.95 25.29 24.38 22.98 23.53 24.31 23.06 26.87 28.89 29.22 29.18 28.89 28.28 27.76 27.93 27.93 27.62 26.99 26.63 25.45 21.80 21.33 20.78 20.57 20.17 20.11 20.07 20.09 19.91 21.18 21.81 20.76 20.28 19.89 20.05 19.27 17.90 17.11 16.60 15.67 15.73
23.80 24.74 23.87 23.52 23.61 22.94 22.79 22.87 23.42 23.15 22.48 23.91 27.53 27.46 28.24 28.23 27.97 28.04 27.54 25.52 21.88 22.34 20.95 19.64 19.02 19.77 19.72 19.59 19.83 19.60 19.77 20.16 19.84 19.73 18.92 18.26 18.12 17.47 15.82 14.90 13.33 7.67 11.27
22.69 23.37 22.65 21.92 21.34 21.29 21.87 22.07 22.80 23.12 23.28 23.60 25.32 26.65 27.88 28.40 27.55 26.97 25.77 21.65 20.08 19.59 19.76 19.27 19.17 19.16 19.35 19.89 19.75 19.26 18.78 17.71 17.50 16.77 16.71 16.24 15.41 15.79 13.90 12.80 11.93 10.93 12.24
22.16 22.17 22.20 21.57 20.71 20.31 20.71 20.46 20.50 20.56 20.55 20.38 20.73 21.16 22.42 22.12 20.07 20.22 21.07 20.49 19.89 19.32 19.34 19.24 19.83 20.03 18.53 18.23 18.58 18.34 17.53 17.04 16.93 15.93 14.99 14.55 12.60 14.52 13.76 12.94 11.71 11.97 12.94
22.11 21.56 21.24 20.56 20.10 20.36 20.40 20.52 20.46 20.27 19.40 19.05 19.31 20.79 21.46 20.03 19.24 19.27 19.42 19.82 19.94 19.94 19.46 18.64 18.49 18.34 18.62 18.70 18.97 18.48 17.53 16.52 16.17 14.96 14.50 13.51 13.52 12.27 12.73 12.23 12.62 12.12 11.88
21.72 20.57 20.06 19.21 19.35 18.85 19.06 19.71 19.30 18.95 18.83 18.46 18.55 19.09 19.90 19.36 18.83 18.49 18.67 18.90 19.47 19.95 20.07 19.84 19.59 19.81 19.53 18.42 17.63 16.77 15.54 14.30 14.61 13.90 13.45 13.51 13.80 12.36 11.14 9.63 7.94 7.86 8.64
22.09 20.51 19.71 19.36 19.39 19.02 18.31 18.30 17.77 17.61 17.24 17.07 17.21 17.22 17.75 17.26 17.29 17.22 17.39 17.93 17.98 18.03 18.63 18.82 18.16 17.40 17.22 17.24 17.40 15.64 13.18 11.67 11.22 11.38 10.86 11.63 9.94 8.32 6.56 6.19 4.90 3.52 2.51
20.57 19.45 18.87 18.69 18.56 17.96 17.47 16.78 16.73 16.83 16.65 16.34 16.19 15.84 15.26 15.10 14.94 14.88 14.85 14.83 14.78 14.50 13.74 13.73 14.82 13.91 11.17 10.34 10.44 10.77 10.38 9.65 9.17 8.11 7.31 8.66 6.93 6.11 3.89 3.13 2.33 -0.10 -0.19
20.26 19.42 19.05 18.16 17.79 17.14 16.37 16.16 15.82 15.48 15.30 15.30 14.77 14.36 14.25 14.39 13.64 12.86 12.82 12.57 12.02 11.36 11.05 10.83 10.03 7.65 6.21 5.47 5.08 5.22 5.62 2.58 2.07 3.05 5.48 4.76 2.36 0.17 -0.58 0.43 -1.35 1.07 -2.33
20.44 19.48 18.67 17.92 17.08 16.70 16.32 15.64 15.15 15.13 14.21 13.97 13.72 13.55 12.95 12.39 12.56 12.60 12.35 11.75 10.94 10.16 9.87 9.28 6.99 5.28 4.44 4.17 3.42 3.24 1.95 1.50 -0.24 -2.11 -2.11 2.64 2.76 0.82 -0.11 -2.52 -2.67 -2.63 -0.44